<?xml version="1.0" encoding="UTF-8" standalone="no" ?>
<gpx xmlns="http://www.topografix.com/GPX/1/1" xmlns:xsi="http://www.w3.org/2001/XMLSchema-instance" xsi:schemaLocation="http://www.topografix.com/GPX/1/1 http://www.topografix.com/GPX/1/1/gpx.xsd" version="1.1" creator="VisuGPX - https://www.visugpx.com">
  <metadata>
    <name>Monte Abantos, San Lorenzo del Escorial</name>
    <desc><![CDATA[Ruta moderada de senderismo al Monte Abantos (1.7603 m) desde San Lorenzo del Escorial. Espléndidas vistas.]]></desc>
  </metadata>
  <wpt lat="40.59438" lon="-4.15479">
    <ele>1095.851929</ele>
    <name><![CDATA[001_InicioAparcamiento]]></name>
  </wpt>
  <wpt lat="40.59481" lon="-4.15566">
    <ele>1104.476196</ele>
    <name><![CDATA[002_Senda]]></name>
  </wpt>
  <wpt lat="40.59481" lon="-4.15659">
    <ele>1133.829468</ele>
    <name><![CDATA[003]]></name>
  </wpt>
  <wpt lat="40.59567" lon="-4.15863">
    <ele>1179.73291</ele>
    <name><![CDATA[004_Cruce]]></name>
  </wpt>
  <wpt lat="40.59635" lon="-4.15903">
    <ele>1190.459229</ele>
    <name><![CDATA[005]]></name>
  </wpt>
  <wpt lat="40.59849" lon="-4.15991">
    <ele>1171.217896</ele>
    <name><![CDATA[006]]></name>
  </wpt>
  <wpt lat="40.5997" lon="-4.16061">
    <ele>1194.673706</ele>
    <name><![CDATA[007]]></name>
  </wpt>
  <wpt lat="40.60075" lon="-4.16063">
    <ele>1225.497681</ele>
    <name><![CDATA[008]]></name>
  </wpt>
  <wpt lat="40.60297" lon="-4.15985">
    <ele>1311.721436</ele>
    <name><![CDATA[009]]></name>
  </wpt>
  <wpt lat="40.61036" lon="-4.15886">
    <ele>1579.62915</ele>
    <name><![CDATA[010_DesvioCampoTraves]]></name>
  </wpt>
  <wpt lat="40.61007" lon="-4.15621">
    <ele>1678.445435</ele>
    <name><![CDATA[011]]></name>
  </wpt>
  <wpt lat="40.60927" lon="-4.1561">
    <ele>1672.472656</ele>
    <name><![CDATA[012_Mirador]]></name>
  </wpt>
  <wpt lat="40.61183" lon="-4.15489">
    <ele>1698.541016</ele>
    <name><![CDATA[013_]]></name>
  </wpt>
  <wpt lat="40.61602" lon="-4.15088">
    <ele>1753.32959</ele>
    <name><![CDATA[014_Abantos]]></name>
  </wpt>
  <wpt lat="40.61689" lon="-4.15129">
    <ele>1757.652588</ele>
    <name><![CDATA[015]]></name>
  </wpt>
  <wpt lat="40.6179" lon="-4.15184">
    <ele>1760.461914</ele>
    <name><![CDATA[016_VistasValleCaidos]]></name>
  </wpt>
  <wpt lat="40.62031" lon="-4.15937">
    <ele>1745.178711</ele>
    <name><![CDATA[017_]]></name>
  </wpt>
  <wpt lat="40.62344" lon="-4.16122">
    <ele>1707.848389</ele>
    <name><![CDATA[018_Portillo]]></name>
  </wpt>
  <wpt lat="40.62611" lon="-4.16877">
    <ele>1739.276367</ele>
    <name><![CDATA[020_VerticeGeodesico]]></name>
  </wpt>
  <wpt lat="40.63639" lon="-4.17126">
    <ele>1611.446655</ele>
    <name><![CDATA[021_RefugioNaranjera]]></name>
  </wpt>
  <wpt lat="40.63065" lon="-4.17894">
    <ele>1561</ele>
    <name><![CDATA[022_FuentesNegras]]></name>
    <desc><![CDATA[Area recreativa]]></desc>
    <cmt><![CDATA[Area recreativa]]></cmt>
  </wpt>
  <wpt lat="40.62134" lon="-4.17932">
    <ele>1646.567261</ele>
    <name><![CDATA[023]]></name>
  </wpt>
  <wpt lat="40.61641" lon="-4.17643">
    <ele>1629.03125</ele>
    <name><![CDATA[024]]></name>
  </wpt>
  <wpt lat="40.61006" lon="-4.17278">
    <ele>1594.328491</ele>
    <name><![CDATA[025]]></name>
  </wpt>
  <wpt lat="40.60421" lon="-4.17366">
    <ele>1545.06604</ele>
    <name><![CDATA[026_AltoMalagon]]></name>
  </wpt>
  <wpt lat="40.60338" lon="-4.17106">
    <ele>1507.480713</ele>
    <name><![CDATA[027_ViaPecuaria]]></name>
  </wpt>
  <wpt lat="40.59921" lon="-4.16353">
    <ele>1311.40686</ele>
    <name><![CDATA[028]]></name>
  </wpt>
  <wpt lat="40.59591" lon="-4.15876">
    <ele>1198.655518</ele>
    <name><![CDATA[029]]></name>
  </wpt>
  <wpt lat="40.59479" lon="-4.15567">
    <ele>1115.274902</ele>
    <name><![CDATA[030]]></name>
  </wpt>
  <wpt lat="40.59436" lon="-4.15486">
    <ele>1107.322754</ele>
    <name><![CDATA[031]]></name>
  </wpt>
  <trk>
    <name><![CDATA[20141120_Abantos]]></name>
    <trkseg>
      <trkpt lat="40.59439" lon="-4.15484">
        <ele>1096.04</ele>
        <time>2014-11-20T06:22:19Z</time>
      </trkpt>
      <trkpt lat="40.59441" lon="-4.15486">
        <ele>1096.04</ele>
        <time>2014-11-20T06:22:23Z</time>
      </trkpt>
      <trkpt lat="40.59457" lon="-4.155">
        <ele>1097.96</ele>
        <time>2014-11-20T06:22:42Z</time>
      </trkpt>
      <trkpt lat="40.5946" lon="-4.15504">
        <ele>1098.92</ele>
        <time>2014-11-20T06:22:47Z</time>
      </trkpt>
      <trkpt lat="40.59463" lon="-4.15508">
        <ele>1099.4</ele>
        <time>2014-11-20T06:22:59Z</time>
      </trkpt>
      <trkpt lat="40.59464" lon="-4.1551">
        <ele>1099.4</ele>
        <time>2014-11-20T06:23:00Z</time>
      </trkpt>
      <trkpt lat="40.59473" lon="-4.15529">
        <ele>1100.85</ele>
        <time>2014-11-20T06:23:15Z</time>
      </trkpt>
      <trkpt lat="40.59476" lon="-4.15537">
        <ele>1101.33</ele>
        <time>2014-11-20T06:23:22Z</time>
      </trkpt>
      <trkpt lat="40.5948" lon="-4.15566">
        <ele>1104.69</ele>
        <time>2014-11-20T06:25:04Z</time>
      </trkpt>
      <trkpt lat="40.59478" lon="-4.15572">
        <ele>1105.65</ele>
        <time>2014-11-20T06:25:23Z</time>
      </trkpt>
      <trkpt lat="40.59468" lon="-4.15572">
        <ele>1107.1</ele>
        <time>2014-11-20T06:25:41Z</time>
      </trkpt>
      <trkpt lat="40.59467" lon="-4.15569">
        <ele>1107.1</ele>
        <time>2014-11-20T06:25:44Z</time>
      </trkpt>
      <trkpt lat="40.59463" lon="-4.15565">
        <ele>1108.06</ele>
        <time>2014-11-20T06:25:50Z</time>
      </trkpt>
      <trkpt lat="40.59462" lon="-4.15564">
        <ele>1108.54</ele>
        <time>2014-11-20T06:25:53Z</time>
      </trkpt>
      <trkpt lat="40.59461" lon="-4.15564">
        <ele>1109.02</ele>
        <time>2014-11-20T06:25:55Z</time>
      </trkpt>
      <trkpt lat="40.5946" lon="-4.15562">
        <ele>1109.5</ele>
        <time>2014-11-20T06:25:57Z</time>
      </trkpt>
      <trkpt lat="40.59457" lon="-4.1556">
        <ele>1109.98</ele>
        <time>2014-11-20T06:26:00Z</time>
      </trkpt>
      <trkpt lat="40.59456" lon="-4.1556">
        <ele>1110.46</ele>
        <time>2014-11-20T06:26:02Z</time>
      </trkpt>
      <trkpt lat="40.5945" lon="-4.15556">
        <ele>1110.94</ele>
        <time>2014-11-20T06:26:08Z</time>
      </trkpt>
      <trkpt lat="40.59438" lon="-4.15559">
        <ele>1113.82</ele>
        <time>2014-11-20T06:26:22Z</time>
      </trkpt>
      <trkpt lat="40.59435" lon="-4.15571">
        <ele>1114.79</ele>
        <time>2014-11-20T06:26:33Z</time>
      </trkpt>
      <trkpt lat="40.59435" lon="-4.15583">
        <ele>1117.19</ele>
        <time>2014-11-20T06:26:45Z</time>
      </trkpt>
      <trkpt lat="40.59439" lon="-4.15595">
        <ele>1118.63</ele>
        <time>2014-11-20T06:26:58Z</time>
      </trkpt>
      <trkpt lat="40.59437" lon="-4.15606">
        <ele>1120.07</ele>
        <time>2014-11-20T06:27:16Z</time>
      </trkpt>
      <trkpt lat="40.59433" lon="-4.15614">
        <ele>1119.59</ele>
        <time>2014-11-20T06:27:33Z</time>
      </trkpt>
      <trkpt lat="40.59431" lon="-4.15622">
        <ele>1122</ele>
        <time>2014-11-20T06:27:42Z</time>
      </trkpt>
      <trkpt lat="40.59427" lon="-4.1563">
        <ele>1122.48</ele>
        <time>2014-11-20T06:27:49Z</time>
      </trkpt>
      <trkpt lat="40.59424" lon="-4.15635">
        <ele>1122.96</ele>
        <time>2014-11-20T06:27:53Z</time>
      </trkpt>
      <trkpt lat="40.59421" lon="-4.15639">
        <ele>1123.44</ele>
        <time>2014-11-20T06:27:57Z</time>
      </trkpt>
      <trkpt lat="40.59416" lon="-4.15655">
        <ele>1124.88</ele>
        <time>2014-11-20T06:28:09Z</time>
      </trkpt>
      <trkpt lat="40.59411" lon="-4.15673">
        <ele>1126.32</ele>
        <time>2014-11-20T06:28:23Z</time>
      </trkpt>
      <trkpt lat="40.59411" lon="-4.15695">
        <ele>1127.28</ele>
        <time>2014-11-20T06:28:38Z</time>
      </trkpt>
      <trkpt lat="40.59412" lon="-4.15718">
        <ele>1128.73</ele>
        <time>2014-11-20T06:28:52Z</time>
      </trkpt>
      <trkpt lat="40.59416" lon="-4.15726">
        <ele>1129.69</ele>
        <time>2014-11-20T06:29:00Z</time>
      </trkpt>
      <trkpt lat="40.59421" lon="-4.15711">
        <ele>1130.17</ele>
        <time>2014-11-20T06:29:13Z</time>
      </trkpt>
      <trkpt lat="40.59427" lon="-4.15691">
        <ele>1130.65</ele>
        <time>2014-11-20T06:29:28Z</time>
      </trkpt>
      <trkpt lat="40.59444" lon="-4.15682">
        <ele>1131.61</ele>
        <time>2014-11-20T06:29:43Z</time>
      </trkpt>
      <trkpt lat="40.59457" lon="-4.15674">
        <ele>1132.09</ele>
        <time>2014-11-20T06:29:57Z</time>
      </trkpt>
      <trkpt lat="40.59473" lon="-4.15663">
        <ele>1133.05</ele>
        <time>2014-11-20T06:30:12Z</time>
      </trkpt>
      <trkpt lat="40.59482" lon="-4.15659">
        <ele>1134.01</ele>
        <time>2014-11-20T06:30:26Z</time>
      </trkpt>
      <trkpt lat="40.59483" lon="-4.15665">
        <ele>1134.49</ele>
        <time>2014-11-20T06:30:45Z</time>
      </trkpt>
      <trkpt lat="40.59484" lon="-4.15671">
        <ele>1136.42</ele>
        <time>2014-11-20T06:30:53Z</time>
      </trkpt>
      <trkpt lat="40.59488" lon="-4.15679">
        <ele>1139.3</ele>
        <time>2014-11-20T06:31:06Z</time>
      </trkpt>
      <trkpt lat="40.59493" lon="-4.15688">
        <ele>1140.74</ele>
        <time>2014-11-20T06:31:17Z</time>
      </trkpt>
      <trkpt lat="40.595" lon="-4.15699">
        <ele>1143.63</ele>
        <time>2014-11-20T06:31:30Z</time>
      </trkpt>
      <trkpt lat="40.59503" lon="-4.15701">
        <ele>1144.11</ele>
        <time>2014-11-20T06:31:34Z</time>
      </trkpt>
      <trkpt lat="40.59508" lon="-4.15708">
        <ele>1145.55</ele>
        <time>2014-11-20T06:31:41Z</time>
      </trkpt>
      <trkpt lat="40.59512" lon="-4.15711">
        <ele>1146.51</ele>
        <time>2014-11-20T06:31:46Z</time>
      </trkpt>
      <trkpt lat="40.5952" lon="-4.15718">
        <ele>1148.91</ele>
        <time>2014-11-20T06:31:57Z</time>
      </trkpt>
      <trkpt lat="40.59526" lon="-4.15721">
        <ele>1149.87</ele>
        <time>2014-11-20T06:32:05Z</time>
      </trkpt>
      <trkpt lat="40.59531" lon="-4.15726">
        <ele>1151.8</ele>
        <time>2014-11-20T06:32:17Z</time>
      </trkpt>
      <trkpt lat="40.59532" lon="-4.15737">
        <ele>1154.2</ele>
        <time>2014-11-20T06:32:29Z</time>
      </trkpt>
      <trkpt lat="40.59532" lon="-4.15738">
        <ele>1154.2</ele>
        <time>2014-11-20T06:32:30Z</time>
      </trkpt>
      <trkpt lat="40.59535" lon="-4.15751">
        <ele>1157.08</ele>
        <time>2014-11-20T06:32:44Z</time>
      </trkpt>
      <trkpt lat="40.59539" lon="-4.15759">
        <ele>1159.01</ele>
        <time>2014-11-20T06:32:56Z</time>
      </trkpt>
      <trkpt lat="40.5954" lon="-4.15762">
        <ele>1159.97</ele>
        <time>2014-11-20T06:33:00Z</time>
      </trkpt>
      <trkpt lat="40.59547" lon="-4.15774">
        <ele>1161.89</ele>
        <time>2014-11-20T06:33:13Z</time>
      </trkpt>
      <trkpt lat="40.59553" lon="-4.15783">
        <ele>1163.81</ele>
        <time>2014-11-20T06:33:25Z</time>
      </trkpt>
      <trkpt lat="40.59558" lon="-4.15796">
        <ele>1166.7</ele>
        <time>2014-11-20T06:33:41Z</time>
      </trkpt>
      <trkpt lat="40.59559" lon="-4.15806">
        <ele>1168.14</ele>
        <time>2014-11-20T06:33:52Z</time>
      </trkpt>
      <trkpt lat="40.59559" lon="-4.15808">
        <ele>1168.62</ele>
        <time>2014-11-20T06:33:54Z</time>
      </trkpt>
      <trkpt lat="40.59561" lon="-4.15811">
        <ele>1169.1</ele>
        <time>2014-11-20T06:33:57Z</time>
      </trkpt>
      <trkpt lat="40.59564" lon="-4.15822">
        <ele>1171.5</ele>
        <time>2014-11-20T06:34:09Z</time>
      </trkpt>
      <trkpt lat="40.59559" lon="-4.15832">
        <ele>1172.95</ele>
        <time>2014-11-20T06:34:21Z</time>
      </trkpt>
      <trkpt lat="40.59558" lon="-4.15843">
        <ele>1174.87</ele>
        <time>2014-11-20T06:34:32Z</time>
      </trkpt>
      <trkpt lat="40.59558" lon="-4.15852">
        <ele>1176.31</ele>
        <time>2014-11-20T06:34:45Z</time>
      </trkpt>
      <trkpt lat="40.59565" lon="-4.15859">
        <ele>1178.23</ele>
        <time>2014-11-20T06:34:58Z</time>
      </trkpt>
      <trkpt lat="40.59566" lon="-4.15863">
        <ele>1179.67</ele>
        <time>2014-11-20T06:35:09Z</time>
      </trkpt>
      <trkpt lat="40.59567" lon="-4.1587">
        <ele>1181.6</ele>
        <time>2014-11-20T06:35:22Z</time>
      </trkpt>
      <trkpt lat="40.59572" lon="-4.15876">
        <ele>1182.56</ele>
        <time>2014-11-20T06:35:29Z</time>
      </trkpt>
      <trkpt lat="40.59578" lon="-4.15884">
        <ele>1184.48</ele>
        <time>2014-11-20T06:35:41Z</time>
      </trkpt>
      <trkpt lat="40.59585" lon="-4.15884">
        <ele>1185.92</ele>
        <time>2014-11-20T06:35:52Z</time>
      </trkpt>
      <trkpt lat="40.59595" lon="-4.15883">
        <ele>1187.37</ele>
        <time>2014-11-20T06:36:05Z</time>
      </trkpt>
      <trkpt lat="40.596" lon="-4.15882">
        <ele>1187.85</ele>
        <time>2014-11-20T06:36:20Z</time>
      </trkpt>
      <trkpt lat="40.59602" lon="-4.15883">
        <ele>1189.29</ele>
        <time>2014-11-20T06:36:37Z</time>
      </trkpt>
      <trkpt lat="40.59599" lon="-4.15881">
        <ele>1186.88</ele>
        <time>2014-11-20T06:36:41Z</time>
      </trkpt>
      <trkpt lat="40.59599" lon="-4.15882">
        <ele>1186.4</ele>
        <time>2014-11-20T06:37:11Z</time>
      </trkpt>
      <trkpt lat="40.59601" lon="-4.15878">
        <ele>1187.85</ele>
        <time>2014-11-20T06:37:23Z</time>
      </trkpt>
      <trkpt lat="40.59601" lon="-4.15879">
        <ele>1186.88</ele>
        <time>2014-11-20T06:37:36Z</time>
      </trkpt>
      <trkpt lat="40.59603" lon="-4.15879">
        <ele>1187.85</ele>
        <time>2014-11-20T06:37:50Z</time>
      </trkpt>
      <trkpt lat="40.59604" lon="-4.15878">
        <ele>1187.85</ele>
        <time>2014-11-20T06:38:03Z</time>
      </trkpt>
      <trkpt lat="40.59608" lon="-4.15875">
        <ele>1188.33</ele>
        <time>2014-11-20T06:38:15Z</time>
      </trkpt>
      <trkpt lat="40.5961" lon="-4.1588">
        <ele>1187.85</ele>
        <time>2014-11-20T06:38:33Z</time>
      </trkpt>
      <trkpt lat="40.59615" lon="-4.15885">
        <ele>1188.81</ele>
        <time>2014-11-20T06:38:41Z</time>
      </trkpt>
      <trkpt lat="40.59617" lon="-4.15888">
        <ele>1189.29</ele>
        <time>2014-11-20T06:38:43Z</time>
      </trkpt>
      <trkpt lat="40.5963" lon="-4.15899">
        <ele>1190.25</ele>
        <time>2014-11-20T06:39:00Z</time>
      </trkpt>
      <trkpt lat="40.59634" lon="-4.15905">
        <ele>1190.25</ele>
        <time>2014-11-20T06:39:13Z</time>
      </trkpt>
      <trkpt lat="40.59637" lon="-4.15905">
        <ele>1190.73</ele>
        <time>2014-11-20T06:39:23Z</time>
      </trkpt>
      <trkpt lat="40.59656" lon="-4.15915">
        <ele>1190.25</ele>
        <time>2014-11-20T06:39:43Z</time>
      </trkpt>
      <trkpt lat="40.5967" lon="-4.15926">
        <ele>1188.81</ele>
        <time>2014-11-20T06:40:02Z</time>
      </trkpt>
      <trkpt lat="40.59691" lon="-4.15943">
        <ele>1186.4</ele>
        <time>2014-11-20T06:40:21Z</time>
      </trkpt>
      <trkpt lat="40.59709" lon="-4.15958">
        <ele>1184.48</ele>
        <time>2014-11-20T06:40:40Z</time>
      </trkpt>
      <trkpt lat="40.59717" lon="-4.15967">
        <ele>1184</ele>
        <time>2014-11-20T06:40:48Z</time>
      </trkpt>
      <trkpt lat="40.59728" lon="-4.15976">
        <ele>1183.52</ele>
        <time>2014-11-20T06:40:58Z</time>
      </trkpt>
      <trkpt lat="40.59748" lon="-4.15988">
        <ele>1181.12</ele>
        <time>2014-11-20T06:41:16Z</time>
      </trkpt>
      <trkpt lat="40.59767" lon="-4.15999">
        <ele>1179.19</ele>
        <time>2014-11-20T06:41:35Z</time>
      </trkpt>
      <trkpt lat="40.5979" lon="-4.16007">
        <ele>1176.31</ele>
        <time>2014-11-20T06:41:54Z</time>
      </trkpt>
      <trkpt lat="40.59795" lon="-4.16007">
        <ele>1175.35</ele>
        <time>2014-11-20T06:41:58Z</time>
      </trkpt>
      <trkpt lat="40.59813" lon="-4.16014">
        <ele>1173.43</ele>
        <time>2014-11-20T06:42:13Z</time>
      </trkpt>
      <trkpt lat="40.59832" lon="-4.16015">
        <ele>1171.98</ele>
        <time>2014-11-20T06:42:29Z</time>
      </trkpt>
      <trkpt lat="40.5984" lon="-4.16012">
        <ele>1171.5</ele>
        <time>2014-11-20T06:42:45Z</time>
      </trkpt>
      <trkpt lat="40.59845" lon="-4.16008">
        <ele>1171.02</ele>
        <time>2014-11-20T06:43:03Z</time>
      </trkpt>
      <trkpt lat="40.5985" lon="-4.15995">
        <ele>1171.98</ele>
        <time>2014-11-20T06:43:18Z</time>
      </trkpt>
      <trkpt lat="40.59849" lon="-4.15988">
        <ele>1171.02</ele>
        <time>2014-11-20T06:43:26Z</time>
      </trkpt>
      <trkpt lat="40.59848" lon="-4.15969">
        <ele>1171.98</ele>
        <time>2014-11-20T06:43:40Z</time>
      </trkpt>
      <trkpt lat="40.59853" lon="-4.15972">
        <ele>1174.39</ele>
        <time>2014-11-20T06:43:53Z</time>
      </trkpt>
      <trkpt lat="40.59855" lon="-4.15974">
        <ele>1174.39</ele>
        <time>2014-11-20T06:43:56Z</time>
      </trkpt>
      <trkpt lat="40.59858" lon="-4.15975">
        <ele>1175.83</ele>
        <time>2014-11-20T06:43:59Z</time>
      </trkpt>
      <trkpt lat="40.59868" lon="-4.1598">
        <ele>1178.23</ele>
        <time>2014-11-20T06:44:11Z</time>
      </trkpt>
      <trkpt lat="40.59879" lon="-4.15989">
        <ele>1180.16</ele>
        <time>2014-11-20T06:44:23Z</time>
      </trkpt>
      <trkpt lat="40.59883" lon="-4.15991">
        <ele>1181.12</ele>
        <time>2014-11-20T06:44:27Z</time>
      </trkpt>
      <trkpt lat="40.59884" lon="-4.15992">
        <ele>1181.12</ele>
        <time>2014-11-20T06:44:29Z</time>
      </trkpt>
      <trkpt lat="40.59886" lon="-4.15994">
        <ele>1181.6</ele>
        <time>2014-11-20T06:44:31Z</time>
      </trkpt>
      <trkpt lat="40.59893" lon="-4.16002">
        <ele>1183.52</ele>
        <time>2014-11-20T06:44:41Z</time>
      </trkpt>
      <trkpt lat="40.59897" lon="-4.16005">
        <ele>1184.48</ele>
        <time>2014-11-20T06:44:45Z</time>
      </trkpt>
      <trkpt lat="40.59898" lon="-4.16006">
        <ele>1184.48</ele>
        <time>2014-11-20T06:44:46Z</time>
      </trkpt>
      <trkpt lat="40.59901" lon="-4.16008">
        <ele>1184.96</ele>
        <time>2014-11-20T06:44:49Z</time>
      </trkpt>
      <trkpt lat="40.59903" lon="-4.1601">
        <ele>1184.96</ele>
        <time>2014-11-20T06:44:51Z</time>
      </trkpt>
      <trkpt lat="40.59908" lon="-4.16016">
        <ele>1185.92</ele>
        <time>2014-11-20T06:44:59Z</time>
      </trkpt>
      <trkpt lat="40.5991" lon="-4.16017">
        <ele>1185.92</ele>
        <time>2014-11-20T06:45:00Z</time>
      </trkpt>
      <trkpt lat="40.59911" lon="-4.16019">
        <ele>1185.92</ele>
        <time>2014-11-20T06:45:02Z</time>
      </trkpt>
      <trkpt lat="40.59914" lon="-4.1602">
        <ele>1186.4</ele>
        <time>2014-11-20T06:45:04Z</time>
      </trkpt>
      <trkpt lat="40.59925" lon="-4.1603">
        <ele>1188.81</ele>
        <time>2014-11-20T06:45:18Z</time>
      </trkpt>
      <trkpt lat="40.59936" lon="-4.16035">
        <ele>1191.21</ele>
        <time>2014-11-20T06:45:30Z</time>
      </trkpt>
      <trkpt lat="40.5994" lon="-4.16037">
        <ele>1191.21</ele>
        <time>2014-11-20T06:45:34Z</time>
      </trkpt>
      <trkpt lat="40.59951" lon="-4.16039">
        <ele>1194.09</ele>
        <time>2014-11-20T06:45:46Z</time>
      </trkpt>
      <trkpt lat="40.59956" lon="-4.16031">
        <ele>1196.5</ele>
        <time>2014-11-20T06:45:57Z</time>
      </trkpt>
      <trkpt lat="40.59964" lon="-4.16043">
        <ele>1196.98</ele>
        <time>2014-11-20T06:47:50Z</time>
      </trkpt>
      <trkpt lat="40.5997" lon="-4.16062">
        <ele>1194.58</ele>
        <time>2014-11-20T06:48:04Z</time>
      </trkpt>
      <trkpt lat="40.59974" lon="-4.16065">
        <ele>1197.94</ele>
        <time>2014-11-20T06:48:10Z</time>
      </trkpt>
      <trkpt lat="40.59974" lon="-4.16066">
        <ele>1197.94</ele>
        <time>2014-11-20T06:48:11Z</time>
      </trkpt>
      <trkpt lat="40.5998" lon="-4.16072">
        <ele>1198.9</ele>
        <time>2014-11-20T06:48:23Z</time>
      </trkpt>
      <trkpt lat="40.59986" lon="-4.16077">
        <ele>1200.34</ele>
        <time>2014-11-20T06:48:30Z</time>
      </trkpt>
      <trkpt lat="40.5999" lon="-4.16079">
        <ele>1202.27</ele>
        <time>2014-11-20T06:48:34Z</time>
      </trkpt>
      <trkpt lat="40.59998" lon="-4.16085">
        <ele>1203.23</ele>
        <time>2014-11-20T06:48:44Z</time>
      </trkpt>
      <trkpt lat="40.59999" lon="-4.16087">
        <ele>1204.19</ele>
        <time>2014-11-20T06:48:46Z</time>
      </trkpt>
      <trkpt lat="40.60001" lon="-4.16088">
        <ele>1204.19</ele>
        <time>2014-11-20T06:48:48Z</time>
      </trkpt>
      <trkpt lat="40.60002" lon="-4.16089">
        <ele>1204.67</ele>
        <time>2014-11-20T06:48:50Z</time>
      </trkpt>
      <trkpt lat="40.60009" lon="-4.16091">
        <ele>1206.11</ele>
        <time>2014-11-20T06:48:58Z</time>
      </trkpt>
      <trkpt lat="40.60018" lon="-4.16095">
        <ele>1208.03</ele>
        <time>2014-11-20T06:49:09Z</time>
      </trkpt>
      <trkpt lat="40.60019" lon="-4.16095">
        <ele>1208.51</ele>
        <time>2014-11-20T06:49:11Z</time>
      </trkpt>
      <trkpt lat="40.60022" lon="-4.16094">
        <ele>1209</ele>
        <time>2014-11-20T06:49:13Z</time>
      </trkpt>
      <trkpt lat="40.60031" lon="-4.16097">
        <ele>1211.4</ele>
        <time>2014-11-20T06:49:24Z</time>
      </trkpt>
      <trkpt lat="40.60039" lon="-4.16096">
        <ele>1213.32</ele>
        <time>2014-11-20T06:49:33Z</time>
      </trkpt>
      <trkpt lat="40.60041" lon="-4.16096">
        <ele>1213.8</ele>
        <time>2014-11-20T06:49:36Z</time>
      </trkpt>
      <trkpt lat="40.60051" lon="-4.16098">
        <ele>1216.69</ele>
        <time>2014-11-20T06:49:49Z</time>
      </trkpt>
      <trkpt lat="40.60052" lon="-4.16098">
        <ele>1216.69</ele>
        <time>2014-11-20T06:49:50Z</time>
      </trkpt>
      <trkpt lat="40.60061" lon="-4.16091">
        <ele>1219.57</ele>
        <time>2014-11-20T06:50:03Z</time>
      </trkpt>
      <trkpt lat="40.60064" lon="-4.16083">
        <ele>1221.97</ele>
        <time>2014-11-20T06:50:12Z</time>
      </trkpt>
      <trkpt lat="40.60067" lon="-4.16071">
        <ele>1224.38</ele>
        <time>2014-11-20T06:50:25Z</time>
      </trkpt>
      <trkpt lat="40.60071" lon="-4.16064">
        <ele>1225.34</ele>
        <time>2014-11-20T06:50:39Z</time>
      </trkpt>
      <trkpt lat="40.60083" lon="-4.16061">
        <ele>1226.3</ele>
        <time>2014-11-20T06:51:04Z</time>
      </trkpt>
      <trkpt lat="40.60081" lon="-4.16058">
        <ele>1228.7</ele>
        <time>2014-11-20T06:51:16Z</time>
      </trkpt>
      <trkpt lat="40.60081" lon="-4.16059">
        <ele>1229.18</ele>
        <time>2014-11-20T06:51:20Z</time>
      </trkpt>
      <trkpt lat="40.60086" lon="-4.16054">
        <ele>1231.59</ele>
        <time>2014-11-20T06:51:32Z</time>
      </trkpt>
      <trkpt lat="40.60089" lon="-4.16047">
        <ele>1234.47</ele>
        <time>2014-11-20T06:51:43Z</time>
      </trkpt>
      <trkpt lat="40.60094" lon="-4.16043">
        <ele>1237.35</ele>
        <time>2014-11-20T06:51:56Z</time>
      </trkpt>
      <trkpt lat="40.60098" lon="-4.16034">
        <ele>1239.76</ele>
        <time>2014-11-20T06:52:08Z</time>
      </trkpt>
      <trkpt lat="40.601" lon="-4.16031">
        <ele>1241.2</ele>
        <time>2014-11-20T06:52:19Z</time>
      </trkpt>
      <trkpt lat="40.60093" lon="-4.16024">
        <ele>1241.2</ele>
        <time>2014-11-20T06:52:43Z</time>
      </trkpt>
      <trkpt lat="40.60102" lon="-4.16019">
        <ele>1244.56</ele>
        <time>2014-11-20T06:52:55Z</time>
      </trkpt>
      <trkpt lat="40.60109" lon="-4.16015">
        <ele>1246.97</ele>
        <time>2014-11-20T06:53:06Z</time>
      </trkpt>
      <trkpt lat="40.60114" lon="-4.16013">
        <ele>1249.37</ele>
        <time>2014-11-20T06:53:16Z</time>
      </trkpt>
      <trkpt lat="40.60114" lon="-4.16013">
        <ele>1249.85</ele>
        <time>2014-11-20T06:53:19Z</time>
      </trkpt>
      <trkpt lat="40.60121" lon="-4.16009">
        <ele>1252.74</ele>
        <time>2014-11-20T06:53:33Z</time>
      </trkpt>
      <trkpt lat="40.60122" lon="-4.16001">
        <ele>1255.62</ele>
        <time>2014-11-20T06:53:45Z</time>
      </trkpt>
      <trkpt lat="40.60127" lon="-4.15999">
        <ele>1258.98</ele>
        <time>2014-11-20T06:53:59Z</time>
      </trkpt>
      <trkpt lat="40.60129" lon="-4.15993">
        <ele>1260.91</ele>
        <time>2014-11-20T06:54:09Z</time>
      </trkpt>
      <trkpt lat="40.60132" lon="-4.15985">
        <ele>1264.27</ele>
        <time>2014-11-20T06:54:21Z</time>
      </trkpt>
      <trkpt lat="40.60133" lon="-4.15986">
        <ele>1264.75</ele>
        <time>2014-11-20T06:54:24Z</time>
      </trkpt>
      <trkpt lat="40.60142" lon="-4.1598">
        <ele>1268.12</ele>
        <time>2014-11-20T06:54:37Z</time>
      </trkpt>
      <trkpt lat="40.60144" lon="-4.15975">
        <ele>1271.96</ele>
        <time>2014-11-20T06:54:49Z</time>
      </trkpt>
      <trkpt lat="40.60147" lon="-4.15972">
        <ele>1272.44</ele>
        <time>2014-11-20T06:54:59Z</time>
      </trkpt>
      <trkpt lat="40.60148" lon="-4.15968">
        <ele>1275.33</ele>
        <time>2014-11-20T06:55:10Z</time>
      </trkpt>
      <trkpt lat="40.60153" lon="-4.15969">
        <ele>1278.21</ele>
        <time>2014-11-20T06:55:23Z</time>
      </trkpt>
      <trkpt lat="40.60155" lon="-4.15969">
        <ele>1278.69</ele>
        <time>2014-11-20T06:55:28Z</time>
      </trkpt>
      <trkpt lat="40.60152" lon="-4.1596">
        <ele>1280.13</ele>
        <time>2014-11-20T06:55:34Z</time>
      </trkpt>
      <trkpt lat="40.60152" lon="-4.15955">
        <ele>1281.57</ele>
        <time>2014-11-20T06:55:42Z</time>
      </trkpt>
      <trkpt lat="40.60157" lon="-4.15959">
        <ele>1283.02</ele>
        <time>2014-11-20T06:55:49Z</time>
      </trkpt>
      <trkpt lat="40.60169" lon="-4.15963">
        <ele>1284.94</ele>
        <time>2014-11-20T06:56:02Z</time>
      </trkpt>
      <trkpt lat="40.60177" lon="-4.15966">
        <ele>1286.86</ele>
        <time>2014-11-20T06:56:12Z</time>
      </trkpt>
      <trkpt lat="40.60182" lon="-4.15968">
        <ele>1287.82</ele>
        <time>2014-11-20T06:56:18Z</time>
      </trkpt>
      <trkpt lat="40.60188" lon="-4.15969">
        <ele>1289.27</ele>
        <time>2014-11-20T06:56:25Z</time>
      </trkpt>
      <trkpt lat="40.602" lon="-4.1597">
        <ele>1291.19</ele>
        <time>2014-11-20T06:56:38Z</time>
      </trkpt>
      <trkpt lat="40.60209" lon="-4.15971">
        <ele>1293.11</ele>
        <time>2014-11-20T06:56:49Z</time>
      </trkpt>
      <trkpt lat="40.60224" lon="-4.1597">
        <ele>1295.51</ele>
        <time>2014-11-20T06:57:02Z</time>
      </trkpt>
      <trkpt lat="40.60235" lon="-4.15972">
        <ele>1297.44</ele>
        <time>2014-11-20T06:57:13Z</time>
      </trkpt>
      <trkpt lat="40.60236" lon="-4.15971">
        <ele>1297.92</ele>
        <time>2014-11-20T06:57:15Z</time>
      </trkpt>
      <trkpt lat="40.60243" lon="-4.15973">
        <ele>1299.84</ele>
        <time>2014-11-20T06:57:27Z</time>
      </trkpt>
      <trkpt lat="40.60249" lon="-4.15974">
        <ele>1301.76</ele>
        <time>2014-11-20T06:57:38Z</time>
      </trkpt>
      <trkpt lat="40.6025" lon="-4.15974">
        <ele>1301.76</ele>
        <time>2014-11-20T06:57:39Z</time>
      </trkpt>
      <trkpt lat="40.60256" lon="-4.15976">
        <ele>1303.69</ele>
        <time>2014-11-20T06:57:50Z</time>
      </trkpt>
      <trkpt lat="40.60267" lon="-4.1598">
        <ele>1305.61</ele>
        <time>2014-11-20T06:58:03Z</time>
      </trkpt>
      <trkpt lat="40.60277" lon="-4.15981">
        <ele>1307.53</ele>
        <time>2014-11-20T06:58:13Z</time>
      </trkpt>
      <trkpt lat="40.6028" lon="-4.15982">
        <ele>1308.49</ele>
        <time>2014-11-20T06:58:17Z</time>
      </trkpt>
      <trkpt lat="40.60287" lon="-4.1598">
        <ele>1309.93</ele>
        <time>2014-11-20T06:58:22Z</time>
      </trkpt>
      <trkpt lat="40.60291" lon="-4.15981">
        <ele>1310.41</ele>
        <time>2014-11-20T06:58:24Z</time>
      </trkpt>
      <trkpt lat="40.60297" lon="-4.15985">
        <ele>1311.38</ele>
        <time>2014-11-20T06:58:34Z</time>
      </trkpt>
      <trkpt lat="40.60301" lon="-4.15985">
        <ele>1311.38</ele>
        <time>2014-11-20T06:58:48Z</time>
      </trkpt>
      <trkpt lat="40.60305" lon="-4.15984">
        <ele>1312.82</ele>
        <time>2014-11-20T06:58:58Z</time>
      </trkpt>
      <trkpt lat="40.60308" lon="-4.15985">
        <ele>1313.3</ele>
        <time>2014-11-20T06:59:02Z</time>
      </trkpt>
      <trkpt lat="40.60315" lon="-4.15989">
        <ele>1314.74</ele>
        <time>2014-11-20T06:59:15Z</time>
      </trkpt>
      <trkpt lat="40.60317" lon="-4.15989">
        <ele>1315.22</ele>
        <time>2014-11-20T06:59:18Z</time>
      </trkpt>
      <trkpt lat="40.60327" lon="-4.15991">
        <ele>1317.14</ele>
        <time>2014-11-20T06:59:28Z</time>
      </trkpt>
      <trkpt lat="40.60329" lon="-4.15992">
        <ele>1317.62</ele>
        <time>2014-11-20T06:59:30Z</time>
      </trkpt>
      <trkpt lat="40.60337" lon="-4.15993">
        <ele>1319.07</ele>
        <time>2014-11-20T06:59:39Z</time>
      </trkpt>
      <trkpt lat="40.60349" lon="-4.15996">
        <ele>1321.47</ele>
        <time>2014-11-20T06:59:50Z</time>
      </trkpt>
      <trkpt lat="40.60357" lon="-4.15999">
        <ele>1322.91</ele>
        <time>2014-11-20T07:00:00Z</time>
      </trkpt>
      <trkpt lat="40.60367" lon="-4.16003">
        <ele>1325.31</ele>
        <time>2014-11-20T07:00:12Z</time>
      </trkpt>
      <trkpt lat="40.6037" lon="-4.16003">
        <ele>1325.8</ele>
        <time>2014-11-20T07:00:15Z</time>
      </trkpt>
      <trkpt lat="40.60376" lon="-4.16005">
        <ele>1327.72</ele>
        <time>2014-11-20T07:00:25Z</time>
      </trkpt>
      <trkpt lat="40.60385" lon="-4.16007">
        <ele>1329.64</ele>
        <time>2014-11-20T07:00:35Z</time>
      </trkpt>
      <trkpt lat="40.60387" lon="-4.16008">
        <ele>1330.12</ele>
        <time>2014-11-20T07:00:38Z</time>
      </trkpt>
      <trkpt lat="40.60393" lon="-4.1601">
        <ele>1331.08</ele>
        <time>2014-11-20T07:00:43Z</time>
      </trkpt>
      <trkpt lat="40.60402" lon="-4.1601">
        <ele>1332.04</ele>
        <time>2014-11-20T07:00:56Z</time>
      </trkpt>
      <trkpt lat="40.60411" lon="-4.1601">
        <ele>1333.97</ele>
        <time>2014-11-20T07:01:11Z</time>
      </trkpt>
      <trkpt lat="40.60416" lon="-4.16011">
        <ele>1335.89</ele>
        <time>2014-11-20T07:01:22Z</time>
      </trkpt>
      <trkpt lat="40.60422" lon="-4.16012">
        <ele>1337.33</ele>
        <time>2014-11-20T07:01:30Z</time>
      </trkpt>
      <trkpt lat="40.60432" lon="-4.16016">
        <ele>1338.77</ele>
        <time>2014-11-20T07:01:41Z</time>
      </trkpt>
      <trkpt lat="40.60443" lon="-4.1602">
        <ele>1340.7</ele>
        <time>2014-11-20T07:01:52Z</time>
      </trkpt>
      <trkpt lat="40.60443" lon="-4.1602">
        <ele>1340.7</ele>
        <time>2014-11-20T07:01:53Z</time>
      </trkpt>
      <trkpt lat="40.60447" lon="-4.16017">
        <ele>1341.66</ele>
        <time>2014-11-20T07:01:56Z</time>
      </trkpt>
      <trkpt lat="40.6044" lon="-4.16001">
        <ele>1343.58</ele>
        <time>2014-11-20T07:02:10Z</time>
      </trkpt>
      <trkpt lat="40.60434" lon="-4.15987">
        <ele>1345.5</ele>
        <time>2014-11-20T07:02:25Z</time>
      </trkpt>
      <trkpt lat="40.60432" lon="-4.15985">
        <ele>1345.5</ele>
        <time>2014-11-20T07:02:29Z</time>
      </trkpt>
      <trkpt lat="40.60428" lon="-4.15975">
        <ele>1347.43</ele>
        <time>2014-11-20T07:02:42Z</time>
      </trkpt>
      <trkpt lat="40.60423" lon="-4.15965">
        <ele>1350.79</ele>
        <time>2014-11-20T07:02:54Z</time>
      </trkpt>
      <trkpt lat="40.60418" lon="-4.15958">
        <ele>1350.31</ele>
        <time>2014-11-20T07:03:05Z</time>
      </trkpt>
      <trkpt lat="40.60412" lon="-4.15947">
        <ele>1352.23</ele>
        <time>2014-11-20T07:03:17Z</time>
      </trkpt>
      <trkpt lat="40.60403" lon="-4.15938">
        <ele>1353.67</ele>
        <time>2014-11-20T07:03:32Z</time>
      </trkpt>
      <trkpt lat="40.60411" lon="-4.15941">
        <ele>1356.08</ele>
        <time>2014-11-20T07:03:42Z</time>
      </trkpt>
      <trkpt lat="40.60419" lon="-4.15943">
        <ele>1357.04</ele>
        <time>2014-11-20T07:03:52Z</time>
      </trkpt>
      <trkpt lat="40.6043" lon="-4.15945">
        <ele>1358.96</ele>
        <time>2014-11-20T07:04:06Z</time>
      </trkpt>
      <trkpt lat="40.60435" lon="-4.15944">
        <ele>1359.92</ele>
        <time>2014-11-20T07:04:13Z</time>
      </trkpt>
      <trkpt lat="40.60445" lon="-4.15942">
        <ele>1360.4</ele>
        <time>2014-11-20T07:04:29Z</time>
      </trkpt>
      <trkpt lat="40.60444" lon="-4.15945">
        <ele>1360.4</ele>
        <time>2014-11-20T07:05:08Z</time>
      </trkpt>
      <trkpt lat="40.60443" lon="-4.15942">
        <ele>1360.88</ele>
        <time>2014-11-20T07:05:24Z</time>
      </trkpt>
      <trkpt lat="40.60454" lon="-4.15945">
        <ele>1364.25</ele>
        <time>2014-11-20T07:05:39Z</time>
      </trkpt>
      <trkpt lat="40.60464" lon="-4.15948">
        <ele>1365.69</ele>
        <time>2014-11-20T07:05:49Z</time>
      </trkpt>
      <trkpt lat="40.60474" lon="-4.15952">
        <ele>1367.61</ele>
        <time>2014-11-20T07:06:01Z</time>
      </trkpt>
      <trkpt lat="40.60484" lon="-4.15955">
        <ele>1369.54</ele>
        <time>2014-11-20T07:06:12Z</time>
      </trkpt>
      <trkpt lat="40.60486" lon="-4.15957">
        <ele>1370.5</ele>
        <time>2014-11-20T07:06:15Z</time>
      </trkpt>
      <trkpt lat="40.60491" lon="-4.15957">
        <ele>1371.94</ele>
        <time>2014-11-20T07:06:24Z</time>
      </trkpt>
      <trkpt lat="40.60496" lon="-4.15957">
        <ele>1372.42</ele>
        <time>2014-11-20T07:06:29Z</time>
      </trkpt>
      <trkpt lat="40.60506" lon="-4.15957">
        <ele>1374.82</ele>
        <time>2014-11-20T07:06:42Z</time>
      </trkpt>
      <trkpt lat="40.60509" lon="-4.15957">
        <ele>1375.78</ele>
        <time>2014-11-20T07:06:46Z</time>
      </trkpt>
      <trkpt lat="40.60514" lon="-4.15954">
        <ele>1376.75</ele>
        <time>2014-11-20T07:06:51Z</time>
      </trkpt>
      <trkpt lat="40.60512" lon="-4.15944">
        <ele>1378.67</ele>
        <time>2014-11-20T07:07:00Z</time>
      </trkpt>
      <trkpt lat="40.60511" lon="-4.15938">
        <ele>1378.67</ele>
        <time>2014-11-20T07:07:04Z</time>
      </trkpt>
      <trkpt lat="40.60505" lon="-4.15924">
        <ele>1381.07</ele>
        <time>2014-11-20T07:07:18Z</time>
      </trkpt>
      <trkpt lat="40.60497" lon="-4.1591">
        <ele>1383.96</ele>
        <time>2014-11-20T07:07:35Z</time>
      </trkpt>
      <trkpt lat="40.60486" lon="-4.15898">
        <ele>1385.88</ele>
        <time>2014-11-20T07:07:51Z</time>
      </trkpt>
      <trkpt lat="40.60477" lon="-4.15889">
        <ele>1387.8</ele>
        <time>2014-11-20T07:08:03Z</time>
      </trkpt>
      <trkpt lat="40.6047" lon="-4.15877">
        <ele>1390.2</ele>
        <time>2014-11-20T07:08:15Z</time>
      </trkpt>
      <trkpt lat="40.60461" lon="-4.15867">
        <ele>1391.65</ele>
        <time>2014-11-20T07:08:26Z</time>
      </trkpt>
      <trkpt lat="40.60462" lon="-4.15863">
        <ele>1392.61</ele>
        <time>2014-11-20T07:08:30Z</time>
      </trkpt>
      <trkpt lat="40.60467" lon="-4.15862">
        <ele>1393.57</ele>
        <time>2014-11-20T07:08:34Z</time>
      </trkpt>
      <trkpt lat="40.60472" lon="-4.15863">
        <ele>1395.01</ele>
        <time>2014-11-20T07:08:41Z</time>
      </trkpt>
      <trkpt lat="40.60476" lon="-4.15866">
        <ele>1396.45</ele>
        <time>2014-11-20T07:08:51Z</time>
      </trkpt>
      <trkpt lat="40.60484" lon="-4.15866">
        <ele>1398.37</ele>
        <time>2014-11-20T07:09:01Z</time>
      </trkpt>
      <trkpt lat="40.6049" lon="-4.15868">
        <ele>1400.3</ele>
        <time>2014-11-20T07:09:11Z</time>
      </trkpt>
      <trkpt lat="40.60494" lon="-4.15869">
        <ele>1401.74</ele>
        <time>2014-11-20T07:09:17Z</time>
      </trkpt>
      <trkpt lat="40.60505" lon="-4.15869">
        <ele>1403.66</ele>
        <time>2014-11-20T07:09:29Z</time>
      </trkpt>
      <trkpt lat="40.6051" lon="-4.1587">
        <ele>1405.58</ele>
        <time>2014-11-20T07:09:39Z</time>
      </trkpt>
      <trkpt lat="40.60519" lon="-4.15873">
        <ele>1407.03</ele>
        <time>2014-11-20T07:09:49Z</time>
      </trkpt>
      <trkpt lat="40.60529" lon="-4.15878">
        <ele>1408.95</ele>
        <time>2014-11-20T07:10:01Z</time>
      </trkpt>
      <trkpt lat="40.60537" lon="-4.1588">
        <ele>1410.87</ele>
        <time>2014-11-20T07:10:12Z</time>
      </trkpt>
      <trkpt lat="40.60541" lon="-4.15883">
        <ele>1412.79</ele>
        <time>2014-11-20T07:10:24Z</time>
      </trkpt>
      <trkpt lat="40.60547" lon="-4.15888">
        <ele>1412.79</ele>
        <time>2014-11-20T07:10:38Z</time>
      </trkpt>
      <trkpt lat="40.60555" lon="-4.15889">
        <ele>1414.24</ele>
        <time>2014-11-20T07:10:47Z</time>
      </trkpt>
      <trkpt lat="40.60565" lon="-4.15888">
        <ele>1418.08</ele>
        <time>2014-11-20T07:10:58Z</time>
      </trkpt>
      <trkpt lat="40.60574" lon="-4.15893">
        <ele>1418.56</ele>
        <time>2014-11-20T07:11:12Z</time>
      </trkpt>
      <trkpt lat="40.60577" lon="-4.15894">
        <ele>1419.04</ele>
        <time>2014-11-20T07:11:14Z</time>
      </trkpt>
      <trkpt lat="40.60584" lon="-4.15903">
        <ele>1420.49</ele>
        <time>2014-11-20T07:11:25Z</time>
      </trkpt>
      <trkpt lat="40.60589" lon="-4.1591">
        <ele>1422.89</ele>
        <time>2014-11-20T07:11:35Z</time>
      </trkpt>
      <trkpt lat="40.60591" lon="-4.15911">
        <ele>1423.37</ele>
        <time>2014-11-20T07:11:37Z</time>
      </trkpt>
      <trkpt lat="40.60594" lon="-4.15911">
        <ele>1423.85</ele>
        <time>2014-11-20T07:11:40Z</time>
      </trkpt>
      <trkpt lat="40.60594" lon="-4.15893">
        <ele>1425.77</ele>
        <time>2014-11-20T07:11:48Z</time>
      </trkpt>
      <trkpt lat="40.60595" lon="-4.15871">
        <ele>1427.7</ele>
        <time>2014-11-20T07:11:59Z</time>
      </trkpt>
      <trkpt lat="40.60588" lon="-4.15855">
        <ele>1430.1</ele>
        <time>2014-11-20T07:12:13Z</time>
      </trkpt>
      <trkpt lat="40.60582" lon="-4.15841">
        <ele>1432.5</ele>
        <time>2014-11-20T07:12:26Z</time>
      </trkpt>
      <trkpt lat="40.60584" lon="-4.15839">
        <ele>1433.94</ele>
        <time>2014-11-20T07:12:32Z</time>
      </trkpt>
      <trkpt lat="40.60592" lon="-4.15842">
        <ele>1435.87</ele>
        <time>2014-11-20T07:12:44Z</time>
      </trkpt>
      <trkpt lat="40.606" lon="-4.15842">
        <ele>1437.79</ele>
        <time>2014-11-20T07:12:53Z</time>
      </trkpt>
      <trkpt lat="40.60614" lon="-4.15849">
        <ele>1440.19</ele>
        <time>2014-11-20T07:13:07Z</time>
      </trkpt>
      <trkpt lat="40.60621" lon="-4.15855">
        <ele>1442.11</ele>
        <time>2014-11-20T07:13:18Z</time>
      </trkpt>
      <trkpt lat="40.60629" lon="-4.15861">
        <ele>1444.04</ele>
        <time>2014-11-20T07:13:29Z</time>
      </trkpt>
      <trkpt lat="40.60635" lon="-4.15865">
        <ele>1445.48</ele>
        <time>2014-11-20T07:13:37Z</time>
      </trkpt>
      <trkpt lat="40.60643" lon="-4.15869">
        <ele>1447.4</ele>
        <time>2014-11-20T07:13:48Z</time>
      </trkpt>
      <trkpt lat="40.60652" lon="-4.15873">
        <ele>1448.84</ele>
        <time>2014-11-20T07:13:54Z</time>
      </trkpt>
      <trkpt lat="40.60664" lon="-4.15876">
        <ele>1450.77</ele>
        <time>2014-11-20T07:14:03Z</time>
      </trkpt>
      <trkpt lat="40.60653" lon="-4.15854">
        <ele>1452.69</ele>
        <time>2014-11-20T07:14:15Z</time>
      </trkpt>
      <trkpt lat="40.60649" lon="-4.15834">
        <ele>1455.09</ele>
        <time>2014-11-20T07:14:29Z</time>
      </trkpt>
      <trkpt lat="40.60646" lon="-4.15822">
        <ele>1456.53</ele>
        <time>2014-11-20T07:14:41Z</time>
      </trkpt>
      <trkpt lat="40.60636" lon="-4.1581">
        <ele>1458.94</ele>
        <time>2014-11-20T07:14:53Z</time>
      </trkpt>
      <trkpt lat="40.60629" lon="-4.15795">
        <ele>1461.34</ele>
        <time>2014-11-20T07:15:08Z</time>
      </trkpt>
      <trkpt lat="40.60629" lon="-4.15793">
        <ele>1462.3</ele>
        <time>2014-11-20T07:15:23Z</time>
      </trkpt>
      <trkpt lat="40.60636" lon="-4.15792">
        <ele>1463.26</ele>
        <time>2014-11-20T07:15:42Z</time>
      </trkpt>
      <trkpt lat="40.60642" lon="-4.15797">
        <ele>1465.67</ele>
        <time>2014-11-20T07:15:53Z</time>
      </trkpt>
      <trkpt lat="40.60652" lon="-4.15807">
        <ele>1467.11</ele>
        <time>2014-11-20T07:16:06Z</time>
      </trkpt>
      <trkpt lat="40.60663" lon="-4.15809">
        <ele>1469.03</ele>
        <time>2014-11-20T07:16:16Z</time>
      </trkpt>
      <trkpt lat="40.60673" lon="-4.15815">
        <ele>1470.95</ele>
        <time>2014-11-20T07:16:27Z</time>
      </trkpt>
      <trkpt lat="40.60681" lon="-4.15821">
        <ele>1472.88</ele>
        <time>2014-11-20T07:16:39Z</time>
      </trkpt>
      <trkpt lat="40.60689" lon="-4.15828">
        <ele>1475.28</ele>
        <time>2014-11-20T07:16:51Z</time>
      </trkpt>
      <trkpt lat="40.60691" lon="-4.15828">
        <ele>1475.76</ele>
        <time>2014-11-20T07:16:53Z</time>
      </trkpt>
      <trkpt lat="40.60694" lon="-4.1583">
        <ele>1476.24</ele>
        <time>2014-11-20T07:16:57Z</time>
      </trkpt>
      <trkpt lat="40.60701" lon="-4.15836">
        <ele>1478.16</ele>
        <time>2014-11-20T07:17:08Z</time>
      </trkpt>
      <trkpt lat="40.60708" lon="-4.15842">
        <ele>1479.61</ele>
        <time>2014-11-20T07:17:17Z</time>
      </trkpt>
      <trkpt lat="40.60717" lon="-4.15849">
        <ele>1482.01</ele>
        <time>2014-11-20T07:17:29Z</time>
      </trkpt>
      <trkpt lat="40.60721" lon="-4.15858">
        <ele>1483.45</ele>
        <time>2014-11-20T07:17:39Z</time>
      </trkpt>
      <trkpt lat="40.60721" lon="-4.15861">
        <ele>1484.41</ele>
        <time>2014-11-20T07:17:43Z</time>
      </trkpt>
      <trkpt lat="40.60729" lon="-4.1587">
        <ele>1486.34</ele>
        <time>2014-11-20T07:17:56Z</time>
      </trkpt>
      <trkpt lat="40.60735" lon="-4.15882">
        <ele>1488.74</ele>
        <time>2014-11-20T07:18:10Z</time>
      </trkpt>
      <trkpt lat="40.60735" lon="-4.15883">
        <ele>1489.22</ele>
        <time>2014-11-20T07:18:11Z</time>
      </trkpt>
      <trkpt lat="40.60737" lon="-4.15889">
        <ele>1489.7</ele>
        <time>2014-11-20T07:18:16Z</time>
      </trkpt>
      <trkpt lat="40.60741" lon="-4.15895">
        <ele>1490.18</ele>
        <time>2014-11-20T07:18:32Z</time>
      </trkpt>
      <trkpt lat="40.60745" lon="-4.15907">
        <ele>1492.1</ele>
        <time>2014-11-20T07:18:42Z</time>
      </trkpt>
      <trkpt lat="40.60751" lon="-4.15921">
        <ele>1494.99</ele>
        <time>2014-11-20T07:18:56Z</time>
      </trkpt>
      <trkpt lat="40.60753" lon="-4.15926">
        <ele>1498.35</ele>
        <time>2014-11-20T07:19:02Z</time>
      </trkpt>
      <trkpt lat="40.60754" lon="-4.15927">
        <ele>1497.39</ele>
        <time>2014-11-20T07:19:03Z</time>
      </trkpt>
      <trkpt lat="40.60755" lon="-4.15939">
        <ele>1498.35</ele>
        <time>2014-11-20T07:19:13Z</time>
      </trkpt>
      <trkpt lat="40.60761" lon="-4.15954">
        <ele>1500.76</ele>
        <time>2014-11-20T07:19:26Z</time>
      </trkpt>
      <trkpt lat="40.60761" lon="-4.15955">
        <ele>1500.76</ele>
        <time>2014-11-20T07:19:27Z</time>
      </trkpt>
      <trkpt lat="40.60767" lon="-4.15967">
        <ele>1503.16</ele>
        <time>2014-11-20T07:19:40Z</time>
      </trkpt>
      <trkpt lat="40.60768" lon="-4.15973">
        <ele>1503.64</ele>
        <time>2014-11-20T07:19:44Z</time>
      </trkpt>
      <trkpt lat="40.60773" lon="-4.15988">
        <ele>1505.56</ele>
        <time>2014-11-20T07:19:56Z</time>
      </trkpt>
      <trkpt lat="40.60777" lon="-4.16002">
        <ele>1508.45</ele>
        <time>2014-11-20T07:20:10Z</time>
      </trkpt>
      <trkpt lat="40.6078" lon="-4.16002">
        <ele>1508.93</ele>
        <time>2014-11-20T07:20:13Z</time>
      </trkpt>
      <trkpt lat="40.60782" lon="-4.15992">
        <ele>1510.37</ele>
        <time>2014-11-20T07:20:21Z</time>
      </trkpt>
      <trkpt lat="40.60783" lon="-4.15997">
        <ele>1512.29</ele>
        <time>2014-11-20T07:20:28Z</time>
      </trkpt>
      <trkpt lat="40.60784" lon="-4.16003">
        <ele>1512.77</ele>
        <time>2014-11-20T07:20:32Z</time>
      </trkpt>
      <trkpt lat="40.60784" lon="-4.16006">
        <ele>1512.77</ele>
        <time>2014-11-20T07:20:34Z</time>
      </trkpt>
      <trkpt lat="40.60788" lon="-4.16023">
        <ele>1514.69</ele>
        <time>2014-11-20T07:20:45Z</time>
      </trkpt>
      <trkpt lat="40.60791" lon="-4.16033">
        <ele>1515.66</ele>
        <time>2014-11-20T07:20:53Z</time>
      </trkpt>
      <trkpt lat="40.60794" lon="-4.16048">
        <ele>1517.1</ele>
        <time>2014-11-20T07:21:07Z</time>
      </trkpt>
      <trkpt lat="40.60799" lon="-4.16045">
        <ele>1518.54</ele>
        <time>2014-11-20T07:21:14Z</time>
      </trkpt>
      <trkpt lat="40.60804" lon="-4.16047">
        <ele>1521.42</ele>
        <time>2014-11-20T07:21:29Z</time>
      </trkpt>
      <trkpt lat="40.60816" lon="-4.16044">
        <ele>1524.79</ele>
        <time>2014-11-20T07:21:43Z</time>
      </trkpt>
      <trkpt lat="40.60822" lon="-4.16055">
        <ele>1527.19</ele>
        <time>2014-11-20T07:21:58Z</time>
      </trkpt>
      <trkpt lat="40.60826" lon="-4.16055">
        <ele>1528.63</ele>
        <time>2014-11-20T07:22:03Z</time>
      </trkpt>
      <trkpt lat="40.60829" lon="-4.16051">
        <ele>1530.08</ele>
        <time>2014-11-20T07:22:09Z</time>
      </trkpt>
      <trkpt lat="40.60836" lon="-4.16044">
        <ele>1532</ele>
        <time>2014-11-20T07:22:19Z</time>
      </trkpt>
      <trkpt lat="40.6084" lon="-4.16039">
        <ele>1535.36</ele>
        <time>2014-11-20T07:22:32Z</time>
      </trkpt>
      <trkpt lat="40.60844" lon="-4.16035">
        <ele>1537.29</ele>
        <time>2014-11-20T07:22:42Z</time>
      </trkpt>
      <trkpt lat="40.60846" lon="-4.16031">
        <ele>1537.77</ele>
        <time>2014-11-20T07:22:46Z</time>
      </trkpt>
      <trkpt lat="40.60851" lon="-4.16014">
        <ele>1540.65</ele>
        <time>2014-11-20T07:23:00Z</time>
      </trkpt>
      <trkpt lat="40.60851" lon="-4.16013">
        <ele>1540.65</ele>
        <time>2014-11-20T07:23:01Z</time>
      </trkpt>
      <trkpt lat="40.60851" lon="-4.16006">
        <ele>1541.61</ele>
        <time>2014-11-20T07:23:17Z</time>
      </trkpt>
      <trkpt lat="40.60852" lon="-4.16007">
        <ele>1541.61</ele>
        <time>2014-11-20T07:23:18Z</time>
      </trkpt>
      <trkpt lat="40.60857" lon="-4.16014">
        <ele>1542.57</ele>
        <time>2014-11-20T07:23:23Z</time>
      </trkpt>
      <trkpt lat="40.60869" lon="-4.1602">
        <ele>1544.01</ele>
        <time>2014-11-20T07:23:35Z</time>
      </trkpt>
      <trkpt lat="40.60873" lon="-4.16018">
        <ele>1544.01</ele>
        <time>2014-11-20T07:23:46Z</time>
      </trkpt>
      <trkpt lat="40.60877" lon="-4.16016">
        <ele>1546.9</ele>
        <time>2014-11-20T07:24:06Z</time>
      </trkpt>
      <trkpt lat="40.60886" lon="-4.16008">
        <ele>1548.82</ele>
        <time>2014-11-20T07:24:19Z</time>
      </trkpt>
      <trkpt lat="40.60891" lon="-4.16001">
        <ele>1550.26</ele>
        <time>2014-11-20T07:24:27Z</time>
      </trkpt>
      <trkpt lat="40.60895" lon="-4.15997">
        <ele>1551.22</ele>
        <time>2014-11-20T07:24:32Z</time>
      </trkpt>
      <trkpt lat="40.60903" lon="-4.15988">
        <ele>1553.63</ele>
        <time>2014-11-20T07:24:45Z</time>
      </trkpt>
      <trkpt lat="40.60904" lon="-4.15987">
        <ele>1554.11</ele>
        <time>2014-11-20T07:24:47Z</time>
      </trkpt>
      <trkpt lat="40.60906" lon="-4.15985">
        <ele>1554.59</ele>
        <time>2014-11-20T07:24:50Z</time>
      </trkpt>
      <trkpt lat="40.60921" lon="-4.1598">
        <ele>1556.51</ele>
        <time>2014-11-20T07:25:02Z</time>
      </trkpt>
      <trkpt lat="40.60922" lon="-4.1597">
        <ele>1557.95</ele>
        <time>2014-11-20T07:25:17Z</time>
      </trkpt>
      <trkpt lat="40.60931" lon="-4.15965">
        <ele>1558.43</ele>
        <time>2014-11-20T07:25:31Z</time>
      </trkpt>
      <trkpt lat="40.60942" lon="-4.15954">
        <ele>1558.43</ele>
        <time>2014-11-20T07:25:47Z</time>
      </trkpt>
      <trkpt lat="40.60943" lon="-4.15953">
        <ele>1563.24</ele>
        <time>2014-11-20T07:25:49Z</time>
      </trkpt>
      <trkpt lat="40.60948" lon="-4.15952">
        <ele>1564.2</ele>
        <time>2014-11-20T07:25:53Z</time>
      </trkpt>
      <trkpt lat="40.60951" lon="-4.15951">
        <ele>1564.68</ele>
        <time>2014-11-20T07:25:55Z</time>
      </trkpt>
      <trkpt lat="40.60953" lon="-4.15949">
        <ele>1565.16</ele>
        <time>2014-11-20T07:25:58Z</time>
      </trkpt>
      <trkpt lat="40.60955" lon="-4.15946">
        <ele>1565.16</ele>
        <time>2014-11-20T07:26:02Z</time>
      </trkpt>
      <trkpt lat="40.60963" lon="-4.15941">
        <ele>1567.57</ele>
        <time>2014-11-20T07:26:12Z</time>
      </trkpt>
      <trkpt lat="40.60964" lon="-4.1594">
        <ele>1567.57</ele>
        <time>2014-11-20T07:26:13Z</time>
      </trkpt>
      <trkpt lat="40.6097" lon="-4.15936">
        <ele>1568.53</ele>
        <time>2014-11-20T07:26:19Z</time>
      </trkpt>
      <trkpt lat="40.60978" lon="-4.15931">
        <ele>1569.97</ele>
        <time>2014-11-20T07:26:27Z</time>
      </trkpt>
      <trkpt lat="40.60983" lon="-4.15931">
        <ele>1570.45</ele>
        <time>2014-11-20T07:26:30Z</time>
      </trkpt>
      <trkpt lat="40.60994" lon="-4.15924">
        <ele>1571.89</ele>
        <time>2014-11-20T07:26:38Z</time>
      </trkpt>
      <trkpt lat="40.60997" lon="-4.15923">
        <ele>1572.37</ele>
        <time>2014-11-20T07:26:40Z</time>
      </trkpt>
      <trkpt lat="40.61003" lon="-4.15919">
        <ele>1573.33</ele>
        <time>2014-11-20T07:26:45Z</time>
      </trkpt>
      <trkpt lat="40.61005" lon="-4.15917">
        <ele>1573.82</ele>
        <time>2014-11-20T07:26:47Z</time>
      </trkpt>
      <trkpt lat="40.61008" lon="-4.15916">
        <ele>1574.3</ele>
        <time>2014-11-20T07:26:50Z</time>
      </trkpt>
      <trkpt lat="40.61012" lon="-4.15912">
        <ele>1574.3</ele>
        <time>2014-11-20T07:26:53Z</time>
      </trkpt>
      <trkpt lat="40.61015" lon="-4.15912">
        <ele>1574.78</ele>
        <time>2014-11-20T07:26:56Z</time>
      </trkpt>
      <trkpt lat="40.61026" lon="-4.15902">
        <ele>1576.7</ele>
        <time>2014-11-20T07:27:09Z</time>
      </trkpt>
      <trkpt lat="40.61028" lon="-4.15895">
        <ele>1578.14</ele>
        <time>2014-11-20T07:27:23Z</time>
      </trkpt>
      <trkpt lat="40.61036" lon="-4.15886">
        <ele>1579.58</ele>
        <time>2014-11-20T07:27:36Z</time>
      </trkpt>
      <trkpt lat="40.61027" lon="-4.15882">
        <ele>1581.51</ele>
        <time>2014-11-20T07:27:51Z</time>
      </trkpt>
      <trkpt lat="40.61035" lon="-4.15877">
        <ele>1583.91</ele>
        <time>2014-11-20T07:28:05Z</time>
      </trkpt>
      <trkpt lat="40.61045" lon="-4.15876">
        <ele>1584.87</ele>
        <time>2014-11-20T07:28:09Z</time>
      </trkpt>
      <trkpt lat="40.61043" lon="-4.15868">
        <ele>1586.31</ele>
        <time>2014-11-20T07:28:19Z</time>
      </trkpt>
      <trkpt lat="40.61035" lon="-4.15867">
        <ele>1586.31</ele>
        <time>2014-11-20T07:28:44Z</time>
      </trkpt>
      <trkpt lat="40.6104" lon="-4.15866">
        <ele>1588.72</ele>
        <time>2014-11-20T07:28:56Z</time>
      </trkpt>
      <trkpt lat="40.61049" lon="-4.15854">
        <ele>1593.04</ele>
        <time>2014-11-20T07:29:07Z</time>
      </trkpt>
      <trkpt lat="40.61053" lon="-4.15845">
        <ele>1594.48</ele>
        <time>2014-11-20T07:29:21Z</time>
      </trkpt>
      <trkpt lat="40.61061" lon="-4.15844">
        <ele>1594.96</ele>
        <time>2014-11-20T07:29:33Z</time>
      </trkpt>
      <trkpt lat="40.61074" lon="-4.15839">
        <ele>1595.45</ele>
        <time>2014-11-20T07:29:45Z</time>
      </trkpt>
      <trkpt lat="40.6108" lon="-4.15837">
        <ele>1596.89</ele>
        <time>2014-11-20T07:29:51Z</time>
      </trkpt>
      <trkpt lat="40.61085" lon="-4.15825">
        <ele>1600.25</ele>
        <time>2014-11-20T07:30:01Z</time>
      </trkpt>
      <trkpt lat="40.61093" lon="-4.15817">
        <ele>1602.66</ele>
        <time>2014-11-20T07:30:12Z</time>
      </trkpt>
      <trkpt lat="40.61095" lon="-4.1581">
        <ele>1605.06</ele>
        <time>2014-11-20T07:30:23Z</time>
      </trkpt>
      <trkpt lat="40.61091" lon="-4.15802">
        <ele>1607.46</ele>
        <time>2014-11-20T07:30:36Z</time>
      </trkpt>
      <trkpt lat="40.61091" lon="-4.15793">
        <ele>1610.83</ele>
        <time>2014-11-20T07:30:50Z</time>
      </trkpt>
      <trkpt lat="40.61093" lon="-4.15786">
        <ele>1612.75</ele>
        <time>2014-11-20T07:31:06Z</time>
      </trkpt>
      <trkpt lat="40.61079" lon="-4.15777">
        <ele>1615.63</ele>
        <time>2014-11-20T07:31:24Z</time>
      </trkpt>
      <trkpt lat="40.61072" lon="-4.15774">
        <ele>1617.07</ele>
        <time>2014-11-20T07:31:43Z</time>
      </trkpt>
      <trkpt lat="40.61069" lon="-4.15771">
        <ele>1619</ele>
        <time>2014-11-20T07:32:00Z</time>
      </trkpt>
      <trkpt lat="40.61076" lon="-4.15767">
        <ele>1619.96</ele>
        <time>2014-11-20T07:32:22Z</time>
      </trkpt>
      <trkpt lat="40.61079" lon="-4.1576">
        <ele>1622.84</ele>
        <time>2014-11-20T07:32:37Z</time>
      </trkpt>
      <trkpt lat="40.61087" lon="-4.15751">
        <ele>1625.73</ele>
        <time>2014-11-20T07:32:52Z</time>
      </trkpt>
      <trkpt lat="40.611" lon="-4.15743">
        <ele>1629.09</ele>
        <time>2014-11-20T07:33:09Z</time>
      </trkpt>
      <trkpt lat="40.61101" lon="-4.15742">
        <ele>1628.61</ele>
        <time>2014-11-20T07:33:10Z</time>
      </trkpt>
      <trkpt lat="40.61104" lon="-4.15738">
        <ele>1629.09</ele>
        <time>2014-11-20T07:33:22Z</time>
      </trkpt>
      <trkpt lat="40.61111" lon="-4.15733">
        <ele>1630.05</ele>
        <time>2014-11-20T07:33:31Z</time>
      </trkpt>
      <trkpt lat="40.61112" lon="-4.15732">
        <ele>1630.05</ele>
        <time>2014-11-20T07:33:32Z</time>
      </trkpt>
      <trkpt lat="40.61106" lon="-4.15725">
        <ele>1633.42</ele>
        <time>2014-11-20T07:33:43Z</time>
      </trkpt>
      <trkpt lat="40.61099" lon="-4.15718">
        <ele>1636.3</ele>
        <time>2014-11-20T07:33:57Z</time>
      </trkpt>
      <trkpt lat="40.61097" lon="-4.15714">
        <ele>1637.74</ele>
        <time>2014-11-20T07:34:05Z</time>
      </trkpt>
      <trkpt lat="40.61092" lon="-4.15708">
        <ele>1639.67</ele>
        <time>2014-11-20T07:34:18Z</time>
      </trkpt>
      <trkpt lat="40.61097" lon="-4.15702">
        <ele>1642.55</ele>
        <time>2014-11-20T07:34:30Z</time>
      </trkpt>
      <trkpt lat="40.61092" lon="-4.15697">
        <ele>1644.47</ele>
        <time>2014-11-20T07:34:44Z</time>
      </trkpt>
      <trkpt lat="40.61092" lon="-4.15698">
        <ele>1643.99</ele>
        <time>2014-11-20T07:35:08Z</time>
      </trkpt>
      <trkpt lat="40.61094" lon="-4.15697">
        <ele>1643.99</ele>
        <time>2014-11-20T07:35:16Z</time>
      </trkpt>
      <trkpt lat="40.61097" lon="-4.15692">
        <ele>1645.91</ele>
        <time>2014-11-20T07:35:23Z</time>
      </trkpt>
      <trkpt lat="40.61104" lon="-4.1569">
        <ele>1646.88</ele>
        <time>2014-11-20T07:35:31Z</time>
      </trkpt>
      <trkpt lat="40.6111" lon="-4.15689">
        <ele>1646.88</ele>
        <time>2014-11-20T07:35:43Z</time>
      </trkpt>
      <trkpt lat="40.61106" lon="-4.15681">
        <ele>1648.8</ele>
        <time>2014-11-20T07:35:59Z</time>
      </trkpt>
      <trkpt lat="40.61106" lon="-4.15676">
        <ele>1650.24</ele>
        <time>2014-11-20T07:36:08Z</time>
      </trkpt>
      <trkpt lat="40.61104" lon="-4.1567">
        <ele>1653.12</ele>
        <time>2014-11-20T07:36:19Z</time>
      </trkpt>
      <trkpt lat="40.61102" lon="-4.15665">
        <ele>1655.05</ele>
        <time>2014-11-20T07:36:32Z</time>
      </trkpt>
      <trkpt lat="40.61103" lon="-4.1566">
        <ele>1656.97</ele>
        <time>2014-11-20T07:36:41Z</time>
      </trkpt>
      <trkpt lat="40.61103" lon="-4.15654">
        <ele>1659.37</ele>
        <time>2014-11-20T07:36:53Z</time>
      </trkpt>
      <trkpt lat="40.61099" lon="-4.1565">
        <ele>1660.33</ele>
        <time>2014-11-20T07:37:14Z</time>
      </trkpt>
      <trkpt lat="40.61096" lon="-4.15647">
        <ele>1661.78</ele>
        <time>2014-11-20T07:37:20Z</time>
      </trkpt>
      <trkpt lat="40.61092" lon="-4.15646">
        <ele>1663.22</ele>
        <time>2014-11-20T07:37:25Z</time>
      </trkpt>
      <trkpt lat="40.61083" lon="-4.15644">
        <ele>1664.66</ele>
        <time>2014-11-20T07:37:36Z</time>
      </trkpt>
      <trkpt lat="40.6108" lon="-4.15643">
        <ele>1665.14</ele>
        <time>2014-11-20T07:37:40Z</time>
      </trkpt>
      <trkpt lat="40.61075" lon="-4.15637">
        <ele>1667.54</ele>
        <time>2014-11-20T07:37:52Z</time>
      </trkpt>
      <trkpt lat="40.6107" lon="-4.1563">
        <ele>1669.95</ele>
        <time>2014-11-20T07:38:02Z</time>
      </trkpt>
      <trkpt lat="40.61068" lon="-4.15626">
        <ele>1671.39</ele>
        <time>2014-11-20T07:38:12Z</time>
      </trkpt>
      <trkpt lat="40.61063" lon="-4.15622">
        <ele>1672.83</ele>
        <time>2014-11-20T07:38:21Z</time>
      </trkpt>
      <trkpt lat="40.6106" lon="-4.15615">
        <ele>1674.27</ele>
        <time>2014-11-20T07:38:32Z</time>
      </trkpt>
      <trkpt lat="40.61054" lon="-4.15611">
        <ele>1675.72</ele>
        <time>2014-11-20T07:38:51Z</time>
      </trkpt>
      <trkpt lat="40.61053" lon="-4.15611">
        <ele>1675.72</ele>
        <time>2014-11-20T07:38:52Z</time>
      </trkpt>
      <trkpt lat="40.61051" lon="-4.15611">
        <ele>1675.72</ele>
        <time>2014-11-20T07:38:54Z</time>
      </trkpt>
      <trkpt lat="40.61044" lon="-4.15608">
        <ele>1676.2</ele>
        <time>2014-11-20T07:39:01Z</time>
      </trkpt>
      <trkpt lat="40.6103" lon="-4.15611">
        <ele>1677.64</ele>
        <time>2014-11-20T07:39:16Z</time>
      </trkpt>
      <trkpt lat="40.61026" lon="-4.15607">
        <ele>1677.64</ele>
        <time>2014-11-20T07:39:22Z</time>
      </trkpt>
      <trkpt lat="40.61016" lon="-4.15606">
        <ele>1678.12</ele>
        <time>2014-11-20T07:39:32Z</time>
      </trkpt>
      <trkpt lat="40.61005" lon="-4.15611">
        <ele>1677.64</ele>
        <time>2014-11-20T07:39:47Z</time>
      </trkpt>
      <trkpt lat="40.61004" lon="-4.15614">
        <ele>1677.16</ele>
        <time>2014-11-20T07:39:53Z</time>
      </trkpt>
      <trkpt lat="40.61007" lon="-4.15621">
        <ele>1679.08</ele>
        <time>2014-11-20T07:40:00Z</time>
      </trkpt>
      <trkpt lat="40.61008" lon="-4.1562">
        <ele>1679.08</ele>
        <time>2014-11-20T07:40:18Z</time>
      </trkpt>
      <trkpt lat="40.61007" lon="-4.15618">
        <ele>1678.12</ele>
        <time>2014-11-20T07:40:23Z</time>
      </trkpt>
      <trkpt lat="40.61001" lon="-4.15614">
        <ele>1676.2</ele>
        <time>2014-11-20T07:40:31Z</time>
      </trkpt>
      <trkpt lat="40.6099" lon="-4.15612">
        <ele>1674.75</ele>
        <time>2014-11-20T07:40:45Z</time>
      </trkpt>
      <trkpt lat="40.6098" lon="-4.15615">
        <ele>1672.35</ele>
        <time>2014-11-20T07:40:57Z</time>
      </trkpt>
      <trkpt lat="40.60977" lon="-4.15615">
        <ele>1671.87</ele>
        <time>2014-11-20T07:41:01Z</time>
      </trkpt>
      <trkpt lat="40.60973" lon="-4.15618">
        <ele>1671.39</ele>
        <time>2014-11-20T07:41:05Z</time>
      </trkpt>
      <trkpt lat="40.6097" lon="-4.15619">
        <ele>1670.43</ele>
        <time>2014-11-20T07:41:10Z</time>
      </trkpt>
      <trkpt lat="40.60967" lon="-4.15622">
        <ele>1669.95</ele>
        <time>2014-11-20T07:41:15Z</time>
      </trkpt>
      <trkpt lat="40.60962" lon="-4.1563">
        <ele>1667.54</ele>
        <time>2014-11-20T07:41:25Z</time>
      </trkpt>
      <trkpt lat="40.60954" lon="-4.15631">
        <ele>1665.14</ele>
        <time>2014-11-20T07:41:37Z</time>
      </trkpt>
      <trkpt lat="40.60945" lon="-4.15632">
        <ele>1663.22</ele>
        <time>2014-11-20T07:41:50Z</time>
      </trkpt>
      <trkpt lat="40.60944" lon="-4.15631">
        <ele>1662.74</ele>
        <time>2014-11-20T07:41:55Z</time>
      </trkpt>
      <trkpt lat="40.60942" lon="-4.1563">
        <ele>1662.26</ele>
        <time>2014-11-20T07:41:57Z</time>
      </trkpt>
      <trkpt lat="40.60938" lon="-4.15624">
        <ele>1663.22</ele>
        <time>2014-11-20T07:42:03Z</time>
      </trkpt>
      <trkpt lat="40.6093" lon="-4.15622">
        <ele>1666.1</ele>
        <time>2014-11-20T07:42:15Z</time>
      </trkpt>
      <trkpt lat="40.60933" lon="-4.15621">
        <ele>1668.02</ele>
        <time>2014-11-20T07:42:25Z</time>
      </trkpt>
      <trkpt lat="40.60938" lon="-4.15613">
        <ele>1669.95</ele>
        <time>2014-11-20T07:42:37Z</time>
      </trkpt>
      <trkpt lat="40.60936" lon="-4.15611">
        <ele>1669.95</ele>
        <time>2014-11-20T07:42:39Z</time>
      </trkpt>
      <trkpt lat="40.60932" lon="-4.15612">
        <ele>1670.91</ele>
        <time>2014-11-20T07:42:45Z</time>
      </trkpt>
      <trkpt lat="40.60929" lon="-4.1561">
        <ele>1671.39</ele>
        <time>2014-11-20T07:42:56Z</time>
      </trkpt>
      <trkpt lat="40.60925" lon="-4.15609">
        <ele>1671.87</ele>
        <time>2014-11-20T07:43:07Z</time>
      </trkpt>
      <trkpt lat="40.60926" lon="-4.15608">
        <ele>1671.39</ele>
        <time>2014-11-20T07:43:24Z</time>
      </trkpt>
      <trkpt lat="40.60927" lon="-4.15608">
        <ele>1671.87</ele>
        <time>2014-11-20T07:43:53Z</time>
      </trkpt>
      <trkpt lat="40.60927" lon="-4.1561">
        <ele>1671.39</ele>
        <time>2014-11-20T07:44:16Z</time>
      </trkpt>
      <trkpt lat="40.60928" lon="-4.15611">
        <ele>1671.39</ele>
        <time>2014-11-20T07:44:39Z</time>
      </trkpt>
      <trkpt lat="40.60928" lon="-4.15613">
        <ele>1672.35</ele>
        <time>2014-11-20T07:45:03Z</time>
      </trkpt>
      <trkpt lat="40.60927" lon="-4.1561">
        <ele>1672.35</ele>
        <time>2014-11-20T07:45:29Z</time>
      </trkpt>
      <trkpt lat="40.60927" lon="-4.15609">
        <ele>1672.83</ele>
        <time>2014-11-20T07:45:49Z</time>
      </trkpt>
      <trkpt lat="40.60925" lon="-4.15607">
        <ele>1672.35</ele>
        <time>2014-11-20T07:46:07Z</time>
      </trkpt>
      <trkpt lat="40.60929" lon="-4.15608">
        <ele>1671.39</ele>
        <time>2014-11-20T07:46:20Z</time>
      </trkpt>
      <trkpt lat="40.60935" lon="-4.15614">
        <ele>1672.35</ele>
        <time>2014-11-20T07:46:37Z</time>
      </trkpt>
      <trkpt lat="40.60939" lon="-4.15615">
        <ele>1670.91</ele>
        <time>2014-11-20T07:46:48Z</time>
      </trkpt>
      <trkpt lat="40.60934" lon="-4.15618">
        <ele>1669.47</ele>
        <time>2014-11-20T07:47:00Z</time>
      </trkpt>
      <trkpt lat="40.6093" lon="-4.1562">
        <ele>1669.95</ele>
        <time>2014-11-20T07:47:13Z</time>
      </trkpt>
      <trkpt lat="40.60933" lon="-4.15625">
        <ele>1666.58</ele>
        <time>2014-11-20T07:47:21Z</time>
      </trkpt>
      <trkpt lat="40.6094" lon="-4.15629">
        <ele>1664.66</ele>
        <time>2014-11-20T07:47:33Z</time>
      </trkpt>
      <trkpt lat="40.60943" lon="-4.15632">
        <ele>1664.18</ele>
        <time>2014-11-20T07:47:38Z</time>
      </trkpt>
      <trkpt lat="40.60947" lon="-4.15637">
        <ele>1663.22</ele>
        <time>2014-11-20T07:47:44Z</time>
      </trkpt>
      <trkpt lat="40.60948" lon="-4.15639">
        <ele>1663.22</ele>
        <time>2014-11-20T07:47:46Z</time>
      </trkpt>
      <trkpt lat="40.60954" lon="-4.15643">
        <ele>1663.7</ele>
        <time>2014-11-20T07:47:54Z</time>
      </trkpt>
      <trkpt lat="40.60959" lon="-4.15641">
        <ele>1664.18</ele>
        <time>2014-11-20T07:47:58Z</time>
      </trkpt>
      <trkpt lat="40.60964" lon="-4.15634">
        <ele>1667.06</ele>
        <time>2014-11-20T07:48:09Z</time>
      </trkpt>
      <trkpt lat="40.60967" lon="-4.1563">
        <ele>1668.51</ele>
        <time>2014-11-20T07:48:14Z</time>
      </trkpt>
      <trkpt lat="40.60969" lon="-4.15627">
        <ele>1668.99</ele>
        <time>2014-11-20T07:48:17Z</time>
      </trkpt>
      <trkpt lat="40.60972" lon="-4.15627">
        <ele>1669.95</ele>
        <time>2014-11-20T07:48:21Z</time>
      </trkpt>
      <trkpt lat="40.60974" lon="-4.15626">
        <ele>1670.91</ele>
        <time>2014-11-20T07:48:23Z</time>
      </trkpt>
      <trkpt lat="40.60981" lon="-4.15621">
        <ele>1672.35</ele>
        <time>2014-11-20T07:48:34Z</time>
      </trkpt>
      <trkpt lat="40.60983" lon="-4.1562">
        <ele>1673.31</ele>
        <time>2014-11-20T07:48:38Z</time>
      </trkpt>
      <trkpt lat="40.60985" lon="-4.1562">
        <ele>1673.79</ele>
        <time>2014-11-20T07:48:40Z</time>
      </trkpt>
      <trkpt lat="40.60993" lon="-4.15616">
        <ele>1675.72</ele>
        <time>2014-11-20T07:48:50Z</time>
      </trkpt>
      <trkpt lat="40.60998" lon="-4.15609">
        <ele>1676.68</ele>
        <time>2014-11-20T07:48:59Z</time>
      </trkpt>
      <trkpt lat="40.60996" lon="-4.15606">
        <ele>1676.2</ele>
        <time>2014-11-20T07:49:12Z</time>
      </trkpt>
      <trkpt lat="40.60994" lon="-4.15605">
        <ele>1676.2</ele>
        <time>2014-11-20T07:49:36Z</time>
      </trkpt>
      <trkpt lat="40.60995" lon="-4.1561">
        <ele>1676.68</ele>
        <time>2014-11-20T07:49:47Z</time>
      </trkpt>
      <trkpt lat="40.60994" lon="-4.15606">
        <ele>1676.2</ele>
        <time>2014-11-20T07:49:59Z</time>
      </trkpt>
      <trkpt lat="40.60997" lon="-4.15606">
        <ele>1677.64</ele>
        <time>2014-11-20T07:50:09Z</time>
      </trkpt>
      <trkpt lat="40.61001" lon="-4.15606">
        <ele>1677.64</ele>
        <time>2014-11-20T07:50:13Z</time>
      </trkpt>
      <trkpt lat="40.61003" lon="-4.15606">
        <ele>1677.16</ele>
        <time>2014-11-20T07:50:15Z</time>
      </trkpt>
      <trkpt lat="40.61009" lon="-4.15604">
        <ele>1677.64</ele>
        <time>2014-11-20T07:50:20Z</time>
      </trkpt>
      <trkpt lat="40.61012" lon="-4.15601">
        <ele>1678.12</ele>
        <time>2014-11-20T07:50:23Z</time>
      </trkpt>
      <trkpt lat="40.61021" lon="-4.15598">
        <ele>1679.08</ele>
        <time>2014-11-20T07:50:32Z</time>
      </trkpt>
      <trkpt lat="40.61026" lon="-4.15593">
        <ele>1679.56</ele>
        <time>2014-11-20T07:50:38Z</time>
      </trkpt>
      <trkpt lat="40.61029" lon="-4.15593">
        <ele>1679.56</ele>
        <time>2014-11-20T07:50:40Z</time>
      </trkpt>
      <trkpt lat="40.61037" lon="-4.15589">
        <ele>1680.52</ele>
        <time>2014-11-20T07:50:48Z</time>
      </trkpt>
      <trkpt lat="40.6104" lon="-4.15587">
        <ele>1680.52</ele>
        <time>2014-11-20T07:50:51Z</time>
      </trkpt>
      <trkpt lat="40.61043" lon="-4.15584">
        <ele>1681</ele>
        <time>2014-11-20T07:50:54Z</time>
      </trkpt>
      <trkpt lat="40.61051" lon="-4.15581">
        <ele>1681.96</ele>
        <time>2014-11-20T07:51:02Z</time>
      </trkpt>
      <trkpt lat="40.61053" lon="-4.15579">
        <ele>1681.96</ele>
        <time>2014-11-20T07:51:05Z</time>
      </trkpt>
      <trkpt lat="40.61057" lon="-4.15577">
        <ele>1682.93</ele>
        <time>2014-11-20T07:51:09Z</time>
      </trkpt>
      <trkpt lat="40.61064" lon="-4.15572">
        <ele>1683.89</ele>
        <time>2014-11-20T07:51:17Z</time>
      </trkpt>
      <trkpt lat="40.61076" lon="-4.15564">
        <ele>1685.33</ele>
        <time>2014-11-20T07:51:30Z</time>
      </trkpt>
      <trkpt lat="40.61081" lon="-4.1556">
        <ele>1686.29</ele>
        <time>2014-11-20T07:51:35Z</time>
      </trkpt>
      <trkpt lat="40.61085" lon="-4.15556">
        <ele>1687.25</ele>
        <time>2014-11-20T07:51:39Z</time>
      </trkpt>
      <trkpt lat="40.61088" lon="-4.15555">
        <ele>1687.25</ele>
        <time>2014-11-20T07:51:42Z</time>
      </trkpt>
      <trkpt lat="40.61092" lon="-4.15551">
        <ele>1687.73</ele>
        <time>2014-11-20T07:51:46Z</time>
      </trkpt>
      <trkpt lat="40.61094" lon="-4.1555">
        <ele>1688.21</ele>
        <time>2014-11-20T07:51:48Z</time>
      </trkpt>
      <trkpt lat="40.61099" lon="-4.15547">
        <ele>1689.17</ele>
        <time>2014-11-20T07:51:53Z</time>
      </trkpt>
      <trkpt lat="40.61101" lon="-4.15545">
        <ele>1689.65</ele>
        <time>2014-11-20T07:51:55Z</time>
      </trkpt>
      <trkpt lat="40.61109" lon="-4.15539">
        <ele>1691.58</ele>
        <time>2014-11-20T07:52:05Z</time>
      </trkpt>
      <trkpt lat="40.61121" lon="-4.15533">
        <ele>1693.02</ele>
        <time>2014-11-20T07:52:17Z</time>
      </trkpt>
      <trkpt lat="40.61127" lon="-4.1553">
        <ele>1693.98</ele>
        <time>2014-11-20T07:52:23Z</time>
      </trkpt>
      <trkpt lat="40.61132" lon="-4.15526">
        <ele>1694.46</ele>
        <time>2014-11-20T07:52:28Z</time>
      </trkpt>
      <trkpt lat="40.6114" lon="-4.1552">
        <ele>1695.42</ele>
        <time>2014-11-20T07:52:36Z</time>
      </trkpt>
      <trkpt lat="40.61148" lon="-4.15512">
        <ele>1696.86</ele>
        <time>2014-11-20T07:52:46Z</time>
      </trkpt>
      <trkpt lat="40.61155" lon="-4.15504">
        <ele>1698.31</ele>
        <time>2014-11-20T07:52:56Z</time>
      </trkpt>
      <trkpt lat="40.61165" lon="-4.15497">
        <ele>1698.79</ele>
        <time>2014-11-20T07:53:05Z</time>
      </trkpt>
      <trkpt lat="40.61173" lon="-4.15495">
        <ele>1698.79</ele>
        <time>2014-11-20T07:53:13Z</time>
      </trkpt>
      <trkpt lat="40.61181" lon="-4.15493">
        <ele>1699.27</ele>
        <time>2014-11-20T07:53:20Z</time>
      </trkpt>
      <trkpt lat="40.61184" lon="-4.1549">
        <ele>1698.31</ele>
        <time>2014-11-20T07:53:25Z</time>
      </trkpt>
      <trkpt lat="40.61186" lon="-4.15487">
        <ele>1698.79</ele>
        <time>2014-11-20T07:53:42Z</time>
      </trkpt>
      <trkpt lat="40.61203" lon="-4.15469">
        <ele>1699.75</ele>
        <time>2014-11-20T07:54:01Z</time>
      </trkpt>
      <trkpt lat="40.61209" lon="-4.15464">
        <ele>1700.23</ele>
        <time>2014-11-20T07:54:08Z</time>
      </trkpt>
      <trkpt lat="40.61213" lon="-4.1546">
        <ele>1700.23</ele>
        <time>2014-11-20T07:54:12Z</time>
      </trkpt>
      <trkpt lat="40.61217" lon="-4.15457">
        <ele>1700.71</ele>
        <time>2014-11-20T07:54:16Z</time>
      </trkpt>
      <trkpt lat="40.61221" lon="-4.15453">
        <ele>1700.71</ele>
        <time>2014-11-20T07:54:20Z</time>
      </trkpt>
      <trkpt lat="40.6123" lon="-4.15444">
        <ele>1701.67</ele>
        <time>2014-11-20T07:54:30Z</time>
      </trkpt>
      <trkpt lat="40.61234" lon="-4.15444">
        <ele>1702.63</ele>
        <time>2014-11-20T07:54:33Z</time>
      </trkpt>
      <trkpt lat="40.6125" lon="-4.15432">
        <ele>1703.11</ele>
        <time>2014-11-20T07:54:47Z</time>
      </trkpt>
      <trkpt lat="40.61251" lon="-4.15432">
        <ele>1703.11</ele>
        <time>2014-11-20T07:54:48Z</time>
      </trkpt>
      <trkpt lat="40.61254" lon="-4.15432">
        <ele>1703.11</ele>
        <time>2014-11-20T07:54:50Z</time>
      </trkpt>
      <trkpt lat="40.61259" lon="-4.15427">
        <ele>1703.59</ele>
        <time>2014-11-20T07:54:54Z</time>
      </trkpt>
      <trkpt lat="40.61275" lon="-4.15413">
        <ele>1704.55</ele>
        <time>2014-11-20T07:55:10Z</time>
      </trkpt>
      <trkpt lat="40.61281" lon="-4.15412">
        <ele>1705.04</ele>
        <time>2014-11-20T07:55:14Z</time>
      </trkpt>
      <trkpt lat="40.61297" lon="-4.15411">
        <ele>1706.48</ele>
        <time>2014-11-20T07:55:28Z</time>
      </trkpt>
      <trkpt lat="40.61314" lon="-4.1541">
        <ele>1706.96</ele>
        <time>2014-11-20T07:55:41Z</time>
      </trkpt>
      <trkpt lat="40.61331" lon="-4.15399">
        <ele>1706.96</ele>
        <time>2014-11-20T07:55:55Z</time>
      </trkpt>
      <trkpt lat="40.61343" lon="-4.1539">
        <ele>1706.96</ele>
        <time>2014-11-20T07:56:06Z</time>
      </trkpt>
      <trkpt lat="40.61348" lon="-4.15385">
        <ele>1707.44</ele>
        <time>2014-11-20T07:56:10Z</time>
      </trkpt>
      <trkpt lat="40.61367" lon="-4.15369">
        <ele>1707.44</ele>
        <time>2014-11-20T07:56:26Z</time>
      </trkpt>
      <trkpt lat="40.61369" lon="-4.15368">
        <ele>1707.44</ele>
        <time>2014-11-20T07:56:28Z</time>
      </trkpt>
      <trkpt lat="40.61375" lon="-4.15364">
        <ele>1707.44</ele>
        <time>2014-11-20T07:56:33Z</time>
      </trkpt>
      <trkpt lat="40.61396" lon="-4.15347">
        <ele>1707.44</ele>
        <time>2014-11-20T07:56:52Z</time>
      </trkpt>
      <trkpt lat="40.61412" lon="-4.15336">
        <ele>1707.92</ele>
        <time>2014-11-20T07:57:07Z</time>
      </trkpt>
      <trkpt lat="40.61413" lon="-4.15335">
        <ele>1707.92</ele>
        <time>2014-11-20T07:57:08Z</time>
      </trkpt>
      <trkpt lat="40.61432" lon="-4.15325">
        <ele>1707.92</ele>
        <time>2014-11-20T07:57:23Z</time>
      </trkpt>
      <trkpt lat="40.61443" lon="-4.1532">
        <ele>1708.4</ele>
        <time>2014-11-20T07:57:32Z</time>
      </trkpt>
      <trkpt lat="40.61446" lon="-4.15316">
        <ele>1708.88</ele>
        <time>2014-11-20T07:57:35Z</time>
      </trkpt>
      <trkpt lat="40.61449" lon="-4.15308">
        <ele>1709.84</ele>
        <time>2014-11-20T07:57:43Z</time>
      </trkpt>
      <trkpt lat="40.61453" lon="-4.1529">
        <ele>1711.76</ele>
        <time>2014-11-20T07:57:56Z</time>
      </trkpt>
      <trkpt lat="40.6146" lon="-4.15281">
        <ele>1712.25</ele>
        <time>2014-11-20T07:58:04Z</time>
      </trkpt>
      <trkpt lat="40.61464" lon="-4.15274">
        <ele>1713.21</ele>
        <time>2014-11-20T07:58:16Z</time>
      </trkpt>
      <trkpt lat="40.61463" lon="-4.15271">
        <ele>1713.21</ele>
        <time>2014-11-20T07:58:18Z</time>
      </trkpt>
      <trkpt lat="40.61458" lon="-4.1526">
        <ele>1713.21</ele>
        <time>2014-11-20T07:58:26Z</time>
      </trkpt>
      <trkpt lat="40.61458" lon="-4.15252">
        <ele>1713.69</ele>
        <time>2014-11-20T07:58:31Z</time>
      </trkpt>
      <trkpt lat="40.61469" lon="-4.15248">
        <ele>1714.65</ele>
        <time>2014-11-20T07:58:42Z</time>
      </trkpt>
      <trkpt lat="40.61478" lon="-4.15246">
        <ele>1716.09</ele>
        <time>2014-11-20T07:58:50Z</time>
      </trkpt>
      <trkpt lat="40.61484" lon="-4.15248">
        <ele>1716.57</ele>
        <time>2014-11-20T07:58:55Z</time>
      </trkpt>
      <trkpt lat="40.61496" lon="-4.1524">
        <ele>1718.49</ele>
        <time>2014-11-20T07:59:09Z</time>
      </trkpt>
      <trkpt lat="40.615" lon="-4.15238">
        <ele>1719.46</ele>
        <time>2014-11-20T07:59:14Z</time>
      </trkpt>
      <trkpt lat="40.61507" lon="-4.15229">
        <ele>1720.42</ele>
        <time>2014-11-20T07:59:22Z</time>
      </trkpt>
      <trkpt lat="40.61514" lon="-4.15221">
        <ele>1722.34</ele>
        <time>2014-11-20T07:59:33Z</time>
      </trkpt>
      <trkpt lat="40.61523" lon="-4.15208">
        <ele>1724.26</ele>
        <time>2014-11-20T07:59:47Z</time>
      </trkpt>
      <trkpt lat="40.61531" lon="-4.15194">
        <ele>1726.18</ele>
        <time>2014-11-20T07:59:58Z</time>
      </trkpt>
      <trkpt lat="40.61534" lon="-4.15189">
        <ele>1727.15</ele>
        <time>2014-11-20T08:00:03Z</time>
      </trkpt>
      <trkpt lat="40.61536" lon="-4.15173">
        <ele>1727.63</ele>
        <time>2014-11-20T08:00:17Z</time>
      </trkpt>
      <trkpt lat="40.61542" lon="-4.15169">
        <ele>1730.51</ele>
        <time>2014-11-20T08:00:29Z</time>
      </trkpt>
      <trkpt lat="40.61551" lon="-4.15165">
        <ele>1732.43</ele>
        <time>2014-11-20T08:00:41Z</time>
      </trkpt>
      <trkpt lat="40.61559" lon="-4.15163">
        <ele>1735.32</ele>
        <time>2014-11-20T08:00:54Z</time>
      </trkpt>
      <trkpt lat="40.61568" lon="-4.15155">
        <ele>1737.24</ele>
        <time>2014-11-20T08:01:05Z</time>
      </trkpt>
      <trkpt lat="40.6157" lon="-4.15155">
        <ele>1737.72</ele>
        <time>2014-11-20T08:01:08Z</time>
      </trkpt>
      <trkpt lat="40.61577" lon="-4.15155">
        <ele>1739.64</ele>
        <time>2014-11-20T08:01:18Z</time>
      </trkpt>
      <trkpt lat="40.6158" lon="-4.15153">
        <ele>1740.12</ele>
        <time>2014-11-20T08:01:21Z</time>
      </trkpt>
      <trkpt lat="40.61583" lon="-4.15152">
        <ele>1740.6</ele>
        <time>2014-11-20T08:01:24Z</time>
      </trkpt>
      <trkpt lat="40.61588" lon="-4.15146">
        <ele>1742.53</ele>
        <time>2014-11-20T08:01:35Z</time>
      </trkpt>
      <trkpt lat="40.61591" lon="-4.15147">
        <ele>1742.05</ele>
        <time>2014-11-20T08:01:56Z</time>
      </trkpt>
      <trkpt lat="40.61591" lon="-4.15146">
        <ele>1742.05</ele>
        <time>2014-11-20T08:01:58Z</time>
      </trkpt>
      <trkpt lat="40.61591" lon="-4.15142">
        <ele>1742.05</ele>
        <time>2014-11-20T08:02:01Z</time>
      </trkpt>
      <trkpt lat="40.61593" lon="-4.15128">
        <ele>1743.01</ele>
        <time>2014-11-20T08:02:11Z</time>
      </trkpt>
      <trkpt lat="40.61597" lon="-4.1513">
        <ele>1745.41</ele>
        <time>2014-11-20T08:02:20Z</time>
      </trkpt>
      <trkpt lat="40.61603" lon="-4.15127">
        <ele>1746.37</ele>
        <time>2014-11-20T08:02:26Z</time>
      </trkpt>
      <trkpt lat="40.61604" lon="-4.15126">
        <ele>1746.85</ele>
        <time>2014-11-20T08:02:28Z</time>
      </trkpt>
      <trkpt lat="40.61609" lon="-4.1512">
        <ele>1747.81</ele>
        <time>2014-11-20T08:02:39Z</time>
      </trkpt>
      <trkpt lat="40.61613" lon="-4.15113">
        <ele>1749.74</ele>
        <time>2014-11-20T08:02:47Z</time>
      </trkpt>
      <trkpt lat="40.61616" lon="-4.15105">
        <ele>1750.7</ele>
        <time>2014-11-20T08:02:54Z</time>
      </trkpt>
      <trkpt lat="40.61615" lon="-4.15099">
        <ele>1751.18</ele>
        <time>2014-11-20T08:02:58Z</time>
      </trkpt>
      <trkpt lat="40.61612" lon="-4.15093">
        <ele>1752.14</ele>
        <time>2014-11-20T08:03:03Z</time>
      </trkpt>
      <trkpt lat="40.6161" lon="-4.15088">
        <ele>1752.62</ele>
        <time>2014-11-20T08:03:07Z</time>
      </trkpt>
      <trkpt lat="40.61607" lon="-4.15085">
        <ele>1752.62</ele>
        <time>2014-11-20T08:03:13Z</time>
      </trkpt>
      <trkpt lat="40.61602" lon="-4.15087">
        <ele>1754.54</ele>
        <time>2014-11-20T08:03:24Z</time>
      </trkpt>
      <trkpt lat="40.61602" lon="-4.15084">
        <ele>1753.1</ele>
        <time>2014-11-20T08:03:38Z</time>
      </trkpt>
      <trkpt lat="40.61605" lon="-4.15084">
        <ele>1753.58</ele>
        <time>2014-11-20T08:03:59Z</time>
      </trkpt>
      <trkpt lat="40.61605" lon="-4.15086">
        <ele>1753.58</ele>
        <time>2014-11-20T08:04:11Z</time>
      </trkpt>
      <trkpt lat="40.61605" lon="-4.15079">
        <ele>1753.58</ele>
        <time>2014-11-20T08:04:20Z</time>
      </trkpt>
      <trkpt lat="40.61605" lon="-4.1507">
        <ele>1751.66</ele>
        <time>2014-11-20T08:04:33Z</time>
      </trkpt>
      <trkpt lat="40.61605" lon="-4.15067">
        <ele>1751.18</ele>
        <time>2014-11-20T08:04:46Z</time>
      </trkpt>
      <trkpt lat="40.616" lon="-4.15069">
        <ele>1750.7</ele>
        <time>2014-11-20T08:05:05Z</time>
      </trkpt>
      <trkpt lat="40.61601" lon="-4.1507">
        <ele>1751.66</ele>
        <time>2014-11-20T08:05:19Z</time>
      </trkpt>
      <trkpt lat="40.61599" lon="-4.15073">
        <ele>1751.18</ele>
        <time>2014-11-20T08:05:44Z</time>
      </trkpt>
      <trkpt lat="40.61603" lon="-4.15073">
        <ele>1751.66</ele>
        <time>2014-11-20T08:06:02Z</time>
      </trkpt>
      <trkpt lat="40.61604" lon="-4.1508">
        <ele>1753.58</ele>
        <time>2014-11-20T08:06:14Z</time>
      </trkpt>
      <trkpt lat="40.61604" lon="-4.15082">
        <ele>1754.06</ele>
        <time>2014-11-20T08:06:15Z</time>
      </trkpt>
      <trkpt lat="40.61604" lon="-4.15084">
        <ele>1753.58</ele>
        <time>2014-11-20T08:06:17Z</time>
      </trkpt>
      <trkpt lat="40.61603" lon="-4.15087">
        <ele>1753.58</ele>
        <time>2014-11-20T08:06:31Z</time>
      </trkpt>
      <trkpt lat="40.61603" lon="-4.15088">
        <ele>1753.58</ele>
        <time>2014-11-20T08:06:40Z</time>
      </trkpt>
      <trkpt lat="40.61603" lon="-4.15085">
        <ele>1753.1</ele>
        <time>2014-11-20T08:06:51Z</time>
      </trkpt>
      <trkpt lat="40.61603" lon="-4.15084">
        <ele>1753.1</ele>
        <time>2014-11-20T08:06:53Z</time>
      </trkpt>
      <trkpt lat="40.61605" lon="-4.15081">
        <ele>1752.14</ele>
        <time>2014-11-20T08:07:02Z</time>
      </trkpt>
      <trkpt lat="40.61604" lon="-4.15083">
        <ele>1752.62</ele>
        <time>2014-11-20T08:07:22Z</time>
      </trkpt>
      <trkpt lat="40.61605" lon="-4.15082">
        <ele>1752.62</ele>
        <time>2014-11-20T08:07:56Z</time>
      </trkpt>
      <trkpt lat="40.61605" lon="-4.15082">
        <ele>1753.1</ele>
        <time>2014-11-20T08:08:41Z</time>
      </trkpt>
      <trkpt lat="40.61606" lon="-4.15083">
        <ele>1753.1</ele>
        <time>2014-11-20T08:09:31Z</time>
      </trkpt>
      <trkpt lat="40.61607" lon="-4.15085">
        <ele>1753.58</ele>
        <time>2014-11-20T08:10:07Z</time>
      </trkpt>
      <trkpt lat="40.61607" lon="-4.15086">
        <ele>1753.58</ele>
        <time>2014-11-20T08:10:08Z</time>
      </trkpt>
      <trkpt lat="40.61608" lon="-4.15089">
        <ele>1754.06</ele>
        <time>2014-11-20T08:10:21Z</time>
      </trkpt>
      <trkpt lat="40.61606" lon="-4.1509">
        <ele>1754.54</ele>
        <time>2014-11-20T08:10:53Z</time>
      </trkpt>
      <trkpt lat="40.61607" lon="-4.1509">
        <ele>1754.54</ele>
        <time>2014-11-20T08:11:30Z</time>
      </trkpt>
      <trkpt lat="40.61606" lon="-4.1509">
        <ele>1753.58</ele>
        <time>2014-11-20T08:11:53Z</time>
      </trkpt>
      <trkpt lat="40.61605" lon="-4.15086">
        <ele>1754.06</ele>
        <time>2014-11-20T08:12:16Z</time>
      </trkpt>
      <trkpt lat="40.61606" lon="-4.15088">
        <ele>1754.54</ele>
        <time>2014-11-20T08:12:34Z</time>
      </trkpt>
      <trkpt lat="40.61607" lon="-4.15087">
        <ele>1753.58</ele>
        <time>2014-11-20T08:13:00Z</time>
      </trkpt>
      <trkpt lat="40.61607" lon="-4.15086">
        <ele>1754.06</ele>
        <time>2014-11-20T08:13:26Z</time>
      </trkpt>
      <trkpt lat="40.61608" lon="-4.15085">
        <ele>1754.06</ele>
        <time>2014-11-20T08:14:02Z</time>
      </trkpt>
      <trkpt lat="40.61608" lon="-4.15084">
        <ele>1754.54</ele>
        <time>2014-11-20T08:14:32Z</time>
      </trkpt>
      <trkpt lat="40.61607" lon="-4.15084">
        <ele>1754.54</ele>
        <time>2014-11-20T08:15:05Z</time>
      </trkpt>
      <trkpt lat="40.61607" lon="-4.15087">
        <ele>1754.54</ele>
        <time>2014-11-20T08:15:24Z</time>
      </trkpt>
      <trkpt lat="40.61608" lon="-4.15086">
        <ele>1754.54</ele>
        <time>2014-11-20T08:15:42Z</time>
      </trkpt>
      <trkpt lat="40.61609" lon="-4.15085">
        <ele>1754.54</ele>
        <time>2014-11-20T08:16:05Z</time>
      </trkpt>
      <trkpt lat="40.61609" lon="-4.15084">
        <ele>1754.54</ele>
        <time>2014-11-20T08:16:38Z</time>
      </trkpt>
      <trkpt lat="40.61608" lon="-4.15084">
        <ele>1755.02</ele>
        <time>2014-11-20T08:17:06Z</time>
      </trkpt>
      <trkpt lat="40.61608" lon="-4.15085">
        <ele>1755.5</ele>
        <time>2014-11-20T08:17:39Z</time>
      </trkpt>
      <trkpt lat="40.61607" lon="-4.15085">
        <ele>1755.02</ele>
        <time>2014-11-20T08:18:05Z</time>
      </trkpt>
      <trkpt lat="40.61607" lon="-4.15085">
        <ele>1755.5</ele>
        <time>2014-11-20T08:18:35Z</time>
      </trkpt>
      <trkpt lat="40.61608" lon="-4.15085">
        <ele>1755.99</ele>
        <time>2014-11-20T08:19:04Z</time>
      </trkpt>
      <trkpt lat="40.61608" lon="-4.15084">
        <ele>1755.99</ele>
        <time>2014-11-20T08:19:39Z</time>
      </trkpt>
      <trkpt lat="40.61609" lon="-4.15084">
        <ele>1755.99</ele>
        <time>2014-11-20T08:20:21Z</time>
      </trkpt>
      <trkpt lat="40.61608" lon="-4.15084">
        <ele>1755.5</ele>
        <time>2014-11-20T08:21:04Z</time>
      </trkpt>
      <trkpt lat="40.61607" lon="-4.15085">
        <ele>1755.99</ele>
        <time>2014-11-20T08:21:29Z</time>
      </trkpt>
      <trkpt lat="40.61607" lon="-4.15086">
        <ele>1754.06</ele>
        <time>2014-11-20T08:21:37Z</time>
      </trkpt>
      <trkpt lat="40.61607" lon="-4.15087">
        <ele>1756.47</ele>
        <time>2014-11-20T08:21:48Z</time>
      </trkpt>
      <trkpt lat="40.61608" lon="-4.15089">
        <ele>1755.5</ele>
        <time>2014-11-20T08:22:01Z</time>
      </trkpt>
      <trkpt lat="40.6161" lon="-4.15092">
        <ele>1754.54</ele>
        <time>2014-11-20T08:22:07Z</time>
      </trkpt>
      <trkpt lat="40.61612" lon="-4.15099">
        <ele>1753.1</ele>
        <time>2014-11-20T08:22:13Z</time>
      </trkpt>
      <trkpt lat="40.61615" lon="-4.15102">
        <ele>1752.62</ele>
        <time>2014-11-20T08:22:28Z</time>
      </trkpt>
      <trkpt lat="40.6162" lon="-4.15105">
        <ele>1751.66</ele>
        <time>2014-11-20T08:22:56Z</time>
      </trkpt>
      <trkpt lat="40.61626" lon="-4.15115">
        <ele>1752.62</ele>
        <time>2014-11-20T08:23:06Z</time>
      </trkpt>
      <trkpt lat="40.61632" lon="-4.1512">
        <ele>1753.1</ele>
        <time>2014-11-20T08:23:18Z</time>
      </trkpt>
      <trkpt lat="40.6165" lon="-4.15114">
        <ele>1754.54</ele>
        <time>2014-11-20T08:23:33Z</time>
      </trkpt>
      <trkpt lat="40.61665" lon="-4.15114">
        <ele>1755.99</ele>
        <time>2014-11-20T08:23:53Z</time>
      </trkpt>
      <trkpt lat="40.61666" lon="-4.15118">
        <ele>1755.99</ele>
        <time>2014-11-20T08:23:56Z</time>
      </trkpt>
      <trkpt lat="40.6168" lon="-4.15126">
        <ele>1756.95</ele>
        <time>2014-11-20T08:24:11Z</time>
      </trkpt>
      <trkpt lat="40.61695" lon="-4.15132">
        <ele>1757.43</ele>
        <time>2014-11-20T08:24:26Z</time>
      </trkpt>
      <trkpt lat="40.61702" lon="-4.15135">
        <ele>1758.87</ele>
        <time>2014-11-20T08:24:35Z</time>
      </trkpt>
      <trkpt lat="40.61714" lon="-4.15141">
        <ele>1758.39</ele>
        <time>2014-11-20T08:24:47Z</time>
      </trkpt>
      <trkpt lat="40.61726" lon="-4.15148">
        <ele>1757.91</ele>
        <time>2014-11-20T08:24:59Z</time>
      </trkpt>
      <trkpt lat="40.61733" lon="-4.15157">
        <ele>1756.47</ele>
        <time>2014-11-20T08:25:12Z</time>
      </trkpt>
      <trkpt lat="40.61733" lon="-4.15158">
        <ele>1756.47</ele>
        <time>2014-11-20T08:25:13Z</time>
      </trkpt>
      <trkpt lat="40.61737" lon="-4.15164">
        <ele>1755.99</ele>
        <time>2014-11-20T08:25:19Z</time>
      </trkpt>
      <trkpt lat="40.61742" lon="-4.1517">
        <ele>1755.5</ele>
        <time>2014-11-20T08:25:24Z</time>
      </trkpt>
      <trkpt lat="40.61745" lon="-4.15178">
        <ele>1754.54</ele>
        <time>2014-11-20T08:25:29Z</time>
      </trkpt>
      <trkpt lat="40.61745" lon="-4.15194">
        <ele>1752.62</ele>
        <time>2014-11-20T08:25:41Z</time>
      </trkpt>
      <trkpt lat="40.61749" lon="-4.15205">
        <ele>1751.66</ele>
        <time>2014-11-20T08:25:48Z</time>
      </trkpt>
      <trkpt lat="40.61751" lon="-4.15209">
        <ele>1751.18</ele>
        <time>2014-11-20T08:25:51Z</time>
      </trkpt>
      <trkpt lat="40.61754" lon="-4.15212">
        <ele>1750.7</ele>
        <time>2014-11-20T08:26:02Z</time>
      </trkpt>
      <trkpt lat="40.6176" lon="-4.15208">
        <ele>1751.66</ele>
        <time>2014-11-20T08:26:23Z</time>
      </trkpt>
      <trkpt lat="40.61768" lon="-4.15203">
        <ele>1754.06</ele>
        <time>2014-11-20T08:26:32Z</time>
      </trkpt>
      <trkpt lat="40.61768" lon="-4.15199">
        <ele>1753.58</ele>
        <time>2014-11-20T08:26:34Z</time>
      </trkpt>
      <trkpt lat="40.6177" lon="-4.15198">
        <ele>1754.54</ele>
        <time>2014-11-20T08:26:39Z</time>
      </trkpt>
      <trkpt lat="40.61777" lon="-4.152">
        <ele>1755.5</ele>
        <time>2014-11-20T08:26:46Z</time>
      </trkpt>
      <trkpt lat="40.6178" lon="-4.15199">
        <ele>1756.95</ele>
        <time>2014-11-20T08:27:00Z</time>
      </trkpt>
      <trkpt lat="40.61781" lon="-4.15194">
        <ele>1757.43</ele>
        <time>2014-11-20T08:27:11Z</time>
      </trkpt>
      <trkpt lat="40.61781" lon="-4.15189">
        <ele>1758.87</ele>
        <time>2014-11-20T08:27:24Z</time>
      </trkpt>
      <trkpt lat="40.61783" lon="-4.15194">
        <ele>1759.83</ele>
        <time>2014-11-20T08:27:34Z</time>
      </trkpt>
      <trkpt lat="40.61783" lon="-4.15191">
        <ele>1759.35</ele>
        <time>2014-11-20T08:27:37Z</time>
      </trkpt>
      <trkpt lat="40.61784" lon="-4.15186">
        <ele>1758.87</ele>
        <time>2014-11-20T08:27:41Z</time>
      </trkpt>
      <trkpt lat="40.61789" lon="-4.15185">
        <ele>1760.31</ele>
        <time>2014-11-20T08:27:53Z</time>
      </trkpt>
      <trkpt lat="40.6179" lon="-4.15187">
        <ele>1760.31</ele>
        <time>2014-11-20T08:28:06Z</time>
      </trkpt>
      <trkpt lat="40.6179" lon="-4.15183">
        <ele>1759.83</ele>
        <time>2014-11-20T08:28:18Z</time>
      </trkpt>
      <trkpt lat="40.61789" lon="-4.15184">
        <ele>1759.83</ele>
        <time>2014-11-20T08:28:43Z</time>
      </trkpt>
      <trkpt lat="40.61787" lon="-4.15188">
        <ele>1759.83</ele>
        <time>2014-11-20T08:29:15Z</time>
      </trkpt>
      <trkpt lat="40.61788" lon="-4.15185">
        <ele>1760.31</ele>
        <time>2014-11-20T08:29:48Z</time>
      </trkpt>
      <trkpt lat="40.6179" lon="-4.15183">
        <ele>1759.83</ele>
        <time>2014-11-20T08:30:24Z</time>
      </trkpt>
      <trkpt lat="40.6179" lon="-4.15186">
        <ele>1759.83</ele>
        <time>2014-11-20T08:30:59Z</time>
      </trkpt>
      <trkpt lat="40.6179" lon="-4.15185">
        <ele>1759.83</ele>
        <time>2014-11-20T08:31:31Z</time>
      </trkpt>
      <trkpt lat="40.6179" lon="-4.15186">
        <ele>1760.31</ele>
        <time>2014-11-20T08:32:04Z</time>
      </trkpt>
      <trkpt lat="40.61788" lon="-4.15187">
        <ele>1759.83</ele>
        <time>2014-11-20T08:32:46Z</time>
      </trkpt>
      <trkpt lat="40.6179" lon="-4.15187">
        <ele>1759.83</ele>
        <time>2014-11-20T08:33:23Z</time>
      </trkpt>
      <trkpt lat="40.61791" lon="-4.15186">
        <ele>1760.31</ele>
        <time>2014-11-20T08:33:49Z</time>
      </trkpt>
      <trkpt lat="40.6179" lon="-4.15186">
        <ele>1760.31</ele>
        <time>2014-11-20T08:34:25Z</time>
      </trkpt>
      <trkpt lat="40.61791" lon="-4.15185">
        <ele>1760.31</ele>
        <time>2014-11-20T08:34:43Z</time>
      </trkpt>
      <trkpt lat="40.61791" lon="-4.15184">
        <ele>1760.31</ele>
        <time>2014-11-20T08:35:20Z</time>
      </trkpt>
      <trkpt lat="40.61792" lon="-4.15185">
        <ele>1760.31</ele>
        <time>2014-11-20T08:35:57Z</time>
      </trkpt>
      <trkpt lat="40.61791" lon="-4.15184">
        <ele>1760.31</ele>
        <time>2014-11-20T08:36:40Z</time>
      </trkpt>
      <trkpt lat="40.6179" lon="-4.15185">
        <ele>1760.31</ele>
        <time>2014-11-20T08:37:04Z</time>
      </trkpt>
      <trkpt lat="40.61792" lon="-4.15185">
        <ele>1760.79</ele>
        <time>2014-11-20T08:37:22Z</time>
      </trkpt>
      <trkpt lat="40.61787" lon="-4.15184">
        <ele>1760.31</ele>
        <time>2014-11-20T08:37:35Z</time>
      </trkpt>
      <trkpt lat="40.61787" lon="-4.15182">
        <ele>1759.35</ele>
        <time>2014-11-20T08:37:38Z</time>
      </trkpt>
      <trkpt lat="40.61786" lon="-4.15178">
        <ele>1758.39</ele>
        <time>2014-11-20T08:37:41Z</time>
      </trkpt>
      <trkpt lat="40.61777" lon="-4.15169">
        <ele>1756.95</ele>
        <time>2014-11-20T08:37:54Z</time>
      </trkpt>
      <trkpt lat="40.61772" lon="-4.15167">
        <ele>1756.47</ele>
        <time>2014-11-20T08:37:59Z</time>
      </trkpt>
      <trkpt lat="40.61767" lon="-4.15161">
        <ele>1756.47</ele>
        <time>2014-11-20T08:38:07Z</time>
      </trkpt>
      <trkpt lat="40.61769" lon="-4.15165">
        <ele>1756.47</ele>
        <time>2014-11-20T08:38:10Z</time>
      </trkpt>
      <trkpt lat="40.61768" lon="-4.15168">
        <ele>1755.99</ele>
        <time>2014-11-20T08:38:12Z</time>
      </trkpt>
      <trkpt lat="40.6177" lon="-4.15189">
        <ele>1756.47</ele>
        <time>2014-11-20T08:38:26Z</time>
      </trkpt>
      <trkpt lat="40.61777" lon="-4.15199">
        <ele>1756.47</ele>
        <time>2014-11-20T08:38:37Z</time>
      </trkpt>
      <trkpt lat="40.61775" lon="-4.15198">
        <ele>1756.47</ele>
        <time>2014-11-20T08:38:49Z</time>
      </trkpt>
      <trkpt lat="40.61774" lon="-4.15198">
        <ele>1755.99</ele>
        <time>2014-11-20T08:38:55Z</time>
      </trkpt>
      <trkpt lat="40.61773" lon="-4.15196">
        <ele>1755.99</ele>
        <time>2014-11-20T08:38:57Z</time>
      </trkpt>
      <trkpt lat="40.6177" lon="-4.15196">
        <ele>1755.02</ele>
        <time>2014-11-20T08:39:01Z</time>
      </trkpt>
      <trkpt lat="40.61767" lon="-4.15193">
        <ele>1754.54</ele>
        <time>2014-11-20T08:39:05Z</time>
      </trkpt>
      <trkpt lat="40.61766" lon="-4.15201">
        <ele>1753.58</ele>
        <time>2014-11-20T08:39:10Z</time>
      </trkpt>
      <trkpt lat="40.6176" lon="-4.15202">
        <ele>1752.62</ele>
        <time>2014-11-20T08:39:17Z</time>
      </trkpt>
      <trkpt lat="40.61757" lon="-4.15199">
        <ele>1752.62</ele>
        <time>2014-11-20T08:39:21Z</time>
      </trkpt>
      <trkpt lat="40.61752" lon="-4.15201">
        <ele>1752.14</ele>
        <time>2014-11-20T08:39:25Z</time>
      </trkpt>
      <trkpt lat="40.61751" lon="-4.15206">
        <ele>1751.66</ele>
        <time>2014-11-20T08:39:28Z</time>
      </trkpt>
      <trkpt lat="40.61753" lon="-4.15215">
        <ele>1750.22</ele>
        <time>2014-11-20T08:39:35Z</time>
      </trkpt>
      <trkpt lat="40.61755" lon="-4.1523">
        <ele>1748.29</ele>
        <time>2014-11-20T08:39:47Z</time>
      </trkpt>
      <trkpt lat="40.61756" lon="-4.15231">
        <ele>1748.29</ele>
        <time>2014-11-20T08:39:48Z</time>
      </trkpt>
      <trkpt lat="40.61757" lon="-4.15245">
        <ele>1746.37</ele>
        <time>2014-11-20T08:39:59Z</time>
      </trkpt>
      <trkpt lat="40.61758" lon="-4.15248">
        <ele>1745.89</ele>
        <time>2014-11-20T08:40:01Z</time>
      </trkpt>
      <trkpt lat="40.61759" lon="-4.15249">
        <ele>1745.89</ele>
        <time>2014-11-20T08:40:03Z</time>
      </trkpt>
      <trkpt lat="40.6176" lon="-4.15251">
        <ele>1745.41</ele>
        <time>2014-11-20T08:40:05Z</time>
      </trkpt>
      <trkpt lat="40.61763" lon="-4.15262">
        <ele>1744.45</ele>
        <time>2014-11-20T08:40:12Z</time>
      </trkpt>
      <trkpt lat="40.6177" lon="-4.15267">
        <ele>1743.97</ele>
        <time>2014-11-20T08:40:18Z</time>
      </trkpt>
      <trkpt lat="40.61776" lon="-4.15271">
        <ele>1743.97</ele>
        <time>2014-11-20T08:40:22Z</time>
      </trkpt>
      <trkpt lat="40.61786" lon="-4.15284">
        <ele>1743.01</ele>
        <time>2014-11-20T08:40:34Z</time>
      </trkpt>
      <trkpt lat="40.6179" lon="-4.15294">
        <ele>1742.53</ele>
        <time>2014-11-20T08:40:41Z</time>
      </trkpt>
      <trkpt lat="40.61793" lon="-4.153">
        <ele>1741.57</ele>
        <time>2014-11-20T08:40:45Z</time>
      </trkpt>
      <trkpt lat="40.61801" lon="-4.15326">
        <ele>1739.64</ele>
        <time>2014-11-20T08:41:02Z</time>
      </trkpt>
      <trkpt lat="40.61801" lon="-4.15328">
        <ele>1739.64</ele>
        <time>2014-11-20T08:41:03Z</time>
      </trkpt>
      <trkpt lat="40.61803" lon="-4.15334">
        <ele>1739.16</ele>
        <time>2014-11-20T08:41:07Z</time>
      </trkpt>
      <trkpt lat="40.61809" lon="-4.15347">
        <ele>1738.2</ele>
        <time>2014-11-20T08:41:16Z</time>
      </trkpt>
      <trkpt lat="40.61812" lon="-4.15354">
        <ele>1737.72</ele>
        <time>2014-11-20T08:41:21Z</time>
      </trkpt>
      <trkpt lat="40.61812" lon="-4.15361">
        <ele>1737.24</ele>
        <time>2014-11-20T08:41:25Z</time>
      </trkpt>
      <trkpt lat="40.61819" lon="-4.15388">
        <ele>1736.28</ele>
        <time>2014-11-20T08:41:41Z</time>
      </trkpt>
      <trkpt lat="40.61821" lon="-4.15394">
        <ele>1735.8</ele>
        <time>2014-11-20T08:41:45Z</time>
      </trkpt>
      <trkpt lat="40.61828" lon="-4.15418">
        <ele>1735.32</ele>
        <time>2014-11-20T08:42:00Z</time>
      </trkpt>
      <trkpt lat="40.61832" lon="-4.15437">
        <ele>1735.32</ele>
        <time>2014-11-20T08:42:14Z</time>
      </trkpt>
      <trkpt lat="40.61835" lon="-4.15439">
        <ele>1735.32</ele>
        <time>2014-11-20T08:42:28Z</time>
      </trkpt>
      <trkpt lat="40.61836" lon="-4.15441">
        <ele>1735.32</ele>
        <time>2014-11-20T08:42:31Z</time>
      </trkpt>
      <trkpt lat="40.61842" lon="-4.15457">
        <ele>1734.84</ele>
        <time>2014-11-20T08:42:43Z</time>
      </trkpt>
      <trkpt lat="40.61843" lon="-4.15461">
        <ele>1734.36</ele>
        <time>2014-11-20T08:42:47Z</time>
      </trkpt>
      <trkpt lat="40.61845" lon="-4.15466">
        <ele>1734.36</ele>
        <time>2014-11-20T08:42:51Z</time>
      </trkpt>
      <trkpt lat="40.61845" lon="-4.1547">
        <ele>1733.88</ele>
        <time>2014-11-20T08:42:54Z</time>
      </trkpt>
      <trkpt lat="40.61848" lon="-4.15489">
        <ele>1732.43</ele>
        <time>2014-11-20T08:43:10Z</time>
      </trkpt>
      <trkpt lat="40.61849" lon="-4.15492">
        <ele>1732.43</ele>
        <time>2014-11-20T08:43:12Z</time>
      </trkpt>
      <trkpt lat="40.61853" lon="-4.15515">
        <ele>1731.47</ele>
        <time>2014-11-20T08:43:29Z</time>
      </trkpt>
      <trkpt lat="40.61859" lon="-4.15541">
        <ele>1729.55</ele>
        <time>2014-11-20T08:43:46Z</time>
      </trkpt>
      <trkpt lat="40.6186" lon="-4.15545">
        <ele>1729.07</ele>
        <time>2014-11-20T08:43:49Z</time>
      </trkpt>
      <trkpt lat="40.61861" lon="-4.1555">
        <ele>1728.59</ele>
        <time>2014-11-20T08:43:53Z</time>
      </trkpt>
      <trkpt lat="40.61864" lon="-4.15557">
        <ele>1727.63</ele>
        <time>2014-11-20T08:43:58Z</time>
      </trkpt>
      <trkpt lat="40.61865" lon="-4.15562">
        <ele>1727.15</ele>
        <time>2014-11-20T08:44:02Z</time>
      </trkpt>
      <trkpt lat="40.61864" lon="-4.15568">
        <ele>1726.18</ele>
        <time>2014-11-20T08:44:06Z</time>
      </trkpt>
      <trkpt lat="40.61867" lon="-4.15578">
        <ele>1724.74</ele>
        <time>2014-11-20T08:44:13Z</time>
      </trkpt>
      <trkpt lat="40.61868" lon="-4.15579">
        <ele>1724.74</ele>
        <time>2014-11-20T08:44:14Z</time>
      </trkpt>
      <trkpt lat="40.61868" lon="-4.15587">
        <ele>1723.78</ele>
        <time>2014-11-20T08:44:27Z</time>
      </trkpt>
      <trkpt lat="40.61873" lon="-4.15605">
        <ele>1722.82</ele>
        <time>2014-11-20T08:44:39Z</time>
      </trkpt>
      <trkpt lat="40.6188" lon="-4.15632">
        <ele>1721.86</ele>
        <time>2014-11-20T08:44:56Z</time>
      </trkpt>
      <trkpt lat="40.6189" lon="-4.1566">
        <ele>1722.34</ele>
        <time>2014-11-20T08:45:14Z</time>
      </trkpt>
      <trkpt lat="40.61892" lon="-4.15663">
        <ele>1721.86</ele>
        <time>2014-11-20T08:45:16Z</time>
      </trkpt>
      <trkpt lat="40.61902" lon="-4.15682">
        <ele>1722.34</ele>
        <time>2014-11-20T08:45:33Z</time>
      </trkpt>
      <trkpt lat="40.61903" lon="-4.15682">
        <ele>1722.82</ele>
        <time>2014-11-20T08:45:47Z</time>
      </trkpt>
      <trkpt lat="40.61907" lon="-4.15699">
        <ele>1723.3</ele>
        <time>2014-11-20T08:45:58Z</time>
      </trkpt>
      <trkpt lat="40.6191" lon="-4.15703">
        <ele>1723.3</ele>
        <time>2014-11-20T08:46:01Z</time>
      </trkpt>
      <trkpt lat="40.61916" lon="-4.1571">
        <ele>1723.78</ele>
        <time>2014-11-20T08:46:09Z</time>
      </trkpt>
      <trkpt lat="40.61917" lon="-4.15707">
        <ele>1723.3</ele>
        <time>2014-11-20T08:46:18Z</time>
      </trkpt>
      <trkpt lat="40.61918" lon="-4.15708">
        <ele>1723.3</ele>
        <time>2014-11-20T08:46:54Z</time>
      </trkpt>
      <trkpt lat="40.61918" lon="-4.15707">
        <ele>1723.3</ele>
        <time>2014-11-20T08:47:12Z</time>
      </trkpt>
      <trkpt lat="40.6192" lon="-4.15708">
        <ele>1723.78</ele>
        <time>2014-11-20T08:47:44Z</time>
      </trkpt>
      <trkpt lat="40.61919" lon="-4.15709">
        <ele>1724.26</ele>
        <time>2014-11-20T08:47:53Z</time>
      </trkpt>
      <trkpt lat="40.61919" lon="-4.15708">
        <ele>1724.26</ele>
        <time>2014-11-20T08:48:02Z</time>
      </trkpt>
      <trkpt lat="40.61918" lon="-4.1571">
        <ele>1724.26</ele>
        <time>2014-11-20T08:48:04Z</time>
      </trkpt>
      <trkpt lat="40.61925" lon="-4.15739">
        <ele>1725.22</ele>
        <time>2014-11-20T08:48:23Z</time>
      </trkpt>
      <trkpt lat="40.61929" lon="-4.1575">
        <ele>1725.7</ele>
        <time>2014-11-20T08:48:30Z</time>
      </trkpt>
      <trkpt lat="40.61936" lon="-4.15771">
        <ele>1726.67</ele>
        <time>2014-11-20T08:48:46Z</time>
      </trkpt>
      <trkpt lat="40.61946" lon="-4.15788">
        <ele>1727.63</ele>
        <time>2014-11-20T08:49:00Z</time>
      </trkpt>
      <trkpt lat="40.61952" lon="-4.15812">
        <ele>1730.03</ele>
        <time>2014-11-20T08:49:17Z</time>
      </trkpt>
      <trkpt lat="40.61953" lon="-4.15816">
        <ele>1730.51</ele>
        <time>2014-11-20T08:49:20Z</time>
      </trkpt>
      <trkpt lat="40.61954" lon="-4.15819">
        <ele>1730.99</ele>
        <time>2014-11-20T08:49:22Z</time>
      </trkpt>
      <trkpt lat="40.61957" lon="-4.15825">
        <ele>1732.43</ele>
        <time>2014-11-20T08:49:28Z</time>
      </trkpt>
      <trkpt lat="40.61964" lon="-4.15833">
        <ele>1733.39</ele>
        <time>2014-11-20T08:49:36Z</time>
      </trkpt>
      <trkpt lat="40.61966" lon="-4.15835">
        <ele>1734.36</ele>
        <time>2014-11-20T08:49:39Z</time>
      </trkpt>
      <trkpt lat="40.61967" lon="-4.15837">
        <ele>1734.36</ele>
        <time>2014-11-20T08:49:41Z</time>
      </trkpt>
      <trkpt lat="40.6197" lon="-4.15841">
        <ele>1735.32</ele>
        <time>2014-11-20T08:49:44Z</time>
      </trkpt>
      <trkpt lat="40.61981" lon="-4.15857">
        <ele>1737.72</ele>
        <time>2014-11-20T08:49:58Z</time>
      </trkpt>
      <trkpt lat="40.61986" lon="-4.15865">
        <ele>1738.68</ele>
        <time>2014-11-20T08:50:05Z</time>
      </trkpt>
      <trkpt lat="40.61991" lon="-4.1587">
        <ele>1739.64</ele>
        <time>2014-11-20T08:50:10Z</time>
      </trkpt>
      <trkpt lat="40.61995" lon="-4.15878">
        <ele>1740.6</ele>
        <time>2014-11-20T08:50:17Z</time>
      </trkpt>
      <trkpt lat="40.61997" lon="-4.15885">
        <ele>1741.57</ele>
        <time>2014-11-20T08:50:22Z</time>
      </trkpt>
      <trkpt lat="40.61999" lon="-4.15893">
        <ele>1742.53</ele>
        <time>2014-11-20T08:50:28Z</time>
      </trkpt>
      <trkpt lat="40.62" lon="-4.15896">
        <ele>1743.01</ele>
        <time>2014-11-20T08:50:30Z</time>
      </trkpt>
      <trkpt lat="40.62004" lon="-4.15899">
        <ele>1743.49</ele>
        <time>2014-11-20T08:50:33Z</time>
      </trkpt>
      <trkpt lat="40.62005" lon="-4.15901">
        <ele>1743.97</ele>
        <time>2014-11-20T08:50:35Z</time>
      </trkpt>
      <trkpt lat="40.62008" lon="-4.15908">
        <ele>1744.45</ele>
        <time>2014-11-20T08:50:40Z</time>
      </trkpt>
      <trkpt lat="40.62014" lon="-4.15921">
        <ele>1745.41</ele>
        <time>2014-11-20T08:50:50Z</time>
      </trkpt>
      <trkpt lat="40.62021" lon="-4.15932">
        <ele>1745.41</ele>
        <time>2014-11-20T08:51:08Z</time>
      </trkpt>
      <trkpt lat="40.62029" lon="-4.15936">
        <ele>1744.93</ele>
        <time>2014-11-20T08:51:38Z</time>
      </trkpt>
      <trkpt lat="40.62047" lon="-4.15947">
        <ele>1744.45</ele>
        <time>2014-11-20T08:51:54Z</time>
      </trkpt>
      <trkpt lat="40.62066" lon="-4.15958">
        <ele>1743.01</ele>
        <time>2014-11-20T08:52:10Z</time>
      </trkpt>
      <trkpt lat="40.62079" lon="-4.15965">
        <ele>1742.05</ele>
        <time>2014-11-20T08:52:20Z</time>
      </trkpt>
      <trkpt lat="40.62085" lon="-4.15968">
        <ele>1742.05</ele>
        <time>2014-11-20T08:52:25Z</time>
      </trkpt>
      <trkpt lat="40.62104" lon="-4.15977">
        <ele>1740.6</ele>
        <time>2014-11-20T08:52:41Z</time>
      </trkpt>
      <trkpt lat="40.62105" lon="-4.15981">
        <ele>1740.12</ele>
        <time>2014-11-20T08:52:44Z</time>
      </trkpt>
      <trkpt lat="40.62109" lon="-4.15986">
        <ele>1739.16</ele>
        <time>2014-11-20T08:52:49Z</time>
      </trkpt>
      <trkpt lat="40.62114" lon="-4.15988">
        <ele>1738.2</ele>
        <time>2014-11-20T08:52:53Z</time>
      </trkpt>
      <trkpt lat="40.62129" lon="-4.15992">
        <ele>1736.76</ele>
        <time>2014-11-20T08:53:06Z</time>
      </trkpt>
      <trkpt lat="40.62134" lon="-4.15996">
        <ele>1735.8</ele>
        <time>2014-11-20T08:53:11Z</time>
      </trkpt>
      <trkpt lat="40.62146" lon="-4.16004">
        <ele>1733.39</ele>
        <time>2014-11-20T08:53:23Z</time>
      </trkpt>
      <trkpt lat="40.62156" lon="-4.15999">
        <ele>1732.43</ele>
        <time>2014-11-20T08:53:33Z</time>
      </trkpt>
      <trkpt lat="40.62162" lon="-4.16006">
        <ele>1730.99</ele>
        <time>2014-11-20T08:53:41Z</time>
      </trkpt>
      <trkpt lat="40.62165" lon="-4.16013">
        <ele>1729.55</ele>
        <time>2014-11-20T08:53:46Z</time>
      </trkpt>
      <trkpt lat="40.6217" lon="-4.16017">
        <ele>1729.07</ele>
        <time>2014-11-20T08:53:51Z</time>
      </trkpt>
      <trkpt lat="40.62178" lon="-4.16024">
        <ele>1727.15</ele>
        <time>2014-11-20T08:53:59Z</time>
      </trkpt>
      <trkpt lat="40.62185" lon="-4.16031">
        <ele>1726.18</ele>
        <time>2014-11-20T08:54:06Z</time>
      </trkpt>
      <trkpt lat="40.62197" lon="-4.16039">
        <ele>1724.26</ele>
        <time>2014-11-20T08:54:16Z</time>
      </trkpt>
      <trkpt lat="40.62217" lon="-4.16047">
        <ele>1721.38</ele>
        <time>2014-11-20T08:54:32Z</time>
      </trkpt>
      <trkpt lat="40.62235" lon="-4.16055">
        <ele>1718.97</ele>
        <time>2014-11-20T08:54:47Z</time>
      </trkpt>
      <trkpt lat="40.62236" lon="-4.16056">
        <ele>1718.49</ele>
        <time>2014-11-20T08:54:48Z</time>
      </trkpt>
      <trkpt lat="40.62248" lon="-4.16062">
        <ele>1716.57</ele>
        <time>2014-11-20T08:54:59Z</time>
      </trkpt>
      <trkpt lat="40.62254" lon="-4.16067">
        <ele>1715.13</ele>
        <time>2014-11-20T08:55:04Z</time>
      </trkpt>
      <trkpt lat="40.6226" lon="-4.16071">
        <ele>1714.65</ele>
        <time>2014-11-20T08:55:10Z</time>
      </trkpt>
      <trkpt lat="40.6228" lon="-4.16082">
        <ele>1712.73</ele>
        <time>2014-11-20T08:55:26Z</time>
      </trkpt>
      <trkpt lat="40.62297" lon="-4.16096">
        <ele>1709.84</ele>
        <time>2014-11-20T08:55:42Z</time>
      </trkpt>
      <trkpt lat="40.62315" lon="-4.16108">
        <ele>1708.4</ele>
        <time>2014-11-20T08:55:57Z</time>
      </trkpt>
      <trkpt lat="40.62334" lon="-4.16118">
        <ele>1707.92</ele>
        <time>2014-11-20T08:56:12Z</time>
      </trkpt>
      <trkpt lat="40.62345" lon="-4.16122">
        <ele>1707.92</ele>
        <time>2014-11-20T08:56:28Z</time>
      </trkpt>
      <trkpt lat="40.62347" lon="-4.16121">
        <ele>1707.44</ele>
        <time>2014-11-20T08:56:38Z</time>
      </trkpt>
      <trkpt lat="40.6235" lon="-4.16119">
        <ele>1707.44</ele>
        <time>2014-11-20T08:56:51Z</time>
      </trkpt>
      <trkpt lat="40.62348" lon="-4.16122">
        <ele>1707.44</ele>
        <time>2014-11-20T08:57:06Z</time>
      </trkpt>
      <trkpt lat="40.62351" lon="-4.16129">
        <ele>1707.92</ele>
        <time>2014-11-20T08:57:16Z</time>
      </trkpt>
      <trkpt lat="40.62352" lon="-4.16129">
        <ele>1707.92</ele>
        <time>2014-11-20T08:57:30Z</time>
      </trkpt>
      <trkpt lat="40.6235" lon="-4.16131">
        <ele>1707.92</ele>
        <time>2014-11-20T08:57:45Z</time>
      </trkpt>
      <trkpt lat="40.62353" lon="-4.16136">
        <ele>1707.92</ele>
        <time>2014-11-20T08:57:50Z</time>
      </trkpt>
      <trkpt lat="40.62363" lon="-4.16143">
        <ele>1707.92</ele>
        <time>2014-11-20T08:57:59Z</time>
      </trkpt>
      <trkpt lat="40.62376" lon="-4.16155">
        <ele>1709.36</ele>
        <time>2014-11-20T08:58:12Z</time>
      </trkpt>
      <trkpt lat="40.6238" lon="-4.16157">
        <ele>1710.8</ele>
        <time>2014-11-20T08:58:15Z</time>
      </trkpt>
      <trkpt lat="40.62385" lon="-4.16162">
        <ele>1710.32</ele>
        <time>2014-11-20T08:58:20Z</time>
      </trkpt>
      <trkpt lat="40.62398" lon="-4.16169">
        <ele>1711.76</ele>
        <time>2014-11-20T08:58:31Z</time>
      </trkpt>
      <trkpt lat="40.62415" lon="-4.16181">
        <ele>1713.69</ele>
        <time>2014-11-20T08:58:46Z</time>
      </trkpt>
      <trkpt lat="40.62429" lon="-4.16192">
        <ele>1716.09</ele>
        <time>2014-11-20T08:59:00Z</time>
      </trkpt>
      <trkpt lat="40.62431" lon="-4.16193">
        <ele>1716.09</ele>
        <time>2014-11-20T08:59:02Z</time>
      </trkpt>
      <trkpt lat="40.62442" lon="-4.16198">
        <ele>1717.53</ele>
        <time>2014-11-20T08:59:12Z</time>
      </trkpt>
      <trkpt lat="40.62445" lon="-4.162">
        <ele>1718.01</ele>
        <time>2014-11-20T08:59:15Z</time>
      </trkpt>
      <trkpt lat="40.62448" lon="-4.16201">
        <ele>1718.49</ele>
        <time>2014-11-20T08:59:18Z</time>
      </trkpt>
      <trkpt lat="40.62451" lon="-4.16205">
        <ele>1718.97</ele>
        <time>2014-11-20T08:59:22Z</time>
      </trkpt>
      <trkpt lat="40.62457" lon="-4.1621">
        <ele>1719.46</ele>
        <time>2014-11-20T08:59:28Z</time>
      </trkpt>
      <trkpt lat="40.6247" lon="-4.16221">
        <ele>1721.38</ele>
        <time>2014-11-20T08:59:41Z</time>
      </trkpt>
      <trkpt lat="40.6249" lon="-4.16236">
        <ele>1722.82</ele>
        <time>2014-11-20T08:59:58Z</time>
      </trkpt>
      <trkpt lat="40.62507" lon="-4.16251">
        <ele>1724.26</ele>
        <time>2014-11-20T09:00:14Z</time>
      </trkpt>
      <trkpt lat="40.62526" lon="-4.16264">
        <ele>1725.22</ele>
        <time>2014-11-20T09:00:30Z</time>
      </trkpt>
      <trkpt lat="40.62549" lon="-4.16278">
        <ele>1726.67</ele>
        <time>2014-11-20T09:00:48Z</time>
      </trkpt>
      <trkpt lat="40.62567" lon="-4.16301">
        <ele>1726.18</ele>
        <time>2014-11-20T09:01:06Z</time>
      </trkpt>
      <trkpt lat="40.62571" lon="-4.16332">
        <ele>1726.18</ele>
        <time>2014-11-20T09:01:22Z</time>
      </trkpt>
      <trkpt lat="40.62581" lon="-4.16363">
        <ele>1726.67</ele>
        <time>2014-11-20T09:01:39Z</time>
      </trkpt>
      <trkpt lat="40.62582" lon="-4.1638">
        <ele>1727.63</ele>
        <time>2014-11-20T09:01:48Z</time>
      </trkpt>
      <trkpt lat="40.62586" lon="-4.16408">
        <ele>1729.55</ele>
        <time>2014-11-20T09:02:03Z</time>
      </trkpt>
      <trkpt lat="40.6259" lon="-4.16437">
        <ele>1730.51</ele>
        <time>2014-11-20T09:02:18Z</time>
      </trkpt>
      <trkpt lat="40.62593" lon="-4.16459">
        <ele>1730.51</ele>
        <time>2014-11-20T09:02:32Z</time>
      </trkpt>
      <trkpt lat="40.62593" lon="-4.1649">
        <ele>1730.03</ele>
        <time>2014-11-20T09:02:51Z</time>
      </trkpt>
      <trkpt lat="40.62593" lon="-4.16523">
        <ele>1728.11</ele>
        <time>2014-11-20T09:03:09Z</time>
      </trkpt>
      <trkpt lat="40.62588" lon="-4.16557">
        <ele>1727.15</ele>
        <time>2014-11-20T09:03:27Z</time>
      </trkpt>
      <trkpt lat="40.62586" lon="-4.16576">
        <ele>1727.63</ele>
        <time>2014-11-20T09:03:37Z</time>
      </trkpt>
      <trkpt lat="40.62587" lon="-4.16579">
        <ele>1727.15</ele>
        <time>2014-11-20T09:03:39Z</time>
      </trkpt>
      <trkpt lat="40.62586" lon="-4.1661">
        <ele>1727.15</ele>
        <time>2014-11-20T09:03:56Z</time>
      </trkpt>
      <trkpt lat="40.62584" lon="-4.16646">
        <ele>1729.07</ele>
        <time>2014-11-20T09:04:16Z</time>
      </trkpt>
      <trkpt lat="40.62585" lon="-4.16676">
        <ele>1730.99</ele>
        <time>2014-11-20T09:04:32Z</time>
      </trkpt>
      <trkpt lat="40.62585" lon="-4.16703">
        <ele>1732.43</ele>
        <time>2014-11-20T09:04:48Z</time>
      </trkpt>
      <trkpt lat="40.62587" lon="-4.16735">
        <ele>1733.39</ele>
        <time>2014-11-20T09:05:06Z</time>
      </trkpt>
      <trkpt lat="40.6259" lon="-4.16764">
        <ele>1733.88</ele>
        <time>2014-11-20T09:05:22Z</time>
      </trkpt>
      <trkpt lat="40.62592" lon="-4.16781">
        <ele>1733.88</ele>
        <time>2014-11-20T09:05:31Z</time>
      </trkpt>
      <trkpt lat="40.62593" lon="-4.16814">
        <ele>1735.32</ele>
        <time>2014-11-20T09:05:49Z</time>
      </trkpt>
      <trkpt lat="40.62597" lon="-4.16843">
        <ele>1736.76</ele>
        <time>2014-11-20T09:06:06Z</time>
      </trkpt>
      <trkpt lat="40.626" lon="-4.16856">
        <ele>1737.24</ele>
        <time>2014-11-20T09:06:18Z</time>
      </trkpt>
      <trkpt lat="40.62602" lon="-4.16864">
        <ele>1737.24</ele>
        <time>2014-11-20T09:06:23Z</time>
      </trkpt>
      <trkpt lat="40.62608" lon="-4.16873">
        <ele>1738.2</ele>
        <time>2014-11-20T09:06:29Z</time>
      </trkpt>
      <trkpt lat="40.62609" lon="-4.16874">
        <ele>1739.16</ele>
        <time>2014-11-20T09:06:44Z</time>
      </trkpt>
      <trkpt lat="40.62611" lon="-4.16877">
        <ele>1739.16</ele>
        <time>2014-11-20T09:06:56Z</time>
      </trkpt>
      <trkpt lat="40.6261" lon="-4.16877">
        <ele>1739.64</ele>
        <time>2014-11-20T09:07:13Z</time>
      </trkpt>
      <trkpt lat="40.62611" lon="-4.16877">
        <ele>1739.16</ele>
        <time>2014-11-20T09:07:34Z</time>
      </trkpt>
      <trkpt lat="40.62609" lon="-4.16878">
        <ele>1738.68</ele>
        <time>2014-11-20T09:07:50Z</time>
      </trkpt>
      <trkpt lat="40.62608" lon="-4.16886">
        <ele>1737.72</ele>
        <time>2014-11-20T09:07:55Z</time>
      </trkpt>
      <trkpt lat="40.62625" lon="-4.16909">
        <ele>1736.28</ele>
        <time>2014-11-20T09:08:12Z</time>
      </trkpt>
      <trkpt lat="40.62652" lon="-4.16922">
        <ele>1734.36</ele>
        <time>2014-11-20T09:08:31Z</time>
      </trkpt>
      <trkpt lat="40.62675" lon="-4.16938">
        <ele>1733.39</ele>
        <time>2014-11-20T09:08:48Z</time>
      </trkpt>
      <trkpt lat="40.62699" lon="-4.16953">
        <ele>1730.03</ele>
        <time>2014-11-20T09:09:06Z</time>
      </trkpt>
      <trkpt lat="40.62711" lon="-4.16962">
        <ele>1728.59</ele>
        <time>2014-11-20T09:09:16Z</time>
      </trkpt>
      <trkpt lat="40.62714" lon="-4.16967">
        <ele>1728.11</ele>
        <time>2014-11-20T09:09:20Z</time>
      </trkpt>
      <trkpt lat="40.62734" lon="-4.16987">
        <ele>1724.74</ele>
        <time>2014-11-20T09:09:38Z</time>
      </trkpt>
      <trkpt lat="40.62749" lon="-4.17006">
        <ele>1722.34</ele>
        <time>2014-11-20T09:09:53Z</time>
      </trkpt>
      <trkpt lat="40.62762" lon="-4.1702">
        <ele>1719.94</ele>
        <time>2014-11-20T09:10:06Z</time>
      </trkpt>
      <trkpt lat="40.62767" lon="-4.17033">
        <ele>1718.49</ele>
        <time>2014-11-20T09:10:14Z</time>
      </trkpt>
      <trkpt lat="40.62782" lon="-4.17053">
        <ele>1715.13</ele>
        <time>2014-11-20T09:10:30Z</time>
      </trkpt>
      <trkpt lat="40.62783" lon="-4.17055">
        <ele>1715.13</ele>
        <time>2014-11-20T09:10:32Z</time>
      </trkpt>
      <trkpt lat="40.62796" lon="-4.1708">
        <ele>1712.73</ele>
        <time>2014-11-20T09:10:47Z</time>
      </trkpt>
      <trkpt lat="40.62811" lon="-4.17104">
        <ele>1710.32</ele>
        <time>2014-11-20T09:11:04Z</time>
      </trkpt>
      <trkpt lat="40.62823" lon="-4.17128">
        <ele>1708.4</ele>
        <time>2014-11-20T09:11:20Z</time>
      </trkpt>
      <trkpt lat="40.62838" lon="-4.17142">
        <ele>1707.92</ele>
        <time>2014-11-20T09:11:37Z</time>
      </trkpt>
      <trkpt lat="40.62839" lon="-4.17144">
        <ele>1706.96</ele>
        <time>2014-11-20T09:11:47Z</time>
      </trkpt>
      <trkpt lat="40.62848" lon="-4.1717">
        <ele>1706</ele>
        <time>2014-11-20T09:12:02Z</time>
      </trkpt>
      <trkpt lat="40.62861" lon="-4.17196">
        <ele>1704.07</ele>
        <time>2014-11-20T09:12:18Z</time>
      </trkpt>
      <trkpt lat="40.62873" lon="-4.17205">
        <ele>1701.67</ele>
        <time>2014-11-20T09:12:29Z</time>
      </trkpt>
      <trkpt lat="40.62875" lon="-4.17215">
        <ele>1701.67</ele>
        <time>2014-11-20T09:12:35Z</time>
      </trkpt>
      <trkpt lat="40.62878" lon="-4.17225">
        <ele>1700.71</ele>
        <time>2014-11-20T09:12:41Z</time>
      </trkpt>
      <trkpt lat="40.62883" lon="-4.17233">
        <ele>1699.75</ele>
        <time>2014-11-20T09:12:47Z</time>
      </trkpt>
      <trkpt lat="40.62886" lon="-4.17237">
        <ele>1698.79</ele>
        <time>2014-11-20T09:12:51Z</time>
      </trkpt>
      <trkpt lat="40.62897" lon="-4.17246">
        <ele>1695.9</ele>
        <time>2014-11-20T09:13:03Z</time>
      </trkpt>
      <trkpt lat="40.62899" lon="-4.17255">
        <ele>1694.46</ele>
        <time>2014-11-20T09:13:09Z</time>
      </trkpt>
      <trkpt lat="40.62901" lon="-4.17261">
        <ele>1693.5</ele>
        <time>2014-11-20T09:13:14Z</time>
      </trkpt>
      <trkpt lat="40.62904" lon="-4.1727">
        <ele>1692.06</ele>
        <time>2014-11-20T09:13:21Z</time>
      </trkpt>
      <trkpt lat="40.62914" lon="-4.17285">
        <ele>1689.17</ele>
        <time>2014-11-20T09:13:35Z</time>
      </trkpt>
      <trkpt lat="40.62917" lon="-4.17295">
        <ele>1688.21</ele>
        <time>2014-11-20T09:13:47Z</time>
      </trkpt>
      <trkpt lat="40.6292" lon="-4.17304">
        <ele>1686.77</ele>
        <time>2014-11-20T09:14:00Z</time>
      </trkpt>
      <trkpt lat="40.6293" lon="-4.17309">
        <ele>1683.89</ele>
        <time>2014-11-20T09:14:13Z</time>
      </trkpt>
      <trkpt lat="40.62937" lon="-4.17311">
        <ele>1681.48</ele>
        <time>2014-11-20T09:14:20Z</time>
      </trkpt>
      <trkpt lat="40.62941" lon="-4.17314">
        <ele>1680.04</ele>
        <time>2014-11-20T09:14:24Z</time>
      </trkpt>
      <trkpt lat="40.62949" lon="-4.17321">
        <ele>1676.2</ele>
        <time>2014-11-20T09:14:36Z</time>
      </trkpt>
      <trkpt lat="40.62958" lon="-4.17323">
        <ele>1673.31</ele>
        <time>2014-11-20T09:14:47Z</time>
      </trkpt>
      <trkpt lat="40.62961" lon="-4.17322">
        <ele>1672.35</ele>
        <time>2014-11-20T09:14:49Z</time>
      </trkpt>
      <trkpt lat="40.62971" lon="-4.17318">
        <ele>1668.99</ele>
        <time>2014-11-20T09:15:00Z</time>
      </trkpt>
      <trkpt lat="40.6298" lon="-4.17312">
        <ele>1665.62</ele>
        <time>2014-11-20T09:15:10Z</time>
      </trkpt>
      <trkpt lat="40.62989" lon="-4.17311">
        <ele>1664.18</ele>
        <time>2014-11-20T09:15:25Z</time>
      </trkpt>
      <trkpt lat="40.62998" lon="-4.17311">
        <ele>1660.81</ele>
        <time>2014-11-20T09:15:42Z</time>
      </trkpt>
      <trkpt lat="40.63007" lon="-4.17314">
        <ele>1657.45</ele>
        <time>2014-11-20T09:15:53Z</time>
      </trkpt>
      <trkpt lat="40.63014" lon="-4.17315">
        <ele>1655.53</ele>
        <time>2014-11-20T09:16:00Z</time>
      </trkpt>
      <trkpt lat="40.63016" lon="-4.17317">
        <ele>1655.53</ele>
        <time>2014-11-20T09:16:03Z</time>
      </trkpt>
      <trkpt lat="40.63025" lon="-4.17318">
        <ele>1653.12</ele>
        <time>2014-11-20T09:16:12Z</time>
      </trkpt>
      <trkpt lat="40.63036" lon="-4.17314">
        <ele>1650.24</ele>
        <time>2014-11-20T09:16:23Z</time>
      </trkpt>
      <trkpt lat="40.63037" lon="-4.17314">
        <ele>1650.24</ele>
        <time>2014-11-20T09:16:24Z</time>
      </trkpt>
      <trkpt lat="40.63055" lon="-4.17314">
        <ele>1646.88</ele>
        <time>2014-11-20T09:16:39Z</time>
      </trkpt>
      <trkpt lat="40.63066" lon="-4.17319">
        <ele>1643.99</ele>
        <time>2014-11-20T09:16:50Z</time>
      </trkpt>
      <trkpt lat="40.63088" lon="-4.17317">
        <ele>1640.63</ele>
        <time>2014-11-20T09:17:07Z</time>
      </trkpt>
      <trkpt lat="40.63091" lon="-4.17318">
        <ele>1640.63</ele>
        <time>2014-11-20T09:17:08Z</time>
      </trkpt>
      <trkpt lat="40.63108" lon="-4.17317">
        <ele>1637.74</ele>
        <time>2014-11-20T09:17:21Z</time>
      </trkpt>
      <trkpt lat="40.63129" lon="-4.17314">
        <ele>1635.34</ele>
        <time>2014-11-20T09:17:36Z</time>
      </trkpt>
      <trkpt lat="40.63135" lon="-4.17311">
        <ele>1634.86</ele>
        <time>2014-11-20T09:17:41Z</time>
      </trkpt>
      <trkpt lat="40.63155" lon="-4.17304">
        <ele>1633.42</ele>
        <time>2014-11-20T09:17:55Z</time>
      </trkpt>
      <trkpt lat="40.63178" lon="-4.17291">
        <ele>1632.94</ele>
        <time>2014-11-20T09:18:13Z</time>
      </trkpt>
      <trkpt lat="40.63192" lon="-4.17274">
        <ele>1631.98</ele>
        <time>2014-11-20T09:18:27Z</time>
      </trkpt>
      <trkpt lat="40.63207" lon="-4.17253">
        <ele>1631.49</ele>
        <time>2014-11-20T09:18:41Z</time>
      </trkpt>
      <trkpt lat="40.63212" lon="-4.17247">
        <ele>1631.49</ele>
        <time>2014-11-20T09:18:46Z</time>
      </trkpt>
      <trkpt lat="40.63221" lon="-4.17241">
        <ele>1630.53</ele>
        <time>2014-11-20T09:18:53Z</time>
      </trkpt>
      <trkpt lat="40.63239" lon="-4.17233">
        <ele>1629.09</ele>
        <time>2014-11-20T09:19:08Z</time>
      </trkpt>
      <trkpt lat="40.63255" lon="-4.17215">
        <ele>1629.09</ele>
        <time>2014-11-20T09:19:23Z</time>
      </trkpt>
      <trkpt lat="40.63266" lon="-4.17212">
        <ele>1628.61</ele>
        <time>2014-11-20T09:19:31Z</time>
      </trkpt>
      <trkpt lat="40.63285" lon="-4.17208">
        <ele>1627.17</ele>
        <time>2014-11-20T09:19:46Z</time>
      </trkpt>
      <trkpt lat="40.63302" lon="-4.17196">
        <ele>1627.17</ele>
        <time>2014-11-20T09:19:58Z</time>
      </trkpt>
      <trkpt lat="40.63307" lon="-4.17194">
        <ele>1626.69</ele>
        <time>2014-11-20T09:20:02Z</time>
      </trkpt>
      <trkpt lat="40.63325" lon="-4.1718">
        <ele>1627.17</ele>
        <time>2014-11-20T09:20:16Z</time>
      </trkpt>
      <trkpt lat="40.63333" lon="-4.17177">
        <ele>1626.69</ele>
        <time>2014-11-20T09:20:22Z</time>
      </trkpt>
      <trkpt lat="40.63339" lon="-4.17175">
        <ele>1626.69</ele>
        <time>2014-11-20T09:20:26Z</time>
      </trkpt>
      <trkpt lat="40.63347" lon="-4.17165">
        <ele>1626.69</ele>
        <time>2014-11-20T09:20:32Z</time>
      </trkpt>
      <trkpt lat="40.63367" lon="-4.17152">
        <ele>1628.13</ele>
        <time>2014-11-20T09:20:49Z</time>
      </trkpt>
      <trkpt lat="40.63369" lon="-4.1715">
        <ele>1627.65</ele>
        <time>2014-11-20T09:20:51Z</time>
      </trkpt>
      <trkpt lat="40.63377" lon="-4.17153">
        <ele>1626.69</ele>
        <time>2014-11-20T09:20:58Z</time>
      </trkpt>
      <trkpt lat="40.63387" lon="-4.17153">
        <ele>1625.73</ele>
        <time>2014-11-20T09:21:06Z</time>
      </trkpt>
      <trkpt lat="40.63402" lon="-4.17155">
        <ele>1624.77</ele>
        <time>2014-11-20T09:21:19Z</time>
      </trkpt>
      <trkpt lat="40.63419" lon="-4.17139">
        <ele>1623.32</ele>
        <time>2014-11-20T09:21:35Z</time>
      </trkpt>
      <trkpt lat="40.6344" lon="-4.17134">
        <ele>1622.84</ele>
        <time>2014-11-20T09:21:51Z</time>
      </trkpt>
      <trkpt lat="40.63452" lon="-4.17135">
        <ele>1622.84</ele>
        <time>2014-11-20T09:21:59Z</time>
      </trkpt>
      <trkpt lat="40.6346" lon="-4.17141">
        <ele>1623.32</ele>
        <time>2014-11-20T09:22:06Z</time>
      </trkpt>
      <trkpt lat="40.63479" lon="-4.17132">
        <ele>1623.32</ele>
        <time>2014-11-20T09:22:20Z</time>
      </trkpt>
      <trkpt lat="40.63493" lon="-4.17109">
        <ele>1623.32</ele>
        <time>2014-11-20T09:22:36Z</time>
      </trkpt>
      <trkpt lat="40.63513" lon="-4.17099">
        <ele>1621.88</ele>
        <time>2014-11-20T09:22:51Z</time>
      </trkpt>
      <trkpt lat="40.63516" lon="-4.17098">
        <ele>1621.88</ele>
        <time>2014-11-20T09:22:53Z</time>
      </trkpt>
      <trkpt lat="40.63533" lon="-4.17095">
        <ele>1620.44</ele>
        <time>2014-11-20T09:23:06Z</time>
      </trkpt>
      <trkpt lat="40.63535" lon="-4.17098">
        <ele>1619.96</ele>
        <time>2014-11-20T09:23:08Z</time>
      </trkpt>
      <trkpt lat="40.63546" lon="-4.17122">
        <ele>1617.07</ele>
        <time>2014-11-20T09:23:23Z</time>
      </trkpt>
      <trkpt lat="40.63551" lon="-4.17124">
        <ele>1616.59</ele>
        <time>2014-11-20T09:23:27Z</time>
      </trkpt>
      <trkpt lat="40.63557" lon="-4.1712">
        <ele>1615.63</ele>
        <time>2014-11-20T09:23:31Z</time>
      </trkpt>
      <trkpt lat="40.63564" lon="-4.17117">
        <ele>1615.15</ele>
        <time>2014-11-20T09:23:36Z</time>
      </trkpt>
      <trkpt lat="40.63574" lon="-4.17115">
        <ele>1615.63</ele>
        <time>2014-11-20T09:23:43Z</time>
      </trkpt>
      <trkpt lat="40.63593" lon="-4.17114">
        <ele>1614.67</ele>
        <time>2014-11-20T09:23:56Z</time>
      </trkpt>
      <trkpt lat="40.63595" lon="-4.17116">
        <ele>1614.67</ele>
        <time>2014-11-20T09:23:58Z</time>
      </trkpt>
      <trkpt lat="40.63613" lon="-4.17117">
        <ele>1613.23</ele>
        <time>2014-11-20T09:24:12Z</time>
      </trkpt>
      <trkpt lat="40.63622" lon="-4.17119">
        <ele>1612.75</ele>
        <time>2014-11-20T09:24:24Z</time>
      </trkpt>
      <trkpt lat="40.63623" lon="-4.17119">
        <ele>1612.75</ele>
        <time>2014-11-20T09:24:29Z</time>
      </trkpt>
      <trkpt lat="40.63628" lon="-4.17124">
        <ele>1612.27</ele>
        <time>2014-11-20T09:24:34Z</time>
      </trkpt>
      <trkpt lat="40.63634" lon="-4.17124">
        <ele>1613.23</ele>
        <time>2014-11-20T09:24:39Z</time>
      </trkpt>
      <trkpt lat="40.63641" lon="-4.17116">
        <ele>1614.19</ele>
        <time>2014-11-20T09:24:53Z</time>
      </trkpt>
      <trkpt lat="40.6364" lon="-4.17119">
        <ele>1613.71</ele>
        <time>2014-11-20T09:24:59Z</time>
      </trkpt>
      <trkpt lat="40.63636" lon="-4.17124">
        <ele>1613.23</ele>
        <time>2014-11-20T09:25:05Z</time>
      </trkpt>
      <trkpt lat="40.63639" lon="-4.17132">
        <ele>1612.75</ele>
        <time>2014-11-20T09:25:10Z</time>
      </trkpt>
      <trkpt lat="40.63641" lon="-4.17129">
        <ele>1613.71</ele>
        <time>2014-11-20T09:25:25Z</time>
      </trkpt>
      <trkpt lat="40.63638" lon="-4.17126">
        <ele>1611.31</ele>
        <time>2014-11-20T09:25:35Z</time>
      </trkpt>
      <trkpt lat="40.63637" lon="-4.17128">
        <ele>1611.31</ele>
        <time>2014-11-20T09:25:39Z</time>
      </trkpt>
      <trkpt lat="40.63635" lon="-4.17132">
        <ele>1612.75</ele>
        <time>2014-11-20T09:25:42Z</time>
      </trkpt>
      <trkpt lat="40.63636" lon="-4.17141">
        <ele>1612.27</ele>
        <time>2014-11-20T09:25:53Z</time>
      </trkpt>
      <trkpt lat="40.63638" lon="-4.17139">
        <ele>1612.27</ele>
        <time>2014-11-20T09:26:09Z</time>
      </trkpt>
      <trkpt lat="40.63638" lon="-4.17129">
        <ele>1612.75</ele>
        <time>2014-11-20T09:26:22Z</time>
      </trkpt>
      <trkpt lat="40.63638" lon="-4.1713">
        <ele>1612.75</ele>
        <time>2014-11-20T09:26:39Z</time>
      </trkpt>
      <trkpt lat="40.63636" lon="-4.17131">
        <ele>1612.27</ele>
        <time>2014-11-20T09:26:52Z</time>
      </trkpt>
      <trkpt lat="40.63634" lon="-4.17132">
        <ele>1611.79</ele>
        <time>2014-11-20T09:27:09Z</time>
      </trkpt>
      <trkpt lat="40.63627" lon="-4.17137">
        <ele>1611.79</ele>
        <time>2014-11-20T09:27:43Z</time>
      </trkpt>
      <trkpt lat="40.63623" lon="-4.17136">
        <ele>1611.79</ele>
        <time>2014-11-20T09:28:17Z</time>
      </trkpt>
      <trkpt lat="40.63628" lon="-4.1714">
        <ele>1611.31</ele>
        <time>2014-11-20T09:28:52Z</time>
      </trkpt>
      <trkpt lat="40.63631" lon="-4.17139">
        <ele>1611.31</ele>
        <time>2014-11-20T09:29:28Z</time>
      </trkpt>
      <trkpt lat="40.63631" lon="-4.17137">
        <ele>1610.83</ele>
        <time>2014-11-20T09:30:07Z</time>
      </trkpt>
      <trkpt lat="40.63629" lon="-4.17137">
        <ele>1610.83</ele>
        <time>2014-11-20T09:30:39Z</time>
      </trkpt>
      <trkpt lat="40.63632" lon="-4.17138">
        <ele>1610.83</ele>
        <time>2014-11-20T09:31:14Z</time>
      </trkpt>
      <trkpt lat="40.63631" lon="-4.17137">
        <ele>1610.35</ele>
        <time>2014-11-20T09:31:49Z</time>
      </trkpt>
      <trkpt lat="40.63628" lon="-4.17141">
        <ele>1610.83</ele>
        <time>2014-11-20T09:32:15Z</time>
      </trkpt>
      <trkpt lat="40.6363" lon="-4.17141">
        <ele>1610.83</ele>
        <time>2014-11-20T09:32:38Z</time>
      </trkpt>
      <trkpt lat="40.6363" lon="-4.17144">
        <ele>1610.83</ele>
        <time>2014-11-20T09:33:15Z</time>
      </trkpt>
      <trkpt lat="40.63632" lon="-4.17141">
        <ele>1611.31</ele>
        <time>2014-11-20T09:33:54Z</time>
      </trkpt>
      <trkpt lat="40.63632" lon="-4.17139">
        <ele>1611.31</ele>
        <time>2014-11-20T09:34:26Z</time>
      </trkpt>
      <trkpt lat="40.63628" lon="-4.17139">
        <ele>1611.31</ele>
        <time>2014-11-20T09:35:06Z</time>
      </trkpt>
      <trkpt lat="40.63629" lon="-4.17143">
        <ele>1611.79</ele>
        <time>2014-11-20T09:35:45Z</time>
      </trkpt>
      <trkpt lat="40.6363" lon="-4.17139">
        <ele>1612.27</ele>
        <time>2014-11-20T09:36:15Z</time>
      </trkpt>
      <trkpt lat="40.63628" lon="-4.17141">
        <ele>1612.27</ele>
        <time>2014-11-20T09:36:53Z</time>
      </trkpt>
      <trkpt lat="40.6363" lon="-4.17139">
        <ele>1612.27</ele>
        <time>2014-11-20T09:37:28Z</time>
      </trkpt>
      <trkpt lat="40.63631" lon="-4.17135">
        <ele>1612.27</ele>
        <time>2014-11-20T09:38:07Z</time>
      </trkpt>
      <trkpt lat="40.63634" lon="-4.17128">
        <ele>1612.27</ele>
        <time>2014-11-20T09:38:35Z</time>
      </trkpt>
      <trkpt lat="40.63631" lon="-4.17127">
        <ele>1612.27</ele>
        <time>2014-11-20T09:39:13Z</time>
      </trkpt>
      <trkpt lat="40.63632" lon="-4.17123">
        <ele>1612.27</ele>
        <time>2014-11-20T09:39:47Z</time>
      </trkpt>
      <trkpt lat="40.63636" lon="-4.17119">
        <ele>1611.79</ele>
        <time>2014-11-20T09:40:23Z</time>
      </trkpt>
      <trkpt lat="40.63637" lon="-4.17124">
        <ele>1611.79</ele>
        <time>2014-11-20T09:40:56Z</time>
      </trkpt>
      <trkpt lat="40.63641" lon="-4.17124">
        <ele>1611.79</ele>
        <time>2014-11-20T09:41:27Z</time>
      </trkpt>
      <trkpt lat="40.63639" lon="-4.17124">
        <ele>1611.79</ele>
        <time>2014-11-20T09:42:00Z</time>
      </trkpt>
      <trkpt lat="40.63638" lon="-4.17123">
        <ele>1611.31</ele>
        <time>2014-11-20T09:42:36Z</time>
      </trkpt>
      <trkpt lat="40.63641" lon="-4.17129">
        <ele>1611.31</ele>
        <time>2014-11-20T09:43:08Z</time>
      </trkpt>
      <trkpt lat="40.63639" lon="-4.17127">
        <ele>1611.31</ele>
        <time>2014-11-20T09:43:32Z</time>
      </trkpt>
      <trkpt lat="40.63639" lon="-4.1713">
        <ele>1611.31</ele>
        <time>2014-11-20T09:43:59Z</time>
      </trkpt>
      <trkpt lat="40.6364" lon="-4.17127">
        <ele>1611.79</ele>
        <time>2014-11-20T09:44:31Z</time>
      </trkpt>
      <trkpt lat="40.63637" lon="-4.1713">
        <ele>1611.31</ele>
        <time>2014-11-20T09:44:53Z</time>
      </trkpt>
      <trkpt lat="40.63638" lon="-4.1713">
        <ele>1611.31</ele>
        <time>2014-11-20T09:45:17Z</time>
      </trkpt>
      <trkpt lat="40.63638" lon="-4.1713">
        <ele>1611.31</ele>
        <time>2014-11-20T09:45:45Z</time>
      </trkpt>
      <trkpt lat="40.63635" lon="-4.17132">
        <ele>1611.79</ele>
        <time>2014-11-20T09:46:04Z</time>
      </trkpt>
      <trkpt lat="40.63635" lon="-4.1713">
        <ele>1611.79</ele>
        <time>2014-11-20T09:46:18Z</time>
      </trkpt>
      <trkpt lat="40.63634" lon="-4.17126">
        <ele>1612.27</ele>
        <time>2014-11-20T09:46:37Z</time>
      </trkpt>
      <trkpt lat="40.63631" lon="-4.17133">
        <ele>1611.79</ele>
        <time>2014-11-20T09:46:52Z</time>
      </trkpt>
      <trkpt lat="40.63632" lon="-4.17135">
        <ele>1611.79</ele>
        <time>2014-11-20T09:46:54Z</time>
      </trkpt>
      <trkpt lat="40.63632" lon="-4.17139">
        <ele>1611.79</ele>
        <time>2014-11-20T09:47:02Z</time>
      </trkpt>
      <trkpt lat="40.63649" lon="-4.17144">
        <ele>1611.79</ele>
        <time>2014-11-20T09:47:15Z</time>
      </trkpt>
      <trkpt lat="40.6366" lon="-4.17146">
        <ele>1611.31</ele>
        <time>2014-11-20T09:47:24Z</time>
      </trkpt>
      <trkpt lat="40.63663" lon="-4.17147">
        <ele>1612.27</ele>
        <time>2014-11-20T09:47:35Z</time>
      </trkpt>
      <trkpt lat="40.63664" lon="-4.17147">
        <ele>1612.27</ele>
        <time>2014-11-20T09:48:08Z</time>
      </trkpt>
      <trkpt lat="40.63663" lon="-4.17149">
        <ele>1611.79</ele>
        <time>2014-11-20T09:48:30Z</time>
      </trkpt>
      <trkpt lat="40.63664" lon="-4.17145">
        <ele>1611.79</ele>
        <time>2014-11-20T09:48:56Z</time>
      </trkpt>
      <trkpt lat="40.63665" lon="-4.17145">
        <ele>1611.31</ele>
        <time>2014-11-20T09:49:12Z</time>
      </trkpt>
      <trkpt lat="40.63663" lon="-4.17145">
        <ele>1611.31</ele>
        <time>2014-11-20T09:49:32Z</time>
      </trkpt>
      <trkpt lat="40.63659" lon="-4.17145">
        <ele>1611.31</ele>
        <time>2014-11-20T09:49:37Z</time>
      </trkpt>
      <trkpt lat="40.6364" lon="-4.17143">
        <ele>1611.79</ele>
        <time>2014-11-20T09:49:55Z</time>
      </trkpt>
      <trkpt lat="40.6363" lon="-4.17143">
        <ele>1610.83</ele>
        <time>2014-11-20T09:50:05Z</time>
      </trkpt>
      <trkpt lat="40.63626" lon="-4.17146">
        <ele>1609.86</ele>
        <time>2014-11-20T09:50:09Z</time>
      </trkpt>
      <trkpt lat="40.63623" lon="-4.1715">
        <ele>1609.38</ele>
        <time>2014-11-20T09:50:13Z</time>
      </trkpt>
      <trkpt lat="40.63621" lon="-4.17153">
        <ele>1609.38</ele>
        <time>2014-11-20T09:50:16Z</time>
      </trkpt>
      <trkpt lat="40.63615" lon="-4.17162">
        <ele>1607.94</ele>
        <time>2014-11-20T09:50:24Z</time>
      </trkpt>
      <trkpt lat="40.63597" lon="-4.17179">
        <ele>1605.54</ele>
        <time>2014-11-20T09:50:40Z</time>
      </trkpt>
      <trkpt lat="40.63586" lon="-4.17189">
        <ele>1604.1</ele>
        <time>2014-11-20T09:50:50Z</time>
      </trkpt>
      <trkpt lat="40.63581" lon="-4.17196">
        <ele>1603.14</ele>
        <time>2014-11-20T09:50:56Z</time>
      </trkpt>
      <trkpt lat="40.6358" lon="-4.172">
        <ele>1603.14</ele>
        <time>2014-11-20T09:50:59Z</time>
      </trkpt>
      <trkpt lat="40.63577" lon="-4.172">
        <ele>1603.14</ele>
        <time>2014-11-20T09:51:04Z</time>
      </trkpt>
      <trkpt lat="40.6357" lon="-4.17199">
        <ele>1603.14</ele>
        <time>2014-11-20T09:51:09Z</time>
      </trkpt>
      <trkpt lat="40.63563" lon="-4.17208">
        <ele>1602.66</ele>
        <time>2014-11-20T09:51:16Z</time>
      </trkpt>
      <trkpt lat="40.63563" lon="-4.17216">
        <ele>1601.69</ele>
        <time>2014-11-20T09:51:20Z</time>
      </trkpt>
      <trkpt lat="40.6356" lon="-4.17224">
        <ele>1600.73</ele>
        <time>2014-11-20T09:51:25Z</time>
      </trkpt>
      <trkpt lat="40.63552" lon="-4.17237">
        <ele>1599.29</ele>
        <time>2014-11-20T09:51:34Z</time>
      </trkpt>
      <trkpt lat="40.63534" lon="-4.17257">
        <ele>1596.41</ele>
        <time>2014-11-20T09:51:50Z</time>
      </trkpt>
      <trkpt lat="40.63532" lon="-4.17262">
        <ele>1595.45</ele>
        <time>2014-11-20T09:51:55Z</time>
      </trkpt>
      <trkpt lat="40.63521" lon="-4.17271">
        <ele>1593.52</ele>
        <time>2014-11-20T09:52:07Z</time>
      </trkpt>
      <trkpt lat="40.63519" lon="-4.17272">
        <ele>1593.52</ele>
        <time>2014-11-20T09:52:09Z</time>
      </trkpt>
      <trkpt lat="40.63515" lon="-4.1728">
        <ele>1591.6</ele>
        <time>2014-11-20T09:52:15Z</time>
      </trkpt>
      <trkpt lat="40.63514" lon="-4.17286">
        <ele>1590.16</ele>
        <time>2014-11-20T09:52:22Z</time>
      </trkpt>
      <trkpt lat="40.63505" lon="-4.17288">
        <ele>1589.2</ele>
        <time>2014-11-20T09:52:33Z</time>
      </trkpt>
      <trkpt lat="40.63495" lon="-4.17291">
        <ele>1587.75</ele>
        <time>2014-11-20T09:52:46Z</time>
      </trkpt>
      <trkpt lat="40.63493" lon="-4.17296">
        <ele>1586.79</ele>
        <time>2014-11-20T09:52:52Z</time>
      </trkpt>
      <trkpt lat="40.63486" lon="-4.17295">
        <ele>1586.31</ele>
        <time>2014-11-20T09:52:57Z</time>
      </trkpt>
      <trkpt lat="40.63476" lon="-4.17297">
        <ele>1584.87</ele>
        <time>2014-11-20T09:53:09Z</time>
      </trkpt>
      <trkpt lat="40.63472" lon="-4.17297">
        <ele>1584.39</ele>
        <time>2014-11-20T09:53:13Z</time>
      </trkpt>
      <trkpt lat="40.63466" lon="-4.173">
        <ele>1583.91</ele>
        <time>2014-11-20T09:53:18Z</time>
      </trkpt>
      <trkpt lat="40.63458" lon="-4.17308">
        <ele>1581.51</ele>
        <time>2014-11-20T09:53:30Z</time>
      </trkpt>
      <trkpt lat="40.63458" lon="-4.17312">
        <ele>1581.03</ele>
        <time>2014-11-20T09:53:33Z</time>
      </trkpt>
      <trkpt lat="40.63455" lon="-4.17315">
        <ele>1579.1</ele>
        <time>2014-11-20T09:53:42Z</time>
      </trkpt>
      <trkpt lat="40.63442" lon="-4.17325">
        <ele>1576.22</ele>
        <time>2014-11-20T09:53:55Z</time>
      </trkpt>
      <trkpt lat="40.63439" lon="-4.1733">
        <ele>1575.74</ele>
        <time>2014-11-20T09:53:59Z</time>
      </trkpt>
      <trkpt lat="40.63428" lon="-4.17346">
        <ele>1574.78</ele>
        <time>2014-11-20T09:54:13Z</time>
      </trkpt>
      <trkpt lat="40.63412" lon="-4.17359">
        <ele>1573.82</ele>
        <time>2014-11-20T09:54:28Z</time>
      </trkpt>
      <trkpt lat="40.63398" lon="-4.17383">
        <ele>1572.37</ele>
        <time>2014-11-20T09:54:45Z</time>
      </trkpt>
      <trkpt lat="40.63398" lon="-4.17387">
        <ele>1572.37</ele>
        <time>2014-11-20T09:55:00Z</time>
      </trkpt>
      <trkpt lat="40.63397" lon="-4.17393">
        <ele>1572.37</ele>
        <time>2014-11-20T09:55:30Z</time>
      </trkpt>
      <trkpt lat="40.6339" lon="-4.17398">
        <ele>1571.89</ele>
        <time>2014-11-20T09:55:47Z</time>
      </trkpt>
      <trkpt lat="40.63377" lon="-4.17414">
        <ele>1572.37</ele>
        <time>2014-11-20T09:56:00Z</time>
      </trkpt>
      <trkpt lat="40.63359" lon="-4.17433">
        <ele>1572.85</ele>
        <time>2014-11-20T09:56:16Z</time>
      </trkpt>
      <trkpt lat="40.63351" lon="-4.17445">
        <ele>1572.85</ele>
        <time>2014-11-20T09:56:24Z</time>
      </trkpt>
      <trkpt lat="40.63333" lon="-4.1747">
        <ele>1572.37</ele>
        <time>2014-11-20T09:56:42Z</time>
      </trkpt>
      <trkpt lat="40.6332" lon="-4.17499">
        <ele>1572.37</ele>
        <time>2014-11-20T09:57:00Z</time>
      </trkpt>
      <trkpt lat="40.63306" lon="-4.17518">
        <ele>1572.85</ele>
        <time>2014-11-20T09:57:14Z</time>
      </trkpt>
      <trkpt lat="40.63289" lon="-4.17533">
        <ele>1572.85</ele>
        <time>2014-11-20T09:57:29Z</time>
      </trkpt>
      <trkpt lat="40.63276" lon="-4.17552">
        <ele>1571.89</ele>
        <time>2014-11-20T09:57:42Z</time>
      </trkpt>
      <trkpt lat="40.63273" lon="-4.17558">
        <ele>1571.89</ele>
        <time>2014-11-20T09:57:45Z</time>
      </trkpt>
      <trkpt lat="40.63266" lon="-4.17567">
        <ele>1571.41</ele>
        <time>2014-11-20T09:57:54Z</time>
      </trkpt>
      <trkpt lat="40.63244" lon="-4.17589">
        <ele>1570.45</ele>
        <time>2014-11-20T09:58:12Z</time>
      </trkpt>
      <trkpt lat="40.63225" lon="-4.17609">
        <ele>1570.45</ele>
        <time>2014-11-20T09:58:28Z</time>
      </trkpt>
      <trkpt lat="40.63215" lon="-4.1762">
        <ele>1569.97</ele>
        <time>2014-11-20T09:58:39Z</time>
      </trkpt>
      <trkpt lat="40.63197" lon="-4.17642">
        <ele>1570.45</ele>
        <time>2014-11-20T09:58:54Z</time>
      </trkpt>
      <trkpt lat="40.63183" lon="-4.17666">
        <ele>1568.53</ele>
        <time>2014-11-20T09:59:11Z</time>
      </trkpt>
      <trkpt lat="40.63169" lon="-4.17695">
        <ele>1568.05</ele>
        <time>2014-11-20T09:59:27Z</time>
      </trkpt>
      <trkpt lat="40.63152" lon="-4.17717">
        <ele>1567.57</ele>
        <time>2014-11-20T09:59:43Z</time>
      </trkpt>
      <trkpt lat="40.63139" lon="-4.17743">
        <ele>1565.64</ele>
        <time>2014-11-20T09:59:59Z</time>
      </trkpt>
      <trkpt lat="40.63127" lon="-4.17773">
        <ele>1564.2</ele>
        <time>2014-11-20T10:00:17Z</time>
      </trkpt>
      <trkpt lat="40.6312" lon="-4.17786">
        <ele>1564.68</ele>
        <time>2014-11-20T10:00:27Z</time>
      </trkpt>
      <trkpt lat="40.6311" lon="-4.17812">
        <ele>1563.72</ele>
        <time>2014-11-20T10:00:43Z</time>
      </trkpt>
      <trkpt lat="40.63105" lon="-4.17837">
        <ele>1561.8</ele>
        <time>2014-11-20T10:00:59Z</time>
      </trkpt>
      <trkpt lat="40.63092" lon="-4.17864">
        <ele>1561.8</ele>
        <time>2014-11-20T10:01:14Z</time>
      </trkpt>
      <trkpt lat="40.63079" lon="-4.17881">
        <ele>1560.84</ele>
        <time>2014-11-20T10:01:26Z</time>
      </trkpt>
      <trkpt lat="40.63065" lon="-4.17894">
        <ele>1561.32</ele>
        <time>2014-11-20T10:01:41Z</time>
      </trkpt>
      <trkpt lat="40.63064" lon="-4.17896">
        <ele>1561.32</ele>
        <time>2014-11-20T10:01:58Z</time>
      </trkpt>
      <trkpt lat="40.63064" lon="-4.17894">
        <ele>1561.32</ele>
        <time>2014-11-20T10:02:08Z</time>
      </trkpt>
      <trkpt lat="40.63063" lon="-4.17891">
        <ele>1561.32</ele>
        <time>2014-11-20T10:02:28Z</time>
      </trkpt>
      <trkpt lat="40.63062" lon="-4.17891">
        <ele>1561.32</ele>
        <time>2014-11-20T10:02:43Z</time>
      </trkpt>
      <trkpt lat="40.63046" lon="-4.17899">
        <ele>1562.28</ele>
        <time>2014-11-20T10:02:57Z</time>
      </trkpt>
      <trkpt lat="40.6304" lon="-4.17903">
        <ele>1562.76</ele>
        <time>2014-11-20T10:03:02Z</time>
      </trkpt>
      <trkpt lat="40.63021" lon="-4.17918">
        <ele>1563.72</ele>
        <time>2014-11-20T10:03:18Z</time>
      </trkpt>
      <trkpt lat="40.63003" lon="-4.17937">
        <ele>1564.68</ele>
        <time>2014-11-20T10:03:35Z</time>
      </trkpt>
      <trkpt lat="40.62981" lon="-4.17949">
        <ele>1565.64</ele>
        <time>2014-11-20T10:03:53Z</time>
      </trkpt>
      <trkpt lat="40.62979" lon="-4.17963">
        <ele>1564.2</ele>
        <time>2014-11-20T10:04:01Z</time>
      </trkpt>
      <trkpt lat="40.62953" lon="-4.17976">
        <ele>1564.2</ele>
        <time>2014-11-20T10:04:22Z</time>
      </trkpt>
      <trkpt lat="40.62935" lon="-4.17983">
        <ele>1563.72</ele>
        <time>2014-11-20T10:04:36Z</time>
      </trkpt>
      <trkpt lat="40.62906" lon="-4.18006">
        <ele>1563.24</ele>
        <time>2014-11-20T10:04:56Z</time>
      </trkpt>
      <trkpt lat="40.6289" lon="-4.18031">
        <ele>1563.72</ele>
        <time>2014-11-20T10:05:12Z</time>
      </trkpt>
      <trkpt lat="40.62877" lon="-4.18051">
        <ele>1564.2</ele>
        <time>2014-11-20T10:05:25Z</time>
      </trkpt>
      <trkpt lat="40.62861" lon="-4.18072">
        <ele>1565.16</ele>
        <time>2014-11-20T10:05:41Z</time>
      </trkpt>
      <trkpt lat="40.62843" lon="-4.1809">
        <ele>1565.64</ele>
        <time>2014-11-20T10:05:57Z</time>
      </trkpt>
      <trkpt lat="40.62827" lon="-4.18112">
        <ele>1567.09</ele>
        <time>2014-11-20T10:06:14Z</time>
      </trkpt>
      <trkpt lat="40.6282" lon="-4.18122">
        <ele>1568.05</ele>
        <time>2014-11-20T10:06:21Z</time>
      </trkpt>
      <trkpt lat="40.62817" lon="-4.18126">
        <ele>1568.05</ele>
        <time>2014-11-20T10:06:25Z</time>
      </trkpt>
      <trkpt lat="40.62804" lon="-4.18144">
        <ele>1569.97</ele>
        <time>2014-11-20T10:06:38Z</time>
      </trkpt>
      <trkpt lat="40.62789" lon="-4.18163">
        <ele>1571.41</ele>
        <time>2014-11-20T10:06:50Z</time>
      </trkpt>
      <trkpt lat="40.62774" lon="-4.18189">
        <ele>1573.82</ele>
        <time>2014-11-20T10:07:09Z</time>
      </trkpt>
      <trkpt lat="40.62757" lon="-4.18212">
        <ele>1575.74</ele>
        <time>2014-11-20T10:07:26Z</time>
      </trkpt>
      <trkpt lat="40.62739" lon="-4.18238">
        <ele>1577.66</ele>
        <time>2014-11-20T10:07:44Z</time>
      </trkpt>
      <trkpt lat="40.62723" lon="-4.18259">
        <ele>1579.58</ele>
        <time>2014-11-20T10:08:01Z</time>
      </trkpt>
      <trkpt lat="40.62701" lon="-4.18279">
        <ele>1581.51</ele>
        <time>2014-11-20T10:08:21Z</time>
      </trkpt>
      <trkpt lat="40.62681" lon="-4.18292">
        <ele>1582.95</ele>
        <time>2014-11-20T10:08:38Z</time>
      </trkpt>
      <trkpt lat="40.62664" lon="-4.18305">
        <ele>1584.87</ele>
        <time>2014-11-20T10:08:54Z</time>
      </trkpt>
      <trkpt lat="40.62647" lon="-4.18319">
        <ele>1585.83</ele>
        <time>2014-11-20T10:09:08Z</time>
      </trkpt>
      <trkpt lat="40.62632" lon="-4.18329">
        <ele>1589.2</ele>
        <time>2014-11-20T10:09:21Z</time>
      </trkpt>
      <trkpt lat="40.62606" lon="-4.18342">
        <ele>1592.08</ele>
        <time>2014-11-20T10:09:42Z</time>
      </trkpt>
      <trkpt lat="40.6259" lon="-4.18348">
        <ele>1594.48</ele>
        <time>2014-11-20T10:09:56Z</time>
      </trkpt>
      <trkpt lat="40.62585" lon="-4.18349">
        <ele>1594.96</ele>
        <time>2014-11-20T10:10:00Z</time>
      </trkpt>
      <trkpt lat="40.62563" lon="-4.18362">
        <ele>1597.85</ele>
        <time>2014-11-20T10:10:18Z</time>
      </trkpt>
      <trkpt lat="40.62545" lon="-4.18377">
        <ele>1600.25</ele>
        <time>2014-11-20T10:10:35Z</time>
      </trkpt>
      <trkpt lat="40.62531" lon="-4.1839">
        <ele>1602.66</ele>
        <time>2014-11-20T10:10:48Z</time>
      </trkpt>
      <trkpt lat="40.62524" lon="-4.18401">
        <ele>1602.66</ele>
        <time>2014-11-20T10:11:02Z</time>
      </trkpt>
      <trkpt lat="40.62523" lon="-4.18401">
        <ele>1602.66</ele>
        <time>2014-11-20T10:11:06Z</time>
      </trkpt>
      <trkpt lat="40.62517" lon="-4.184">
        <ele>1606.02</ele>
        <time>2014-11-20T10:11:11Z</time>
      </trkpt>
      <trkpt lat="40.62515" lon="-4.18399">
        <ele>1605.54</ele>
        <time>2014-11-20T10:11:12Z</time>
      </trkpt>
      <trkpt lat="40.62513" lon="-4.18399">
        <ele>1604.1</ele>
        <time>2014-11-20T10:11:14Z</time>
      </trkpt>
      <trkpt lat="40.62494" lon="-4.18398">
        <ele>1604.1</ele>
        <time>2014-11-20T10:11:28Z</time>
      </trkpt>
      <trkpt lat="40.62477" lon="-4.18383">
        <ele>1606.02</ele>
        <time>2014-11-20T10:11:44Z</time>
      </trkpt>
      <trkpt lat="40.62465" lon="-4.18356">
        <ele>1607.46</ele>
        <time>2014-11-20T10:12:01Z</time>
      </trkpt>
      <trkpt lat="40.62458" lon="-4.18332">
        <ele>1608.9</ele>
        <time>2014-11-20T10:12:15Z</time>
      </trkpt>
      <trkpt lat="40.62451" lon="-4.18303">
        <ele>1610.83</ele>
        <time>2014-11-20T10:12:32Z</time>
      </trkpt>
      <trkpt lat="40.62445" lon="-4.18278">
        <ele>1612.75</ele>
        <time>2014-11-20T10:12:46Z</time>
      </trkpt>
      <trkpt lat="40.62439" lon="-4.18247">
        <ele>1613.23</ele>
        <time>2014-11-20T10:13:03Z</time>
      </trkpt>
      <trkpt lat="40.62434" lon="-4.18221">
        <ele>1614.67</ele>
        <time>2014-11-20T10:13:19Z</time>
      </trkpt>
      <trkpt lat="40.6243" lon="-4.18191">
        <ele>1615.63</ele>
        <time>2014-11-20T10:13:35Z</time>
      </trkpt>
      <trkpt lat="40.62428" lon="-4.18161">
        <ele>1615.63</ele>
        <time>2014-11-20T10:13:52Z</time>
      </trkpt>
      <trkpt lat="40.62422" lon="-4.1814">
        <ele>1616.11</ele>
        <time>2014-11-20T10:14:04Z</time>
      </trkpt>
      <trkpt lat="40.62421" lon="-4.18136">
        <ele>1616.59</ele>
        <time>2014-11-20T10:14:06Z</time>
      </trkpt>
      <trkpt lat="40.6242" lon="-4.1813">
        <ele>1617.07</ele>
        <time>2014-11-20T10:14:10Z</time>
      </trkpt>
      <trkpt lat="40.62415" lon="-4.18102">
        <ele>1618.52</ele>
        <time>2014-11-20T10:14:25Z</time>
      </trkpt>
      <trkpt lat="40.62415" lon="-4.18099">
        <ele>1619</ele>
        <time>2014-11-20T10:14:27Z</time>
      </trkpt>
      <trkpt lat="40.62415" lon="-4.18094">
        <ele>1619.48</ele>
        <time>2014-11-20T10:14:30Z</time>
      </trkpt>
      <trkpt lat="40.62412" lon="-4.18079">
        <ele>1619.96</ele>
        <time>2014-11-20T10:14:39Z</time>
      </trkpt>
      <trkpt lat="40.62413" lon="-4.18072">
        <ele>1620.44</ele>
        <time>2014-11-20T10:14:43Z</time>
      </trkpt>
      <trkpt lat="40.62411" lon="-4.18066">
        <ele>1620.92</ele>
        <time>2014-11-20T10:14:46Z</time>
      </trkpt>
      <trkpt lat="40.62412" lon="-4.1806">
        <ele>1620.92</ele>
        <time>2014-11-20T10:14:50Z</time>
      </trkpt>
      <trkpt lat="40.62411" lon="-4.18055">
        <ele>1621.88</ele>
        <time>2014-11-20T10:14:53Z</time>
      </trkpt>
      <trkpt lat="40.62409" lon="-4.18046">
        <ele>1622.84</ele>
        <time>2014-11-20T10:14:58Z</time>
      </trkpt>
      <trkpt lat="40.62406" lon="-4.18019">
        <ele>1624.77</ele>
        <time>2014-11-20T10:15:14Z</time>
      </trkpt>
      <trkpt lat="40.62404" lon="-4.18004">
        <ele>1625.73</ele>
        <time>2014-11-20T10:15:23Z</time>
      </trkpt>
      <trkpt lat="40.62401" lon="-4.1799">
        <ele>1626.69</ele>
        <time>2014-11-20T10:15:31Z</time>
      </trkpt>
      <trkpt lat="40.62402" lon="-4.17987">
        <ele>1626.69</ele>
        <time>2014-11-20T10:15:33Z</time>
      </trkpt>
      <trkpt lat="40.62397" lon="-4.17972">
        <ele>1628.13</ele>
        <time>2014-11-20T10:15:41Z</time>
      </trkpt>
      <trkpt lat="40.62394" lon="-4.17946">
        <ele>1629.57</ele>
        <time>2014-11-20T10:15:56Z</time>
      </trkpt>
      <trkpt lat="40.62396" lon="-4.17939">
        <ele>1630.05</ele>
        <time>2014-11-20T10:16:00Z</time>
      </trkpt>
      <trkpt lat="40.62397" lon="-4.17915">
        <ele>1631.01</ele>
        <time>2014-11-20T10:16:14Z</time>
      </trkpt>
      <trkpt lat="40.62388" lon="-4.17887">
        <ele>1631.49</ele>
        <time>2014-11-20T10:16:31Z</time>
      </trkpt>
      <trkpt lat="40.62364" lon="-4.1788">
        <ele>1631.98</ele>
        <time>2014-11-20T10:16:48Z</time>
      </trkpt>
      <trkpt lat="40.62348" lon="-4.17885">
        <ele>1632.94</ele>
        <time>2014-11-20T10:17:01Z</time>
      </trkpt>
      <trkpt lat="40.62328" lon="-4.17899">
        <ele>1634.38</ele>
        <time>2014-11-20T10:17:18Z</time>
      </trkpt>
      <trkpt lat="40.62308" lon="-4.17914">
        <ele>1635.82</ele>
        <time>2014-11-20T10:17:34Z</time>
      </trkpt>
      <trkpt lat="40.62289" lon="-4.17926">
        <ele>1637.26</ele>
        <time>2014-11-20T10:17:50Z</time>
      </trkpt>
      <trkpt lat="40.62264" lon="-4.17943">
        <ele>1639.67</ele>
        <time>2014-11-20T10:18:10Z</time>
      </trkpt>
      <trkpt lat="40.62239" lon="-4.1796">
        <ele>1641.59</ele>
        <time>2014-11-20T10:18:30Z</time>
      </trkpt>
      <trkpt lat="40.6223" lon="-4.17965">
        <ele>1639.67</ele>
        <time>2014-11-20T10:18:36Z</time>
      </trkpt>
      <trkpt lat="40.62215" lon="-4.17966">
        <ele>1643.03</ele>
        <time>2014-11-20T10:18:47Z</time>
      </trkpt>
      <trkpt lat="40.62194" lon="-4.17958">
        <ele>1644.47</ele>
        <time>2014-11-20T10:19:02Z</time>
      </trkpt>
      <trkpt lat="40.6217" lon="-4.17947">
        <ele>1645.91</ele>
        <time>2014-11-20T10:19:20Z</time>
      </trkpt>
      <trkpt lat="40.62148" lon="-4.17939">
        <ele>1646.88</ele>
        <time>2014-11-20T10:19:36Z</time>
      </trkpt>
      <trkpt lat="40.6213" lon="-4.17929">
        <ele>1646.4</ele>
        <time>2014-11-20T10:19:51Z</time>
      </trkpt>
      <trkpt lat="40.62102" lon="-4.17909">
        <ele>1647.36</ele>
        <time>2014-11-20T10:20:13Z</time>
      </trkpt>
      <trkpt lat="40.6208" lon="-4.17892">
        <ele>1647.36</ele>
        <time>2014-11-20T10:20:30Z</time>
      </trkpt>
      <trkpt lat="40.62072" lon="-4.17887">
        <ele>1646.4</ele>
        <time>2014-11-20T10:20:36Z</time>
      </trkpt>
      <trkpt lat="40.62052" lon="-4.17874">
        <ele>1647.36</ele>
        <time>2014-11-20T10:20:50Z</time>
      </trkpt>
      <trkpt lat="40.62031" lon="-4.1786">
        <ele>1646.4</ele>
        <time>2014-11-20T10:21:05Z</time>
      </trkpt>
      <trkpt lat="40.62011" lon="-4.17843">
        <ele>1646.4</ele>
        <time>2014-11-20T10:21:21Z</time>
      </trkpt>
      <trkpt lat="40.62003" lon="-4.17835">
        <ele>1645.91</ele>
        <time>2014-11-20T10:21:28Z</time>
      </trkpt>
      <trkpt lat="40.61999" lon="-4.17831">
        <ele>1645.43</ele>
        <time>2014-11-20T10:21:32Z</time>
      </trkpt>
      <trkpt lat="40.61984" lon="-4.17818">
        <ele>1644.47</ele>
        <time>2014-11-20T10:21:44Z</time>
      </trkpt>
      <trkpt lat="40.61978" lon="-4.17819">
        <ele>1643.99</ele>
        <time>2014-11-20T10:21:53Z</time>
      </trkpt>
      <trkpt lat="40.61961" lon="-4.178">
        <ele>1643.03</ele>
        <time>2014-11-20T10:22:10Z</time>
      </trkpt>
      <trkpt lat="40.61955" lon="-4.17795">
        <ele>1643.03</ele>
        <time>2014-11-20T10:22:15Z</time>
      </trkpt>
      <trkpt lat="40.61936" lon="-4.17775">
        <ele>1642.07</ele>
        <time>2014-11-20T10:22:30Z</time>
      </trkpt>
      <trkpt lat="40.61918" lon="-4.17745">
        <ele>1639.67</ele>
        <time>2014-11-20T10:22:51Z</time>
      </trkpt>
      <trkpt lat="40.61905" lon="-4.17721">
        <ele>1638.7</ele>
        <time>2014-11-20T10:23:06Z</time>
      </trkpt>
      <trkpt lat="40.61884" lon="-4.17703">
        <ele>1637.26</ele>
        <time>2014-11-20T10:23:22Z</time>
      </trkpt>
      <trkpt lat="40.61858" lon="-4.17693">
        <ele>1636.78</ele>
        <time>2014-11-20T10:23:40Z</time>
      </trkpt>
      <trkpt lat="40.61834" lon="-4.17701">
        <ele>1637.26</ele>
        <time>2014-11-20T10:23:55Z</time>
      </trkpt>
      <trkpt lat="40.61809" lon="-4.1771">
        <ele>1635.82</ele>
        <time>2014-11-20T10:24:13Z</time>
      </trkpt>
      <trkpt lat="40.61774" lon="-4.17706">
        <ele>1636.3</ele>
        <time>2014-11-20T10:24:35Z</time>
      </trkpt>
      <trkpt lat="40.61745" lon="-4.17694">
        <ele>1633.42</ele>
        <time>2014-11-20T10:24:55Z</time>
      </trkpt>
      <trkpt lat="40.61716" lon="-4.1768">
        <ele>1633.42</ele>
        <time>2014-11-20T10:25:15Z</time>
      </trkpt>
      <trkpt lat="40.61694" lon="-4.17672">
        <ele>1631.98</ele>
        <time>2014-11-20T10:25:28Z</time>
      </trkpt>
      <trkpt lat="40.61678" lon="-4.17659">
        <ele>1630.53</ele>
        <time>2014-11-20T10:25:42Z</time>
      </trkpt>
      <trkpt lat="40.61677" lon="-4.17658">
        <ele>1631.01</ele>
        <time>2014-11-20T10:25:43Z</time>
      </trkpt>
      <trkpt lat="40.61675" lon="-4.17658">
        <ele>1631.01</ele>
        <time>2014-11-20T10:25:44Z</time>
      </trkpt>
      <trkpt lat="40.61674" lon="-4.17657">
        <ele>1631.01</ele>
        <time>2014-11-20T10:25:45Z</time>
      </trkpt>
      <trkpt lat="40.61673" lon="-4.17657">
        <ele>1630.53</ele>
        <time>2014-11-20T10:25:46Z</time>
      </trkpt>
      <trkpt lat="40.61671" lon="-4.17656">
        <ele>1631.49</ele>
        <time>2014-11-20T10:25:47Z</time>
      </trkpt>
      <trkpt lat="40.61665" lon="-4.17653">
        <ele>1630.05</ele>
        <time>2014-11-20T10:25:51Z</time>
      </trkpt>
      <trkpt lat="40.6166" lon="-4.17653">
        <ele>1630.53</ele>
        <time>2014-11-20T10:26:03Z</time>
      </trkpt>
      <trkpt lat="40.61647" lon="-4.17647">
        <ele>1629.09</ele>
        <time>2014-11-20T10:26:17Z</time>
      </trkpt>
      <trkpt lat="40.61643" lon="-4.17639">
        <ele>1629.57</ele>
        <time>2014-11-20T10:26:28Z</time>
      </trkpt>
      <trkpt lat="40.61643" lon="-4.17638">
        <ele>1629.09</ele>
        <time>2014-11-20T10:26:29Z</time>
      </trkpt>
      <trkpt lat="40.61643" lon="-4.17636">
        <ele>1628.61</ele>
        <time>2014-11-20T10:26:30Z</time>
      </trkpt>
      <trkpt lat="40.61643" lon="-4.17635">
        <ele>1628.13</ele>
        <time>2014-11-20T10:26:31Z</time>
      </trkpt>
      <trkpt lat="40.61641" lon="-4.17634">
        <ele>1629.09</ele>
        <time>2014-11-20T10:26:40Z</time>
      </trkpt>
      <trkpt lat="40.61641" lon="-4.17639">
        <ele>1629.09</ele>
        <time>2014-11-20T10:26:44Z</time>
      </trkpt>
      <trkpt lat="40.61626" lon="-4.17637">
        <ele>1628.13</ele>
        <time>2014-11-20T10:26:56Z</time>
      </trkpt>
      <trkpt lat="40.61622" lon="-4.17635">
        <ele>1627.65</ele>
        <time>2014-11-20T10:26:59Z</time>
      </trkpt>
      <trkpt lat="40.61596" lon="-4.17616">
        <ele>1626.21</ele>
        <time>2014-11-20T10:27:18Z</time>
      </trkpt>
      <trkpt lat="40.6158" lon="-4.17588">
        <ele>1624.77</ele>
        <time>2014-11-20T10:27:35Z</time>
      </trkpt>
      <trkpt lat="40.61567" lon="-4.17551">
        <ele>1622.84</ele>
        <time>2014-11-20T10:27:55Z</time>
      </trkpt>
      <trkpt lat="40.61566" lon="-4.17514">
        <ele>1621.88</ele>
        <time>2014-11-20T10:28:14Z</time>
      </trkpt>
      <trkpt lat="40.61566" lon="-4.17481">
        <ele>1619.48</ele>
        <time>2014-11-20T10:28:32Z</time>
      </trkpt>
      <trkpt lat="40.61566" lon="-4.17451">
        <ele>1617.07</ele>
        <time>2014-11-20T10:28:47Z</time>
      </trkpt>
      <trkpt lat="40.61557" lon="-4.17434">
        <ele>1615.63</ele>
        <time>2014-11-20T10:28:57Z</time>
      </trkpt>
      <trkpt lat="40.61555" lon="-4.17434">
        <ele>1615.15</ele>
        <time>2014-11-20T10:28:58Z</time>
      </trkpt>
      <trkpt lat="40.61551" lon="-4.17427">
        <ele>1615.63</ele>
        <time>2014-11-20T10:29:07Z</time>
      </trkpt>
      <trkpt lat="40.61553" lon="-4.17418">
        <ele>1615.15</ele>
        <time>2014-11-20T10:29:12Z</time>
      </trkpt>
      <trkpt lat="40.6155" lon="-4.17396">
        <ele>1610.83</ele>
        <time>2014-11-20T10:29:27Z</time>
      </trkpt>
      <trkpt lat="40.61549" lon="-4.17388">
        <ele>1608.9</ele>
        <time>2014-11-20T10:29:33Z</time>
      </trkpt>
      <trkpt lat="40.61548" lon="-4.17376">
        <ele>1607.94</ele>
        <time>2014-11-20T10:29:39Z</time>
      </trkpt>
      <trkpt lat="40.61538" lon="-4.17347">
        <ele>1607.46</ele>
        <time>2014-11-20T10:29:56Z</time>
      </trkpt>
      <trkpt lat="40.61515" lon="-4.17344">
        <ele>1607.46</ele>
        <time>2014-11-20T10:30:11Z</time>
      </trkpt>
      <trkpt lat="40.6149" lon="-4.17346">
        <ele>1606.5</ele>
        <time>2014-11-20T10:30:29Z</time>
      </trkpt>
      <trkpt lat="40.61473" lon="-4.17348">
        <ele>1605.06</ele>
        <time>2014-11-20T10:30:40Z</time>
      </trkpt>
      <trkpt lat="40.61449" lon="-4.17351">
        <ele>1604.58</ele>
        <time>2014-11-20T10:30:55Z</time>
      </trkpt>
      <trkpt lat="40.61423" lon="-4.17349">
        <ele>1604.1</ele>
        <time>2014-11-20T10:31:12Z</time>
      </trkpt>
      <trkpt lat="40.614" lon="-4.17342">
        <ele>1603.14</ele>
        <time>2014-11-20T10:31:28Z</time>
      </trkpt>
      <trkpt lat="40.61375" lon="-4.17334">
        <ele>1602.66</ele>
        <time>2014-11-20T10:31:45Z</time>
      </trkpt>
      <trkpt lat="40.61357" lon="-4.17334">
        <ele>1601.69</ele>
        <time>2014-11-20T10:31:56Z</time>
      </trkpt>
      <trkpt lat="40.61351" lon="-4.17334">
        <ele>1601.69</ele>
        <time>2014-11-20T10:32:00Z</time>
      </trkpt>
      <trkpt lat="40.61323" lon="-4.17334">
        <ele>1601.69</ele>
        <time>2014-11-20T10:32:17Z</time>
      </trkpt>
      <trkpt lat="40.61301" lon="-4.17337">
        <ele>1600.73</ele>
        <time>2014-11-20T10:32:31Z</time>
      </trkpt>
      <trkpt lat="40.61277" lon="-4.17337">
        <ele>1600.25</ele>
        <time>2014-11-20T10:32:46Z</time>
      </trkpt>
      <trkpt lat="40.61256" lon="-4.17335">
        <ele>1599.29</ele>
        <time>2014-11-20T10:33:00Z</time>
      </trkpt>
      <trkpt lat="40.61231" lon="-4.17333">
        <ele>1598.81</ele>
        <time>2014-11-20T10:33:16Z</time>
      </trkpt>
      <trkpt lat="40.61205" lon="-4.17325">
        <ele>1597.85</ele>
        <time>2014-11-20T10:33:34Z</time>
      </trkpt>
      <trkpt lat="40.61179" lon="-4.1732">
        <ele>1597.37</ele>
        <time>2014-11-20T10:33:52Z</time>
      </trkpt>
      <trkpt lat="40.61169" lon="-4.17314">
        <ele>1596.89</ele>
        <time>2014-11-20T10:33:59Z</time>
      </trkpt>
      <trkpt lat="40.61151" lon="-4.17304">
        <ele>1596.89</ele>
        <time>2014-11-20T10:34:11Z</time>
      </trkpt>
      <trkpt lat="40.61122" lon="-4.17291">
        <ele>1595.93</ele>
        <time>2014-11-20T10:34:30Z</time>
      </trkpt>
      <trkpt lat="40.611" lon="-4.1728">
        <ele>1594.96</ele>
        <time>2014-11-20T10:34:45Z</time>
      </trkpt>
      <trkpt lat="40.61091" lon="-4.17274">
        <ele>1595.45</ele>
        <time>2014-11-20T10:34:52Z</time>
      </trkpt>
      <trkpt lat="40.61069" lon="-4.1727">
        <ele>1594.96</ele>
        <time>2014-11-20T10:35:06Z</time>
      </trkpt>
      <trkpt lat="40.61046" lon="-4.17274">
        <ele>1594.96</ele>
        <time>2014-11-20T10:35:22Z</time>
      </trkpt>
      <trkpt lat="40.61017" lon="-4.17278">
        <ele>1594.48</ele>
        <time>2014-11-20T10:35:40Z</time>
      </trkpt>
      <trkpt lat="40.60986" lon="-4.17276">
        <ele>1593.52</ele>
        <time>2014-11-20T10:36:00Z</time>
      </trkpt>
      <trkpt lat="40.60957" lon="-4.17286">
        <ele>1591.12</ele>
        <time>2014-11-20T10:36:19Z</time>
      </trkpt>
      <trkpt lat="40.60931" lon="-4.17292">
        <ele>1588.24</ele>
        <time>2014-11-20T10:36:37Z</time>
      </trkpt>
      <trkpt lat="40.60928" lon="-4.17278">
        <ele>1589.2</ele>
        <time>2014-11-20T10:36:46Z</time>
      </trkpt>
      <trkpt lat="40.60926" lon="-4.17265">
        <ele>1591.12</ele>
        <time>2014-11-20T10:36:59Z</time>
      </trkpt>
      <trkpt lat="40.60926" lon="-4.17266">
        <ele>1590.64</ele>
        <time>2014-11-20T10:37:09Z</time>
      </trkpt>
      <trkpt lat="40.60926" lon="-4.17265">
        <ele>1590.64</ele>
        <time>2014-11-20T10:37:10Z</time>
      </trkpt>
      <trkpt lat="40.60927" lon="-4.17265">
        <ele>1590.64</ele>
        <time>2014-11-20T10:37:24Z</time>
      </trkpt>
      <trkpt lat="40.60927" lon="-4.17265">
        <ele>1590.64</ele>
        <time>2014-11-20T10:38:02Z</time>
      </trkpt>
      <trkpt lat="40.60927" lon="-4.17265">
        <ele>1590.64</ele>
        <time>2014-11-20T10:38:42Z</time>
      </trkpt>
      <trkpt lat="40.60927" lon="-4.17265">
        <ele>1590.64</ele>
        <time>2014-11-20T10:39:15Z</time>
      </trkpt>
      <trkpt lat="40.60928" lon="-4.17265">
        <ele>1590.64</ele>
        <time>2014-11-20T10:39:42Z</time>
      </trkpt>
      <trkpt lat="40.60928" lon="-4.17264">
        <ele>1590.64</ele>
        <time>2014-11-20T10:39:44Z</time>
      </trkpt>
      <trkpt lat="40.60928" lon="-4.17263">
        <ele>1591.6</ele>
        <time>2014-11-20T10:39:52Z</time>
      </trkpt>
      <trkpt lat="40.60929" lon="-4.17267">
        <ele>1592.08</ele>
        <time>2014-11-20T10:40:10Z</time>
      </trkpt>
      <trkpt lat="40.60927" lon="-4.17267">
        <ele>1591.6</ele>
        <time>2014-11-20T10:40:16Z</time>
      </trkpt>
      <trkpt lat="40.60909" lon="-4.17262">
        <ele>1589.68</ele>
        <time>2014-11-20T10:40:30Z</time>
      </trkpt>
      <trkpt lat="40.60908" lon="-4.17263">
        <ele>1589.68</ele>
        <time>2014-11-20T10:40:33Z</time>
      </trkpt>
      <trkpt lat="40.60905" lon="-4.17269">
        <ele>1589.2</ele>
        <time>2014-11-20T10:40:37Z</time>
      </trkpt>
      <trkpt lat="40.6089" lon="-4.17277">
        <ele>1587.27</ele>
        <time>2014-11-20T10:40:50Z</time>
      </trkpt>
      <trkpt lat="40.60886" lon="-4.17282">
        <ele>1585.83</ele>
        <time>2014-11-20T10:40:55Z</time>
      </trkpt>
      <trkpt lat="40.60881" lon="-4.17288">
        <ele>1584.87</ele>
        <time>2014-11-20T10:41:00Z</time>
      </trkpt>
      <trkpt lat="40.60862" lon="-4.1728">
        <ele>1582.95</ele>
        <time>2014-11-20T10:41:13Z</time>
      </trkpt>
      <trkpt lat="40.60853" lon="-4.17274">
        <ele>1581.99</ele>
        <time>2014-11-20T10:41:22Z</time>
      </trkpt>
      <trkpt lat="40.60835" lon="-4.17258">
        <ele>1579.1</ele>
        <time>2014-11-20T10:41:38Z</time>
      </trkpt>
      <trkpt lat="40.60816" lon="-4.17242">
        <ele>1576.22</ele>
        <time>2014-11-20T10:41:53Z</time>
      </trkpt>
      <trkpt lat="40.60794" lon="-4.1722">
        <ele>1574.78</ele>
        <time>2014-11-20T10:42:11Z</time>
      </trkpt>
      <trkpt lat="40.60774" lon="-4.17199">
        <ele>1572.85</ele>
        <time>2014-11-20T10:42:27Z</time>
      </trkpt>
      <trkpt lat="40.60752" lon="-4.1719">
        <ele>1569.97</ele>
        <time>2014-11-20T10:42:43Z</time>
      </trkpt>
      <trkpt lat="40.60729" lon="-4.17195">
        <ele>1568.53</ele>
        <time>2014-11-20T10:42:59Z</time>
      </trkpt>
      <trkpt lat="40.60703" lon="-4.17202">
        <ele>1566.61</ele>
        <time>2014-11-20T10:43:16Z</time>
      </trkpt>
      <trkpt lat="40.6067" lon="-4.1721">
        <ele>1564.2</ele>
        <time>2014-11-20T10:43:38Z</time>
      </trkpt>
      <trkpt lat="40.60637" lon="-4.17215">
        <ele>1560.84</ele>
        <time>2014-11-20T10:43:59Z</time>
      </trkpt>
      <trkpt lat="40.60613" lon="-4.17212">
        <ele>1558.43</ele>
        <time>2014-11-20T10:44:16Z</time>
      </trkpt>
      <trkpt lat="40.6059" lon="-4.17214">
        <ele>1556.99</ele>
        <time>2014-11-20T10:44:31Z</time>
      </trkpt>
      <trkpt lat="40.60576" lon="-4.17242">
        <ele>1556.99</ele>
        <time>2014-11-20T10:44:47Z</time>
      </trkpt>
      <trkpt lat="40.60568" lon="-4.17269">
        <ele>1555.07</ele>
        <time>2014-11-20T10:45:03Z</time>
      </trkpt>
      <trkpt lat="40.60556" lon="-4.17306">
        <ele>1554.11</ele>
        <time>2014-11-20T10:45:23Z</time>
      </trkpt>
      <trkpt lat="40.6054" lon="-4.17329">
        <ele>1552.67</ele>
        <time>2014-11-20T10:45:39Z</time>
      </trkpt>
      <trkpt lat="40.60518" lon="-4.17347">
        <ele>1551.71</ele>
        <time>2014-11-20T10:45:56Z</time>
      </trkpt>
      <trkpt lat="40.60502" lon="-4.17361">
        <ele>1550.26</ele>
        <time>2014-11-20T10:46:11Z</time>
      </trkpt>
      <trkpt lat="40.6049" lon="-4.17368">
        <ele>1548.82</ele>
        <time>2014-11-20T10:46:26Z</time>
      </trkpt>
      <trkpt lat="40.6048" lon="-4.17373">
        <ele>1546.9</ele>
        <time>2014-11-20T10:46:33Z</time>
      </trkpt>
      <trkpt lat="40.60472" lon="-4.17376">
        <ele>1547.38</ele>
        <time>2014-11-20T10:46:39Z</time>
      </trkpt>
      <trkpt lat="40.60448" lon="-4.17392">
        <ele>1545.94</ele>
        <time>2014-11-20T10:46:59Z</time>
      </trkpt>
      <trkpt lat="40.60446" lon="-4.1738">
        <ele>1544.5</ele>
        <time>2014-11-20T10:47:06Z</time>
      </trkpt>
      <trkpt lat="40.60441" lon="-4.17376">
        <ele>1544.98</ele>
        <time>2014-11-20T10:47:10Z</time>
      </trkpt>
      <trkpt lat="40.60431" lon="-4.17358">
        <ele>1544.01</ele>
        <time>2014-11-20T10:47:22Z</time>
      </trkpt>
      <trkpt lat="40.60419" lon="-4.17368">
        <ele>1544.98</ele>
        <time>2014-11-20T10:47:34Z</time>
      </trkpt>
      <trkpt lat="40.60414" lon="-4.17374">
        <ele>1544.98</ele>
        <time>2014-11-20T10:47:46Z</time>
      </trkpt>
      <trkpt lat="40.60415" lon="-4.17374">
        <ele>1545.46</ele>
        <time>2014-11-20T10:47:57Z</time>
      </trkpt>
      <trkpt lat="40.60409" lon="-4.17347">
        <ele>1542.57</ele>
        <time>2014-11-20T10:48:14Z</time>
      </trkpt>
      <trkpt lat="40.60394" lon="-4.17331">
        <ele>1538.73</ele>
        <time>2014-11-20T10:48:27Z</time>
      </trkpt>
      <trkpt lat="40.60393" lon="-4.17329">
        <ele>1538.73</ele>
        <time>2014-11-20T10:48:28Z</time>
      </trkpt>
      <trkpt lat="40.60386" lon="-4.17319">
        <ele>1537.77</ele>
        <time>2014-11-20T10:48:35Z</time>
      </trkpt>
      <trkpt lat="40.60382" lon="-4.17299">
        <ele>1535.84</ele>
        <time>2014-11-20T10:48:52Z</time>
      </trkpt>
      <trkpt lat="40.6038" lon="-4.17297">
        <ele>1536.32</ele>
        <time>2014-11-20T10:49:05Z</time>
      </trkpt>
      <trkpt lat="40.60379" lon="-4.17296">
        <ele>1536.32</ele>
        <time>2014-11-20T10:49:07Z</time>
      </trkpt>
      <trkpt lat="40.60376" lon="-4.17291">
        <ele>1533.44</ele>
        <time>2014-11-20T10:49:12Z</time>
      </trkpt>
      <trkpt lat="40.60373" lon="-4.17284">
        <ele>1531.04</ele>
        <time>2014-11-20T10:49:17Z</time>
      </trkpt>
      <trkpt lat="40.60369" lon="-4.17275">
        <ele>1530.56</ele>
        <time>2014-11-20T10:49:22Z</time>
      </trkpt>
      <trkpt lat="40.60368" lon="-4.17271">
        <ele>1530.08</ele>
        <time>2014-11-20T10:49:25Z</time>
      </trkpt>
      <trkpt lat="40.60361" lon="-4.17259">
        <ele>1526.71</ele>
        <time>2014-11-20T10:49:34Z</time>
      </trkpt>
      <trkpt lat="40.60358" lon="-4.17252">
        <ele>1525.27</ele>
        <time>2014-11-20T10:49:39Z</time>
      </trkpt>
      <trkpt lat="40.60354" lon="-4.17239">
        <ele>1522.39</ele>
        <time>2014-11-20T10:49:48Z</time>
      </trkpt>
      <trkpt lat="40.60353" lon="-4.17236">
        <ele>1521.9</ele>
        <time>2014-11-20T10:49:50Z</time>
      </trkpt>
      <trkpt lat="40.60349" lon="-4.1722">
        <ele>1518.54</ele>
        <time>2014-11-20T10:50:00Z</time>
      </trkpt>
      <trkpt lat="40.60344" lon="-4.17199">
        <ele>1515.18</ele>
        <time>2014-11-20T10:50:12Z</time>
      </trkpt>
      <trkpt lat="40.6034" lon="-4.17174">
        <ele>1511.81</ele>
        <time>2014-11-20T10:50:26Z</time>
      </trkpt>
      <trkpt lat="40.60341" lon="-4.17147">
        <ele>1510.37</ele>
        <time>2014-11-20T10:50:40Z</time>
      </trkpt>
      <trkpt lat="40.60338" lon="-4.17115">
        <ele>1507.48</ele>
        <time>2014-11-20T10:50:57Z</time>
      </trkpt>
      <trkpt lat="40.60337" lon="-4.17099">
        <ele>1506.04</ele>
        <time>2014-11-20T10:51:09Z</time>
      </trkpt>
      <trkpt lat="40.60336" lon="-4.17097">
        <ele>1506.04</ele>
        <time>2014-11-20T10:51:10Z</time>
      </trkpt>
      <trkpt lat="40.60338" lon="-4.17073">
        <ele>1503.16</ele>
        <time>2014-11-20T10:51:25Z</time>
      </trkpt>
      <trkpt lat="40.60341" lon="-4.17074">
        <ele>1503.16</ele>
        <time>2014-11-20T10:51:38Z</time>
      </trkpt>
      <trkpt lat="40.60338" lon="-4.17073">
        <ele>1503.16</ele>
        <time>2014-11-20T10:51:45Z</time>
      </trkpt>
      <trkpt lat="40.60335" lon="-4.17072">
        <ele>1502.68</ele>
        <time>2014-11-20T10:51:48Z</time>
      </trkpt>
      <trkpt lat="40.60332" lon="-4.17066">
        <ele>1500.76</ele>
        <time>2014-11-20T10:51:59Z</time>
      </trkpt>
      <trkpt lat="40.60341" lon="-4.17073">
        <ele>1502.2</ele>
        <time>2014-11-20T10:52:07Z</time>
      </trkpt>
      <trkpt lat="40.60345" lon="-4.17071">
        <ele>1502.2</ele>
        <time>2014-11-20T10:52:11Z</time>
      </trkpt>
      <trkpt lat="40.60346" lon="-4.17069">
        <ele>1501.72</ele>
        <time>2014-11-20T10:52:13Z</time>
      </trkpt>
      <trkpt lat="40.6036" lon="-4.17056">
        <ele>1498.83</ele>
        <time>2014-11-20T10:52:27Z</time>
      </trkpt>
      <trkpt lat="40.60367" lon="-4.17049">
        <ele>1497.39</ele>
        <time>2014-11-20T10:52:34Z</time>
      </trkpt>
      <trkpt lat="40.60371" lon="-4.17046">
        <ele>1496.43</ele>
        <time>2014-11-20T10:52:38Z</time>
      </trkpt>
      <trkpt lat="40.60378" lon="-4.1704">
        <ele>1495.47</ele>
        <time>2014-11-20T10:52:43Z</time>
      </trkpt>
      <trkpt lat="40.60387" lon="-4.17035">
        <ele>1494.03</ele>
        <time>2014-11-20T10:52:51Z</time>
      </trkpt>
      <trkpt lat="40.6039" lon="-4.17032">
        <ele>1493.06</ele>
        <time>2014-11-20T10:52:55Z</time>
      </trkpt>
      <trkpt lat="40.60404" lon="-4.17017">
        <ele>1490.66</ele>
        <time>2014-11-20T10:53:09Z</time>
      </trkpt>
      <trkpt lat="40.60407" lon="-4.17014">
        <ele>1489.7</ele>
        <time>2014-11-20T10:53:13Z</time>
      </trkpt>
      <trkpt lat="40.60408" lon="-4.17003">
        <ele>1487.78</ele>
        <time>2014-11-20T10:53:26Z</time>
      </trkpt>
      <trkpt lat="40.60406" lon="-4.17003">
        <ele>1487.78</ele>
        <time>2014-11-20T10:53:32Z</time>
      </trkpt>
      <trkpt lat="40.60396" lon="-4.17">
        <ele>1484.89</ele>
        <time>2014-11-20T10:53:45Z</time>
      </trkpt>
      <trkpt lat="40.60388" lon="-4.16997">
        <ele>1483.93</ele>
        <time>2014-11-20T10:53:59Z</time>
      </trkpt>
      <trkpt lat="40.60383" lon="-4.16994">
        <ele>1482.49</ele>
        <time>2014-11-20T10:54:21Z</time>
      </trkpt>
      <trkpt lat="40.60381" lon="-4.16993">
        <ele>1482.49</ele>
        <time>2014-11-20T10:54:23Z</time>
      </trkpt>
      <trkpt lat="40.60363" lon="-4.16979">
        <ele>1478.65</ele>
        <time>2014-11-20T10:54:38Z</time>
      </trkpt>
      <trkpt lat="40.60353" lon="-4.1697">
        <ele>1476.72</ele>
        <time>2014-11-20T10:54:47Z</time>
      </trkpt>
      <trkpt lat="40.60349" lon="-4.16965">
        <ele>1475.76</ele>
        <time>2014-11-20T10:54:51Z</time>
      </trkpt>
      <trkpt lat="40.60329" lon="-4.16952">
        <ele>1472.4</ele>
        <time>2014-11-20T10:55:07Z</time>
      </trkpt>
      <trkpt lat="40.60319" lon="-4.16945">
        <ele>1469.99</ele>
        <time>2014-11-20T10:55:21Z</time>
      </trkpt>
      <trkpt lat="40.6032" lon="-4.16944">
        <ele>1469.99</ele>
        <time>2014-11-20T10:55:48Z</time>
      </trkpt>
      <trkpt lat="40.60318" lon="-4.16949">
        <ele>1469.99</ele>
        <time>2014-11-20T10:56:04Z</time>
      </trkpt>
      <trkpt lat="40.60313" lon="-4.16936">
        <ele>1468.55</ele>
        <time>2014-11-20T10:56:16Z</time>
      </trkpt>
      <trkpt lat="40.60304" lon="-4.16925">
        <ele>1466.15</ele>
        <time>2014-11-20T10:56:29Z</time>
      </trkpt>
      <trkpt lat="40.60301" lon="-4.16924">
        <ele>1466.15</ele>
        <time>2014-11-20T10:56:31Z</time>
      </trkpt>
      <trkpt lat="40.60288" lon="-4.16919">
        <ele>1464.23</ele>
        <time>2014-11-20T10:56:41Z</time>
      </trkpt>
      <trkpt lat="40.60286" lon="-4.1691">
        <ele>1462.78</ele>
        <time>2014-11-20T10:56:47Z</time>
      </trkpt>
      <trkpt lat="40.60285" lon="-4.16899">
        <ele>1460.38</ele>
        <time>2014-11-20T10:56:56Z</time>
      </trkpt>
      <trkpt lat="40.60279" lon="-4.16894">
        <ele>1459.9</ele>
        <time>2014-11-20T10:57:11Z</time>
      </trkpt>
      <trkpt lat="40.60278" lon="-4.16891">
        <ele>1459.9</ele>
        <time>2014-11-20T10:57:37Z</time>
      </trkpt>
      <trkpt lat="40.60274" lon="-4.16885">
        <ele>1458.94</ele>
        <time>2014-11-20T10:57:51Z</time>
      </trkpt>
      <trkpt lat="40.60271" lon="-4.16879">
        <ele>1457.98</ele>
        <time>2014-11-20T10:57:56Z</time>
      </trkpt>
      <trkpt lat="40.60258" lon="-4.16867">
        <ele>1455.57</ele>
        <time>2014-11-20T10:58:08Z</time>
      </trkpt>
      <trkpt lat="40.60254" lon="-4.16863">
        <ele>1454.61</ele>
        <time>2014-11-20T10:58:12Z</time>
      </trkpt>
      <trkpt lat="40.60236" lon="-4.1685">
        <ele>1451.25</ele>
        <time>2014-11-20T10:58:26Z</time>
      </trkpt>
      <trkpt lat="40.60229" lon="-4.16839">
        <ele>1449.32</ele>
        <time>2014-11-20T10:58:35Z</time>
      </trkpt>
      <trkpt lat="40.60223" lon="-4.16834">
        <ele>1448.36</ele>
        <time>2014-11-20T10:58:40Z</time>
      </trkpt>
      <trkpt lat="40.60219" lon="-4.1683">
        <ele>1447.4</ele>
        <time>2014-11-20T10:58:44Z</time>
      </trkpt>
      <trkpt lat="40.60214" lon="-4.16826">
        <ele>1445.96</ele>
        <time>2014-11-20T10:58:48Z</time>
      </trkpt>
      <trkpt lat="40.60198" lon="-4.16809">
        <ele>1443.08</ele>
        <time>2014-11-20T10:59:03Z</time>
      </trkpt>
      <trkpt lat="40.6019" lon="-4.16804">
        <ele>1442.6</ele>
        <time>2014-11-20T10:59:10Z</time>
      </trkpt>
      <trkpt lat="40.60189" lon="-4.16801">
        <ele>1441.63</ele>
        <time>2014-11-20T10:59:12Z</time>
      </trkpt>
      <trkpt lat="40.60182" lon="-4.16795">
        <ele>1439.71</ele>
        <time>2014-11-20T10:59:23Z</time>
      </trkpt>
      <trkpt lat="40.60183" lon="-4.16794">
        <ele>1438.75</ele>
        <time>2014-11-20T10:59:29Z</time>
      </trkpt>
      <trkpt lat="40.60189" lon="-4.16797">
        <ele>1437.31</ele>
        <time>2014-11-20T10:59:37Z</time>
      </trkpt>
      <trkpt lat="40.6019" lon="-4.16794">
        <ele>1436.83</ele>
        <time>2014-11-20T10:59:39Z</time>
      </trkpt>
      <trkpt lat="40.60185" lon="-4.16787">
        <ele>1435.39</ele>
        <time>2014-11-20T10:59:44Z</time>
      </trkpt>
      <trkpt lat="40.60171" lon="-4.16771">
        <ele>1432.5</ele>
        <time>2014-11-20T11:00:00Z</time>
      </trkpt>
      <trkpt lat="40.60161" lon="-4.16764">
        <ele>1430.1</ele>
        <time>2014-11-20T11:00:13Z</time>
      </trkpt>
      <trkpt lat="40.60147" lon="-4.16755">
        <ele>1428.18</ele>
        <time>2014-11-20T11:00:27Z</time>
      </trkpt>
      <trkpt lat="40.60149" lon="-4.16754">
        <ele>1427.21</ele>
        <time>2014-11-20T11:00:30Z</time>
      </trkpt>
      <trkpt lat="40.60158" lon="-4.1675">
        <ele>1424.33</ele>
        <time>2014-11-20T11:00:42Z</time>
      </trkpt>
      <trkpt lat="40.60151" lon="-4.16743">
        <ele>1422.89</ele>
        <time>2014-11-20T11:00:48Z</time>
      </trkpt>
      <trkpt lat="40.60148" lon="-4.16741">
        <ele>1422.41</ele>
        <time>2014-11-20T11:00:51Z</time>
      </trkpt>
      <trkpt lat="40.60144" lon="-4.16735">
        <ele>1421.45</ele>
        <time>2014-11-20T11:00:56Z</time>
      </trkpt>
      <trkpt lat="40.60129" lon="-4.16725">
        <ele>1418.08</ele>
        <time>2014-11-20T11:01:09Z</time>
      </trkpt>
      <trkpt lat="40.60114" lon="-4.16713">
        <ele>1415.2</ele>
        <time>2014-11-20T11:01:22Z</time>
      </trkpt>
      <trkpt lat="40.60112" lon="-4.16711">
        <ele>1414.24</ele>
        <time>2014-11-20T11:01:35Z</time>
      </trkpt>
      <trkpt lat="40.6011" lon="-4.16708">
        <ele>1413.76</ele>
        <time>2014-11-20T11:01:54Z</time>
      </trkpt>
      <trkpt lat="40.60104" lon="-4.16706">
        <ele>1413.28</ele>
        <time>2014-11-20T11:01:58Z</time>
      </trkpt>
      <trkpt lat="40.60099" lon="-4.16702">
        <ele>1412.31</ele>
        <time>2014-11-20T11:02:02Z</time>
      </trkpt>
      <trkpt lat="40.60087" lon="-4.16694">
        <ele>1409.91</ele>
        <time>2014-11-20T11:02:13Z</time>
      </trkpt>
      <trkpt lat="40.60076" lon="-4.16685">
        <ele>1407.99</ele>
        <time>2014-11-20T11:02:24Z</time>
      </trkpt>
      <trkpt lat="40.6006" lon="-4.16673">
        <ele>1405.1</ele>
        <time>2014-11-20T11:02:38Z</time>
      </trkpt>
      <trkpt lat="40.6005" lon="-4.16667">
        <ele>1404.62</ele>
        <time>2014-11-20T11:02:46Z</time>
      </trkpt>
      <trkpt lat="40.6004" lon="-4.16661">
        <ele>1401.74</ele>
        <time>2014-11-20T11:02:54Z</time>
      </trkpt>
      <trkpt lat="40.60029" lon="-4.1664">
        <ele>1399.34</ele>
        <time>2014-11-20T11:03:09Z</time>
      </trkpt>
      <trkpt lat="40.60024" lon="-4.16635">
        <ele>1398.37</ele>
        <time>2014-11-20T11:03:13Z</time>
      </trkpt>
      <trkpt lat="40.60014" lon="-4.16629">
        <ele>1396.93</ele>
        <time>2014-11-20T11:03:27Z</time>
      </trkpt>
      <trkpt lat="40.60013" lon="-4.16626">
        <ele>1396.93</ele>
        <time>2014-11-20T11:03:30Z</time>
      </trkpt>
      <trkpt lat="40.60009" lon="-4.16622">
        <ele>1395.97</ele>
        <time>2014-11-20T11:03:34Z</time>
      </trkpt>
      <trkpt lat="40.6" lon="-4.16602">
        <ele>1392.13</ele>
        <time>2014-11-20T11:03:49Z</time>
      </trkpt>
      <trkpt lat="40.59996" lon="-4.16591">
        <ele>1390.2</ele>
        <time>2014-11-20T11:04:01Z</time>
      </trkpt>
      <trkpt lat="40.59996" lon="-4.16587">
        <ele>1389.72</ele>
        <time>2014-11-20T11:04:09Z</time>
      </trkpt>
      <trkpt lat="40.5999" lon="-4.16578">
        <ele>1388.76</ele>
        <time>2014-11-20T11:04:21Z</time>
      </trkpt>
      <trkpt lat="40.59992" lon="-4.16578">
        <ele>1388.76</ele>
        <time>2014-11-20T11:04:24Z</time>
      </trkpt>
      <trkpt lat="40.5999" lon="-4.1657">
        <ele>1388.76</ele>
        <time>2014-11-20T11:04:29Z</time>
      </trkpt>
      <trkpt lat="40.59987" lon="-4.16564">
        <ele>1389.72</ele>
        <time>2014-11-20T11:04:41Z</time>
      </trkpt>
      <trkpt lat="40.59987" lon="-4.16565">
        <ele>1389.72</ele>
        <time>2014-11-20T11:05:06Z</time>
      </trkpt>
      <trkpt lat="40.59989" lon="-4.16566">
        <ele>1389.72</ele>
        <time>2014-11-20T11:05:31Z</time>
      </trkpt>
      <trkpt lat="40.59989" lon="-4.16565">
        <ele>1389.72</ele>
        <time>2014-11-20T11:05:48Z</time>
      </trkpt>
      <trkpt lat="40.59989" lon="-4.16568">
        <ele>1389.72</ele>
        <time>2014-11-20T11:05:54Z</time>
      </trkpt>
      <trkpt lat="40.5999" lon="-4.16574">
        <ele>1388.76</ele>
        <time>2014-11-20T11:06:00Z</time>
      </trkpt>
      <trkpt lat="40.59991" lon="-4.16579">
        <ele>1388.28</ele>
        <time>2014-11-20T11:06:04Z</time>
      </trkpt>
      <trkpt lat="40.59991" lon="-4.16587">
        <ele>1388.76</ele>
        <time>2014-11-20T11:06:09Z</time>
      </trkpt>
      <trkpt lat="40.59996" lon="-4.1659">
        <ele>1389.24</ele>
        <time>2014-11-20T11:06:16Z</time>
      </trkpt>
      <trkpt lat="40.59999" lon="-4.16595">
        <ele>1388.76</ele>
        <time>2014-11-20T11:06:31Z</time>
      </trkpt>
      <trkpt lat="40.6" lon="-4.16595">
        <ele>1388.76</ele>
        <time>2014-11-20T11:06:36Z</time>
      </trkpt>
      <trkpt lat="40.60003" lon="-4.16596">
        <ele>1388.76</ele>
        <time>2014-11-20T11:06:48Z</time>
      </trkpt>
      <trkpt lat="40.60003" lon="-4.166">
        <ele>1386.84</ele>
        <time>2014-11-20T11:07:00Z</time>
      </trkpt>
      <trkpt lat="40.6001" lon="-4.16606">
        <ele>1384.92</ele>
        <time>2014-11-20T11:07:08Z</time>
      </trkpt>
      <trkpt lat="40.60025" lon="-4.16612">
        <ele>1382.03</ele>
        <time>2014-11-20T11:07:22Z</time>
      </trkpt>
      <trkpt lat="40.60041" lon="-4.16616">
        <ele>1379.63</ele>
        <time>2014-11-20T11:07:35Z</time>
      </trkpt>
      <trkpt lat="40.60045" lon="-4.16608">
        <ele>1377.23</ele>
        <time>2014-11-20T11:07:44Z</time>
      </trkpt>
      <trkpt lat="40.60039" lon="-4.166">
        <ele>1374.82</ele>
        <time>2014-11-20T11:07:51Z</time>
      </trkpt>
      <trkpt lat="40.60034" lon="-4.16597">
        <ele>1373.86</ele>
        <time>2014-11-20T11:07:56Z</time>
      </trkpt>
      <trkpt lat="40.60031" lon="-4.16596">
        <ele>1373.38</ele>
        <time>2014-11-20T11:07:59Z</time>
      </trkpt>
      <trkpt lat="40.60028" lon="-4.1659">
        <ele>1371.94</ele>
        <time>2014-11-20T11:08:04Z</time>
      </trkpt>
      <trkpt lat="40.60024" lon="-4.16583">
        <ele>1370.5</ele>
        <time>2014-11-20T11:08:10Z</time>
      </trkpt>
      <trkpt lat="40.60025" lon="-4.16578">
        <ele>1369.54</ele>
        <time>2014-11-20T11:08:16Z</time>
      </trkpt>
      <trkpt lat="40.60039" lon="-4.16582">
        <ele>1366.17</ele>
        <time>2014-11-20T11:08:29Z</time>
      </trkpt>
      <trkpt lat="40.6004" lon="-4.16583">
        <ele>1366.17</ele>
        <time>2014-11-20T11:08:30Z</time>
      </trkpt>
      <trkpt lat="40.60044" lon="-4.16581">
        <ele>1365.21</ele>
        <time>2014-11-20T11:08:34Z</time>
      </trkpt>
      <trkpt lat="40.60037" lon="-4.1657">
        <ele>1363.29</ele>
        <time>2014-11-20T11:08:42Z</time>
      </trkpt>
      <trkpt lat="40.60029" lon="-4.16557">
        <ele>1360.88</ele>
        <time>2014-11-20T11:08:52Z</time>
      </trkpt>
      <trkpt lat="40.60021" lon="-4.16538">
        <ele>1358</ele>
        <time>2014-11-20T11:09:05Z</time>
      </trkpt>
      <trkpt lat="40.6002" lon="-4.16535">
        <ele>1357.52</ele>
        <time>2014-11-20T11:09:07Z</time>
      </trkpt>
      <trkpt lat="40.60019" lon="-4.16527">
        <ele>1356.56</ele>
        <time>2014-11-20T11:09:12Z</time>
      </trkpt>
      <trkpt lat="40.60017" lon="-4.16514">
        <ele>1354.63</ele>
        <time>2014-11-20T11:09:20Z</time>
      </trkpt>
      <trkpt lat="40.60008" lon="-4.16507">
        <ele>1353.19</ele>
        <time>2014-11-20T11:09:27Z</time>
      </trkpt>
      <trkpt lat="40.60001" lon="-4.16494">
        <ele>1349.83</ele>
        <time>2014-11-20T11:09:39Z</time>
      </trkpt>
      <trkpt lat="40.59993" lon="-4.16479">
        <ele>1346.94</ele>
        <time>2014-11-20T11:09:52Z</time>
      </trkpt>
      <trkpt lat="40.59991" lon="-4.16477">
        <ele>1346.46</ele>
        <time>2014-11-20T11:09:54Z</time>
      </trkpt>
      <trkpt lat="40.5998" lon="-4.16458">
        <ele>1343.58</ele>
        <time>2014-11-20T11:10:09Z</time>
      </trkpt>
      <trkpt lat="40.59969" lon="-4.16445">
        <ele>1340.7</ele>
        <time>2014-11-20T11:10:22Z</time>
      </trkpt>
      <trkpt lat="40.59963" lon="-4.16435">
        <ele>1339.25</ele>
        <time>2014-11-20T11:10:31Z</time>
      </trkpt>
      <trkpt lat="40.59959" lon="-4.16428">
        <ele>1336.85</ele>
        <time>2014-11-20T11:10:41Z</time>
      </trkpt>
      <trkpt lat="40.5996" lon="-4.16422">
        <ele>1335.41</ele>
        <time>2014-11-20T11:10:47Z</time>
      </trkpt>
      <trkpt lat="40.59966" lon="-4.16424">
        <ele>1333.97</ele>
        <time>2014-11-20T11:10:53Z</time>
      </trkpt>
      <trkpt lat="40.59969" lon="-4.16425">
        <ele>1333.49</ele>
        <time>2014-11-20T11:10:56Z</time>
      </trkpt>
      <trkpt lat="40.59973" lon="-4.16426">
        <ele>1332.04</ele>
        <time>2014-11-20T11:11:01Z</time>
      </trkpt>
      <trkpt lat="40.59981" lon="-4.16434">
        <ele>1330.6</ele>
        <time>2014-11-20T11:11:09Z</time>
      </trkpt>
      <trkpt lat="40.59985" lon="-4.16434">
        <ele>1330.12</ele>
        <time>2014-11-20T11:11:12Z</time>
      </trkpt>
      <trkpt lat="40.59989" lon="-4.16435">
        <ele>1329.16</ele>
        <time>2014-11-20T11:11:17Z</time>
      </trkpt>
      <trkpt lat="40.59996" lon="-4.16429">
        <ele>1325.8</ele>
        <time>2014-11-20T11:11:29Z</time>
      </trkpt>
      <trkpt lat="40.59994" lon="-4.16421">
        <ele>1325.31</ele>
        <time>2014-11-20T11:11:34Z</time>
      </trkpt>
      <trkpt lat="40.59991" lon="-4.16416">
        <ele>1324.35</ele>
        <time>2014-11-20T11:11:37Z</time>
      </trkpt>
      <trkpt lat="40.59981" lon="-4.16399">
        <ele>1321.47</ele>
        <time>2014-11-20T11:11:50Z</time>
      </trkpt>
      <trkpt lat="40.59979" lon="-4.16395">
        <ele>1320.99</ele>
        <time>2014-11-20T11:11:52Z</time>
      </trkpt>
      <trkpt lat="40.59974" lon="-4.1639">
        <ele>1320.03</ele>
        <time>2014-11-20T11:11:57Z</time>
      </trkpt>
      <trkpt lat="40.59963" lon="-4.16385">
        <ele>1318.59</ele>
        <time>2014-11-20T11:12:05Z</time>
      </trkpt>
      <trkpt lat="40.59958" lon="-4.16382">
        <ele>1317.62</ele>
        <time>2014-11-20T11:12:09Z</time>
      </trkpt>
      <trkpt lat="40.59944" lon="-4.16372">
        <ele>1315.22</ele>
        <time>2014-11-20T11:12:22Z</time>
      </trkpt>
      <trkpt lat="40.5994" lon="-4.16369">
        <ele>1314.74</ele>
        <time>2014-11-20T11:12:25Z</time>
      </trkpt>
      <trkpt lat="40.59925" lon="-4.16358">
        <ele>1311.86</ele>
        <time>2014-11-20T11:12:40Z</time>
      </trkpt>
      <trkpt lat="40.59919" lon="-4.1635">
        <ele>1311.38</ele>
        <time>2014-11-20T11:12:54Z</time>
      </trkpt>
      <trkpt lat="40.5991" lon="-4.16338">
        <ele>1310.41</ele>
        <time>2014-11-20T11:13:07Z</time>
      </trkpt>
      <trkpt lat="40.59909" lon="-4.16336">
        <ele>1309.93</ele>
        <time>2014-11-20T11:13:09Z</time>
      </trkpt>
      <trkpt lat="40.59909" lon="-4.16334">
        <ele>1309.93</ele>
        <time>2014-11-20T11:13:11Z</time>
      </trkpt>
      <trkpt lat="40.59904" lon="-4.16329">
        <ele>1308.01</ele>
        <time>2014-11-20T11:13:16Z</time>
      </trkpt>
      <trkpt lat="40.59886" lon="-4.16321">
        <ele>1304.65</ele>
        <time>2014-11-20T11:13:30Z</time>
      </trkpt>
      <trkpt lat="40.59877" lon="-4.16317">
        <ele>1303.2</ele>
        <time>2014-11-20T11:13:38Z</time>
      </trkpt>
      <trkpt lat="40.59878" lon="-4.16315">
        <ele>1302.24</ele>
        <time>2014-11-20T11:13:41Z</time>
      </trkpt>
      <trkpt lat="40.59889" lon="-4.16314">
        <ele>1300.32</ele>
        <time>2014-11-20T11:13:52Z</time>
      </trkpt>
      <trkpt lat="40.59899" lon="-4.16313">
        <ele>1299.36</ele>
        <time>2014-11-20T11:14:00Z</time>
      </trkpt>
      <trkpt lat="40.59903" lon="-4.16308">
        <ele>1297.44</ele>
        <time>2014-11-20T11:14:06Z</time>
      </trkpt>
      <trkpt lat="40.59891" lon="-4.16298">
        <ele>1295.03</ele>
        <time>2014-11-20T11:14:16Z</time>
      </trkpt>
      <trkpt lat="40.59877" lon="-4.16291">
        <ele>1292.63</ele>
        <time>2014-11-20T11:14:26Z</time>
      </trkpt>
      <trkpt lat="40.59861" lon="-4.16279">
        <ele>1289.27</ele>
        <time>2014-11-20T11:14:41Z</time>
      </trkpt>
      <trkpt lat="40.59854" lon="-4.16279">
        <ele>1288.3</ele>
        <time>2014-11-20T11:14:46Z</time>
      </trkpt>
      <trkpt lat="40.59846" lon="-4.16273">
        <ele>1286.86</ele>
        <time>2014-11-20T11:14:54Z</time>
      </trkpt>
      <trkpt lat="40.59833" lon="-4.16272">
        <ele>1284.46</ele>
        <time>2014-11-20T11:15:05Z</time>
      </trkpt>
      <trkpt lat="40.59825" lon="-4.16274">
        <ele>1283.02</ele>
        <time>2014-11-20T11:15:12Z</time>
      </trkpt>
      <trkpt lat="40.59818" lon="-4.16274">
        <ele>1282.06</ele>
        <time>2014-11-20T11:15:18Z</time>
      </trkpt>
      <trkpt lat="40.59817" lon="-4.16267">
        <ele>1278.69</ele>
        <time>2014-11-20T11:15:31Z</time>
      </trkpt>
      <trkpt lat="40.59821" lon="-4.16263">
        <ele>1277.73</ele>
        <time>2014-11-20T11:15:36Z</time>
      </trkpt>
      <trkpt lat="40.59832" lon="-4.1625">
        <ele>1274.85</ele>
        <time>2014-11-20T11:15:50Z</time>
      </trkpt>
      <trkpt lat="40.59839" lon="-4.16246">
        <ele>1273.4</ele>
        <time>2014-11-20T11:15:57Z</time>
      </trkpt>
      <trkpt lat="40.59849" lon="-4.16244">
        <ele>1272.44</ele>
        <time>2014-11-20T11:16:05Z</time>
      </trkpt>
      <trkpt lat="40.59844" lon="-4.16239">
        <ele>1271.48</ele>
        <time>2014-11-20T11:16:09Z</time>
      </trkpt>
      <trkpt lat="40.59842" lon="-4.16238">
        <ele>1271.48</ele>
        <time>2014-11-20T11:16:11Z</time>
      </trkpt>
      <trkpt lat="40.59831" lon="-4.16234">
        <ele>1269.56</ele>
        <time>2014-11-20T11:16:20Z</time>
      </trkpt>
      <trkpt lat="40.59819" lon="-4.1623">
        <ele>1267.64</ele>
        <time>2014-11-20T11:16:31Z</time>
      </trkpt>
      <trkpt lat="40.598" lon="-4.16226">
        <ele>1264.75</ele>
        <time>2014-11-20T11:16:45Z</time>
      </trkpt>
      <trkpt lat="40.59787" lon="-4.16217">
        <ele>1261.87</ele>
        <time>2014-11-20T11:16:57Z</time>
      </trkpt>
      <trkpt lat="40.59771" lon="-4.16204">
        <ele>1259.46</ele>
        <time>2014-11-20T11:17:10Z</time>
      </trkpt>
      <trkpt lat="40.59764" lon="-4.16195">
        <ele>1257.54</ele>
        <time>2014-11-20T11:17:17Z</time>
      </trkpt>
      <trkpt lat="40.59761" lon="-4.16193">
        <ele>1257.06</ele>
        <time>2014-11-20T11:17:20Z</time>
      </trkpt>
      <trkpt lat="40.59759" lon="-4.16189">
        <ele>1256.58</ele>
        <time>2014-11-20T11:17:23Z</time>
      </trkpt>
      <trkpt lat="40.59752" lon="-4.16179">
        <ele>1255.14</ele>
        <time>2014-11-20T11:17:32Z</time>
      </trkpt>
      <trkpt lat="40.59743" lon="-4.16172">
        <ele>1253.7</ele>
        <time>2014-11-20T11:17:41Z</time>
      </trkpt>
      <trkpt lat="40.59744" lon="-4.16154">
        <ele>1251.29</ele>
        <time>2014-11-20T11:17:54Z</time>
      </trkpt>
      <trkpt lat="40.59743" lon="-4.16136">
        <ele>1249.37</ele>
        <time>2014-11-20T11:18:06Z</time>
      </trkpt>
      <trkpt lat="40.59741" lon="-4.16131">
        <ele>1248.41</ele>
        <time>2014-11-20T11:18:10Z</time>
      </trkpt>
      <trkpt lat="40.59736" lon="-4.16122">
        <ele>1248.41</ele>
        <time>2014-11-20T11:18:18Z</time>
      </trkpt>
      <trkpt lat="40.59733" lon="-4.16127">
        <ele>1248.89</ele>
        <time>2014-11-20T11:18:31Z</time>
      </trkpt>
      <trkpt lat="40.59734" lon="-4.16132">
        <ele>1249.37</ele>
        <time>2014-11-20T11:18:46Z</time>
      </trkpt>
      <trkpt lat="40.59738" lon="-4.16122">
        <ele>1247.93</ele>
        <time>2014-11-20T11:18:53Z</time>
      </trkpt>
      <trkpt lat="40.59735" lon="-4.16109">
        <ele>1246.01</ele>
        <time>2014-11-20T11:19:02Z</time>
      </trkpt>
      <trkpt lat="40.59723" lon="-4.16097">
        <ele>1243.12</ele>
        <time>2014-11-20T11:19:16Z</time>
      </trkpt>
      <trkpt lat="40.59713" lon="-4.16081">
        <ele>1240.72</ele>
        <time>2014-11-20T11:19:28Z</time>
      </trkpt>
      <trkpt lat="40.59708" lon="-4.16065">
        <ele>1237.83</ele>
        <time>2014-11-20T11:19:39Z</time>
      </trkpt>
      <trkpt lat="40.59702" lon="-4.16055">
        <ele>1236.39</ele>
        <time>2014-11-20T11:19:47Z</time>
      </trkpt>
      <trkpt lat="40.59692" lon="-4.16034">
        <ele>1233.51</ele>
        <time>2014-11-20T11:20:02Z</time>
      </trkpt>
      <trkpt lat="40.59689" lon="-4.16029">
        <ele>1232.07</ele>
        <time>2014-11-20T11:20:07Z</time>
      </trkpt>
      <trkpt lat="40.59684" lon="-4.1602">
        <ele>1230.14</ele>
        <time>2014-11-20T11:20:15Z</time>
      </trkpt>
      <trkpt lat="40.59677" lon="-4.16014">
        <ele>1228.22</ele>
        <time>2014-11-20T11:20:22Z</time>
      </trkpt>
      <trkpt lat="40.59674" lon="-4.16006">
        <ele>1226.78</ele>
        <time>2014-11-20T11:20:29Z</time>
      </trkpt>
      <trkpt lat="40.59667" lon="-4.15995">
        <ele>1225.34</ele>
        <time>2014-11-20T11:20:37Z</time>
      </trkpt>
      <trkpt lat="40.59662" lon="-4.15984">
        <ele>1223.42</ele>
        <time>2014-11-20T11:20:47Z</time>
      </trkpt>
      <trkpt lat="40.59658" lon="-4.15978">
        <ele>1221.97</ele>
        <time>2014-11-20T11:20:53Z</time>
      </trkpt>
      <trkpt lat="40.59648" lon="-4.15968">
        <ele>1219.57</ele>
        <time>2014-11-20T11:21:04Z</time>
      </trkpt>
      <trkpt lat="40.59647" lon="-4.15967">
        <ele>1219.57</ele>
        <time>2014-11-20T11:21:05Z</time>
      </trkpt>
      <trkpt lat="40.59636" lon="-4.15952">
        <ele>1215.72</ele>
        <time>2014-11-20T11:21:18Z</time>
      </trkpt>
      <trkpt lat="40.59627" lon="-4.15937">
        <ele>1212.36</ele>
        <time>2014-11-20T11:21:30Z</time>
      </trkpt>
      <trkpt lat="40.59623" lon="-4.15929">
        <ele>1210.92</ele>
        <time>2014-11-20T11:21:38Z</time>
      </trkpt>
      <trkpt lat="40.59618" lon="-4.15921">
        <ele>1209.48</ele>
        <time>2014-11-20T11:21:52Z</time>
      </trkpt>
      <trkpt lat="40.59611" lon="-4.1591">
        <ele>1207.07</ele>
        <time>2014-11-20T11:22:05Z</time>
      </trkpt>
      <trkpt lat="40.5961" lon="-4.15909">
        <ele>1207.07</ele>
        <time>2014-11-20T11:22:06Z</time>
      </trkpt>
      <trkpt lat="40.59607" lon="-4.15902">
        <ele>1205.15</ele>
        <time>2014-11-20T11:22:11Z</time>
      </trkpt>
      <trkpt lat="40.59603" lon="-4.15895">
        <ele>1203.71</ele>
        <time>2014-11-20T11:22:17Z</time>
      </trkpt>
      <trkpt lat="40.596" lon="-4.1589">
        <ele>1202.27</ele>
        <time>2014-11-20T11:22:22Z</time>
      </trkpt>
      <trkpt lat="40.59597" lon="-4.15878">
        <ele>1199.38</ele>
        <time>2014-11-20T11:22:32Z</time>
      </trkpt>
      <trkpt lat="40.59591" lon="-4.15877">
        <ele>1198.42</ele>
        <time>2014-11-20T11:22:43Z</time>
      </trkpt>
      <trkpt lat="40.5959" lon="-4.15878">
        <ele>1199.38</ele>
        <time>2014-11-20T11:22:47Z</time>
      </trkpt>
      <trkpt lat="40.5958" lon="-4.15875">
        <ele>1197.94</ele>
        <time>2014-11-20T11:22:56Z</time>
      </trkpt>
      <trkpt lat="40.59578" lon="-4.15876">
        <ele>1197.46</ele>
        <time>2014-11-20T11:22:58Z</time>
      </trkpt>
      <trkpt lat="40.59577" lon="-4.15874">
        <ele>1196.98</ele>
        <time>2014-11-20T11:23:02Z</time>
      </trkpt>
      <trkpt lat="40.59569" lon="-4.1587">
        <ele>1194.09</ele>
        <time>2014-11-20T11:23:12Z</time>
      </trkpt>
      <trkpt lat="40.5957" lon="-4.15862">
        <ele>1192.65</ele>
        <time>2014-11-20T11:23:23Z</time>
      </trkpt>
      <trkpt lat="40.59565" lon="-4.15853">
        <ele>1190.25</ele>
        <time>2014-11-20T11:23:34Z</time>
      </trkpt>
      <trkpt lat="40.59564" lon="-4.15852">
        <ele>1189.77</ele>
        <time>2014-11-20T11:23:36Z</time>
      </trkpt>
      <trkpt lat="40.5956" lon="-4.15841">
        <ele>1187.37</ele>
        <time>2014-11-20T11:23:50Z</time>
      </trkpt>
      <trkpt lat="40.5956" lon="-4.15836">
        <ele>1186.4</ele>
        <time>2014-11-20T11:23:54Z</time>
      </trkpt>
      <trkpt lat="40.5956" lon="-4.15832">
        <ele>1185.44</ele>
        <time>2014-11-20T11:23:57Z</time>
      </trkpt>
      <trkpt lat="40.59566" lon="-4.15814">
        <ele>1182.56</ele>
        <time>2014-11-20T11:24:12Z</time>
      </trkpt>
      <trkpt lat="40.59566" lon="-4.15813">
        <ele>1182.56</ele>
        <time>2014-11-20T11:24:13Z</time>
      </trkpt>
      <trkpt lat="40.59563" lon="-4.15805">
        <ele>1181.12</ele>
        <time>2014-11-20T11:24:18Z</time>
      </trkpt>
      <trkpt lat="40.59563" lon="-4.1579">
        <ele>1178.23</ele>
        <time>2014-11-20T11:24:31Z</time>
      </trkpt>
      <trkpt lat="40.59563" lon="-4.15788">
        <ele>1177.75</ele>
        <time>2014-11-20T11:24:32Z</time>
      </trkpt>
      <trkpt lat="40.59554" lon="-4.15774">
        <ele>1174.87</ele>
        <time>2014-11-20T11:24:45Z</time>
      </trkpt>
      <trkpt lat="40.59553" lon="-4.15773">
        <ele>1174.87</ele>
        <time>2014-11-20T11:24:46Z</time>
      </trkpt>
      <trkpt lat="40.59547" lon="-4.15764">
        <ele>1173.43</ele>
        <time>2014-11-20T11:24:55Z</time>
      </trkpt>
      <trkpt lat="40.59544" lon="-4.15761">
        <ele>1172.95</ele>
        <time>2014-11-20T11:24:59Z</time>
      </trkpt>
      <trkpt lat="40.59541" lon="-4.15754">
        <ele>1171.5</ele>
        <time>2014-11-20T11:25:05Z</time>
      </trkpt>
      <trkpt lat="40.59538" lon="-4.1575">
        <ele>1170.54</ele>
        <time>2014-11-20T11:25:09Z</time>
      </trkpt>
      <trkpt lat="40.59536" lon="-4.15744">
        <ele>1169.58</ele>
        <time>2014-11-20T11:25:15Z</time>
      </trkpt>
      <trkpt lat="40.59535" lon="-4.15737">
        <ele>1168.14</ele>
        <time>2014-11-20T11:25:23Z</time>
      </trkpt>
      <trkpt lat="40.59536" lon="-4.15735">
        <ele>1167.66</ele>
        <time>2014-11-20T11:25:25Z</time>
      </trkpt>
      <trkpt lat="40.59535" lon="-4.1572">
        <ele>1164.29</ele>
        <time>2014-11-20T11:25:37Z</time>
      </trkpt>
      <trkpt lat="40.59533" lon="-4.15717">
        <ele>1163.81</ele>
        <time>2014-11-20T11:25:39Z</time>
      </trkpt>
      <trkpt lat="40.59526" lon="-4.15714">
        <ele>1161.89</ele>
        <time>2014-11-20T11:25:47Z</time>
      </trkpt>
      <trkpt lat="40.59521" lon="-4.15709">
        <ele>1159.97</ele>
        <time>2014-11-20T11:25:53Z</time>
      </trkpt>
      <trkpt lat="40.59516" lon="-4.15706">
        <ele>1159.01</ele>
        <time>2014-11-20T11:25:58Z</time>
      </trkpt>
      <trkpt lat="40.59513" lon="-4.15702">
        <ele>1158.05</ele>
        <time>2014-11-20T11:26:02Z</time>
      </trkpt>
      <trkpt lat="40.59511" lon="-4.157">
        <ele>1157.56</ele>
        <time>2014-11-20T11:26:04Z</time>
      </trkpt>
      <trkpt lat="40.59502" lon="-4.15686">
        <ele>1154.68</ele>
        <time>2014-11-20T11:26:18Z</time>
      </trkpt>
      <trkpt lat="40.59495" lon="-4.15677">
        <ele>1151.8</ele>
        <time>2014-11-20T11:26:30Z</time>
      </trkpt>
      <trkpt lat="40.59494" lon="-4.15676">
        <ele>1151.8</ele>
        <time>2014-11-20T11:26:31Z</time>
      </trkpt>
      <trkpt lat="40.59488" lon="-4.15669">
        <ele>1148.91</ele>
        <time>2014-11-20T11:26:43Z</time>
      </trkpt>
      <trkpt lat="40.59487" lon="-4.15666">
        <ele>1148.91</ele>
        <time>2014-11-20T11:26:45Z</time>
      </trkpt>
      <trkpt lat="40.59486" lon="-4.15658">
        <ele>1146.51</ele>
        <time>2014-11-20T11:26:54Z</time>
      </trkpt>
      <trkpt lat="40.59483" lon="-4.15651">
        <ele>1144.59</ele>
        <time>2014-11-20T11:27:06Z</time>
      </trkpt>
      <trkpt lat="40.59481" lon="-4.15646">
        <ele>1142.66</ele>
        <time>2014-11-20T11:27:15Z</time>
      </trkpt>
      <trkpt lat="40.59479" lon="-4.1564">
        <ele>1141.7</ele>
        <time>2014-11-20T11:27:19Z</time>
      </trkpt>
      <trkpt lat="40.59475" lon="-4.15626">
        <ele>1138.34</ele>
        <time>2014-11-20T11:27:31Z</time>
      </trkpt>
      <trkpt lat="40.59472" lon="-4.15613">
        <ele>1135.45</ele>
        <time>2014-11-20T11:27:46Z</time>
      </trkpt>
      <trkpt lat="40.59468" lon="-4.15601">
        <ele>1132.09</ele>
        <time>2014-11-20T11:27:59Z</time>
      </trkpt>
      <trkpt lat="40.59467" lon="-4.15592">
        <ele>1129.21</ele>
        <time>2014-11-20T11:28:15Z</time>
      </trkpt>
      <trkpt lat="40.59461" lon="-4.15577">
        <ele>1126.8</ele>
        <time>2014-11-20T11:28:28Z</time>
      </trkpt>
      <trkpt lat="40.59459" lon="-4.15577">
        <ele>1126.8</ele>
        <time>2014-11-20T11:28:40Z</time>
      </trkpt>
      <trkpt lat="40.59451" lon="-4.15568">
        <ele>1125.84</ele>
        <time>2014-11-20T11:28:47Z</time>
      </trkpt>
      <trkpt lat="40.5945" lon="-4.15558">
        <ele>1122.96</ele>
        <time>2014-11-20T11:29:00Z</time>
      </trkpt>
      <trkpt lat="40.59451" lon="-4.15559">
        <ele>1122.96</ele>
        <time>2014-11-20T11:29:01Z</time>
      </trkpt>
      <trkpt lat="40.59456" lon="-4.15562">
        <ele>1122</ele>
        <time>2014-11-20T11:29:06Z</time>
      </trkpt>
      <trkpt lat="40.5946" lon="-4.15565">
        <ele>1121.03</ele>
        <time>2014-11-20T11:29:11Z</time>
      </trkpt>
      <trkpt lat="40.59466" lon="-4.1557">
        <ele>1119.59</ele>
        <time>2014-11-20T11:29:20Z</time>
      </trkpt>
      <trkpt lat="40.59473" lon="-4.15573">
        <ele>1118.15</ele>
        <time>2014-11-20T11:29:33Z</time>
      </trkpt>
      <trkpt lat="40.5948" lon="-4.15567">
        <ele>1115.27</ele>
        <time>2014-11-20T11:29:44Z</time>
      </trkpt>
      <trkpt lat="40.59481" lon="-4.15567">
        <ele>1115.27</ele>
        <time>2014-11-20T11:29:47Z</time>
      </trkpt>
      <trkpt lat="40.59484" lon="-4.15555">
        <ele>1115.27</ele>
        <time>2014-11-20T11:30:01Z</time>
      </trkpt>
      <trkpt lat="40.59476" lon="-4.1553">
        <ele>1112.86</ele>
        <time>2014-11-20T11:30:16Z</time>
      </trkpt>
      <trkpt lat="40.59471" lon="-4.15518">
        <ele>1111.9</ele>
        <time>2014-11-20T11:30:23Z</time>
      </trkpt>
      <trkpt lat="40.59468" lon="-4.15511">
        <ele>1110.94</ele>
        <time>2014-11-20T11:30:27Z</time>
      </trkpt>
      <trkpt lat="40.59466" lon="-4.15508">
        <ele>1110.94</ele>
        <time>2014-11-20T11:30:29Z</time>
      </trkpt>
      <trkpt lat="40.59452" lon="-4.15487">
        <ele>1108.54</ele>
        <time>2014-11-20T11:30:44Z</time>
      </trkpt>
      <trkpt lat="40.59443" lon="-4.15478">
        <ele>1107.58</ele>
        <time>2014-11-20T11:30:52Z</time>
      </trkpt>
      <trkpt lat="40.59437" lon="-4.15486">
        <ele>1107.58</ele>
        <time>2014-11-20T11:30:58Z</time>
      </trkpt>
    </trkseg>
  </trk>
</gpx>